     2              OBSERVATION DATA    GPS                 RINEX VERSION / TYPE
teqc 1999Jul19 20000201 02:02:38UTC                         PGM / RUN BY / DATE
                                                            COMMENT
L2: 1 -> 1; 5 -> 5; 60 -> 9                                 COMMENT
L2: 1 -> 1; 5 -> 5; 60 -> 9                                 COMMENT
L2: 1 -> 1; 5 -> 5; 60 -> 9                                 COMMENT
L2: 1 -> 1; 5 -> 5; 60 -> 9                                 COMMENT
L2: 1 -> 1; 5 -> 5; 60 -> 9                                 COMMENT
Original Marker Name: 0013                                  COMMENT
Campaign Name: Imperial Valley Leveling                     COMMENT
4-Character Station Name: 0013                              COMMENT
6-Character Antenna Code: TRMSST                            COMMENT
Vertical Measurement Point: BPA                             COMMENT
Vertical Offset to Rinex Ref. Point: 0.0000                 COMMENT
Radial Measurement Point: RRP                               COMMENT
Radial Offset to Rinex Ref. Point: 0.0000                   COMMENT
Antenna Height from Field Measurement: 2.2140 m             COMMENT
Additional Antenna Identification Info.:                    COMMENT
Model 14532.00                                              COMMENT
Original XYZ: -2298448.9118 -4848602.8603 3436377.0472      COMMENT
New XYZ position is based on association with SCEC monument COMMENT
E1C8W1X7+0011. Position of that monument is believed to be  COMMENT
valid to within 1 m horizontally; vertical accuracy         COMMENT
should be no worse than 3-times this value.                 COMMENT
                                                            COMMENT
Revised Rinex header created by UCSD GPS archive for        COMMENT
GSAC on 17-Jul-2000 (2000:199) 21:22:48 GMT                 COMMENT
For assistance contact dagnew@ucsd.edu                      COMMENT
or anderson@python.ucsd.edu                                 COMMENT
                                                            COMMENT
IMP CO SURV CO-J-3 J 1983                                   MARKER NAME
0013                                                        MARKER NUMBER
-Unknown- CALIF DEPT TRANSPORTATION                         OBSERVER / AGENCY
7371 TRIMBLE 4000 SSE NP 6.04; SP 2.07                      REC # / TYPE / VERS
S/N UNKNOWN TR 4000SST L1/L2 GEO                            ANT # / TYPE
 -2298451.4475 -4848607.5978  3436379.7753                  APPROX POSITION XYZ
        2.2140        0.0000        0.0000                  ANTENNA: DELTA H/E/N
     1     1     0                                          WAVELENGTH FACT L1/2
     7    C1    L1    L2    P1    P2    S1    S2            # / TYPES OF OBSERV
     0                                                      INTERVAL
  1995     4    13    15    46   15.000000                  TIME OF FIRST OBS
  1995     4    13    22    48   30.000000                  TIME OF LAST OBS
                                                            END OF HEADER
 95  4 13 15 46 15.0000000  0  8G14G18G19G22G27G28G29G31
  23471686.7114     169197.98655     24409.98256                  23471688.7734
        11.5004         14.5004
  20401537.7894     -33261.89058     -4290.86059                  20401538.8324
        31.5004         63.7504
  21457641.8914     -42706.48857     -3940.23159                  21457644.0234
        25.2504         63.7504
  23639736.8914     158433.30756     22855.59356                  23639738.6254
        14.7504         21.0004
  24128395.1174     -90172.52255
         8.2504
                    -34697.82715    -27037.16915  23386435.563    23386436.988
        11.250          11.750
  20578971.0554      37835.42457      5406.70559                  20578972.7664
        27.7504         63.7504
  23377708.0784    -105577.14656    -15410.25456                  23377710.7504
        13.7504         19.7504
 95  4 13 15 46 30.0000000  0  8G14G18G19G22G27G28G29G31
  23482834.8134     227781.99545     70059.85346                  23482836.6294
        11.2504         13.7504
  20399271.9844     -45168.42348    -13568.65649                  20399273.0744
        31.2504         63.7504
  21454730.2974     -58006.74847    -15862.50349                  21454732.2894
        25.2504         63.5004
  23650174.9694     213285.01346     65597.18746                  23650176.7734
        14.2504         20.2504
  24122325.8984    -122072.36145    -11619.03455                  24122329.2504
         8.7504         11.2504
                    -47076.008 5    -36682.473 5  23384080.086    23384081.402
        11.250          11.500
  20581428.0944      50746.06848     15466.95149                  20581429.7234
        28.5004         63.7504
  23370621.4304    -142815.76046    -44427.33146                  23370624.6524
        13.2504         18.2504
 95  4 13 15 46 45.0000000  0  8G14G18G19G22G27G28G29G31
  23493945.2504     286165.01645    115553.10546                  23493947.4884
        11.0004         13.7504
  20396980.6484     -57209.84848    -22951.56449                  20396981.6914
        31.5004         63.7504
  21451783.9384     -73490.88547    -27928.03849                  21451785.9184
        25.7504         63.7504
  23660576.3054     267945.63346    108189.88746                  23660578.4024
        14.2504         19.7504
  24116214.8674    -154183.59745    -36640.72845                  24116216.3794
         9.0004          9.2504
                    -59573.512 5    -46420.767 5  23381701.992    23381702.910
        11.500          11.250
  20583861.6024      63533.99048     25431.58049                  20583863.3134
        28.0004         63.7504
  23363499.4774    -180245.25746    -73593.13546                  23363502.4184
        13.7504         18.2504
 95  4 13 15 47  0.0000000  0  8G14G18G19G22G27G28G29G31
  23505018.3364     344352.97145    160894.37546                  23505021.0314
        11.2504         13.7504
  20394665.0784     -69379.06148    -32434.04749                  20394666.0864
        31.5004         63.7504
  21448803.9534     -89152.52247    -40131.88749                  21448805.6994
        26.0004         63.7504
  23670943.6414     322424.21246    150640.72446                  23670945.6454
        14.7504         18.2504
  24110065.7894    -186499.77645    -61822.14345                  24110068.3554
         9.0004          9.2504
                    -72182.828 5    -56246.194 5  23379302.320    23379303.926
        11.500          11.750
  20586272.6334      76203.95048     35304.28949                  20586274.0984
        28.2504         63.7504
  23356342.0944    -217855.20546   -102899.55746                  23356344.5784
        13.2504         18.2504
 95  4 13 15 47 15.0000000  0  8G14G18G19G22G27G28G29G31
  23516054.8914     402352.88945    206089.09845                  23516057.1294
        10.7504         11.2504
  20392325.7504     -81671.46148    -42012.51849                  20392326.7584
        31.5004         63.7504
  21445790.5864    -104986.51847    -52470.05049                  21445792.3554
        25.7504         63.7504
  23681276.5234     376726.02746    192953.83146                  23681278.6334
        14.0004         19.0004
  24103876.7274    -219017.71045    -87160.78745                  24103878.4264
         9.0004          7.2504
                    -84897.852 5    -66153.973 6  23376882.617    23376884.512
        11.250          12.250
  20588662.5474      88762.46348     45090.15449                  20588664.1764
        28.2504         63.7504
  23349151.6254    -255639.83346   -132342.09646                  23349154.8364
        12.7504         17.0004
 95  4 13 15 47 30.0000000  0  8G14G18G19G22G27G28G29G31
  23527056.6094     460164.49145    251137.07746                  23527059.0474
        11.2504         12.5004
  20389963.7424     -94084.41648    -51684.93449                  20389964.7154
        31.7504         63.7504
  21442745.0084    -120990.76747    -64940.87349                  21442746.8134
        25.5004         63.7504
  23691576.3914     430852.76446    235130.51346                  23691578.5234
        14.0004         19.0004
  24097650.0084    -251738.51745   -112657.47145                  24097652.4924
         8.2504          7.7504
                    -97715.879 5    -76142.021 6  23374443.617    23374445.082
        11.500          12.000
  20591031.7424     101213.15648     54792.00249                  20591033.4774
        28.5004         63.7504
  23341928.8674    -293597.39346   -161919.39046                  23341931.6454
        12.5004         18.2504
 95  4 13 15 47 45.0000000  0  8G14G18G19G22G27G28G29G31
  23538020.7114     517782.31545    296034.08846                  23538022.8674
        11.7504         12.5004
  20387578.1564    -106619.30748    -61452.35849                  20387579.2464
        31.0004         63.7504
  21439666.9384    -137165.76747    -77544.75049                  21439668.6254
        25.2504         63.7504
  23701842.9614     484803.68346    277170.18646                  23701844.7774
        14.0004         19.7504
  24091385.3054    -284664.29345   -138313.88645                  24091387.4734
         8.2504          8.5004
                   -110638.355 5    -86211.467 5  23371984.438    23371985.871
        11.500          11.500
  20593380.2974     113554.10248     64408.33249                  20593381.9144
        28.5004         63.7504
  23334672.3594    -331729.52846   -191632.71346                  23334674.4574
        12.2504         19.0004
 95  4 13 15 48  0.0000000  0  8G14G18G19G22G27G28G29G31
  23548948.7034     575208.82945    340782.02046                  23548951.2114
        11.7504         13.0004
  20385170.7274    -119271.54148    -71311.23049                  20385171.7934
        31.5004         63.7504
  21436557.3674    -153506.92047    -90278.09849                  21436559.1254
        25.5004         63.7504
  23712076.8984     538581.99046    319075.34846                  23712079.2194
        14.2504         18.2504
  24085081.1174    -317790.47945   -164126.46445                  24085083.6724
         8.2504          8.5004
                   -123661.766 5    -96359.562 5  23369506.141    23369507.840
        11.250          11.750
  20595708.1334     125787.04348     73940.50049                  20595709.6334
        28.5004         63.7504
  23327383.5234    -370033.29746   -221479.77146                  23327386.1484
        12.5004         15.7504
 95  4 13 15 48 15.0000000  0  8G14G18G19G22G27G28G29G31
  23559840.4454     632448.08645    385384.02446                  23559844.0904
        11.7504         13.7504
  20382741.8054    -132035.64348    -81257.26549                  20382742.8364
        31.5004         63.7504
  21433417.6954    -170006.93147   -103135.23749                  21433419.2424
        26.0004         63.7504
  23722278.7664     592193.73546    360850.73546                  23722280.7704
        14.2504         18.2504
  24078740.2974    -351109.58245   -190089.38045                  24078743.1334
         8.2504          7.7504
                   -136780.481 5   -106581.916 6  23367009.711    23367011.551
        11.500          12.000
  20598016.4064     137915.82948     83391.51049                  20598017.7894
        29.2504         63.7504
  23320062.3754    -408505.72046   -251458.25946                  23320065.2704
        12.2504         17.7504
 95  4 13 15 48 30.0000000  0  8G14G18G19G22G27G28G29G31
  23570697.0394     689499.80245    429839.87946                  23570700.3914
        11.7504         13.7504
  20380291.7274    -144909.96648    -91289.18949                  20380292.8164
        31.2504         63.7504
  21430247.4774    -186664.70047   -116115.30349                  21430249.0824
        25.5004         63.7504
  23732449.2664     645638.84046    402496.26746                  23732451.8444
        14.0004         19.0004
  24072363.3444    -384618.45345   -216200.16445                  24072365.1954
         8.5004          7.7504
                   -149992.178 5   -116876.720 6  23364495.500    23364497.543
        11.250          12.250
  20600304.0704     149938.48048     92759.81549                  20600305.4184
        29.0004         63.7504
  23312709.5634    -447143.80946   -281565.83046                  23312711.9654
        12.2504         16.5004
 95  4 13 15 48 45.0000000  0  8G14G18G19G22G27G28G29G31
  23581518.5164     746365.97646    474151.17446                  23581521.7624
        12.0004         15.0004
  20377822.3524    -157888.57048   -101402.37149                  20377823.4774
        31.5004         63.7504
  21427048.9384    -203476.46347   -129215.36049                  21427050.5784
        26.2504         63.7504
  23742588.3674     698920.37646    444014.34646                  23742590.8634
        14.0004         17.7504
  24065952.1094    -418313.54345   -242456.03945                  24065954.5944
         8.7504          7.2504
                   -163292.390 5   -127240.501 6  23361964.867    23361966.438
        11.500          12.000
  20602571.9534     161855.19348    102045.57349                  20602573.1254
        29.5004         63.7504
  23305326.5944    -485941.97046   -311798.13446                  23305329.7934
        12.7504         17.0004
 95  4 13 15 49  0.0000000  0  8G14G18G19G22G27G28G29G31
  23592304.4694     803047.42745    518318.52646                  23592308.1374
        11.7504         16.5004
  20375333.2894    -170967.43648   -111593.67949                  20375334.3794
        31.0004         63.7504
  21423819.7034    -220444.22547   -142436.98349                  21423821.4024
        26.0004         63.7504
  23752696.6254     752042.49946    485408.20046                  23752698.6174
        13.7504         20.2504
  24059505.6254    -452190.84145   -268853.90645                  24059508.2274
         9.0004          9.2504
                   -176677.735 5   -137670.624 5  23359417.555    23359419.133
        11.500          11.750
  20604820.1954     173668.97248    111251.12449                  20604821.3554
        29.5004         63.7504
  23297913.6484    -524896.35246   -342152.17746                  23297916.9414
        12.5004         19.0004
 95  4 13 15 49 15.0000000  0  8G14G18G19G22G27G28G29G31
  23603055.8834     859546.33645    562343.62446                  23603059.5274
        11.7504         13.0004
  20372825.3284    -184147.77048   -121864.05549                  20372826.3244
        31.7504         63.7504
  21420561.5084    -237567.50347   -155779.77949                  21420563.2544
        26.5004         63.7504
  23762776.0164     805005.68046    526678.21546                  23762777.8324
        14.2504         19.0004
  24053024.3284    -486245.85145   -295390.24845                  24053026.6024
         9.0004          9.2504
                   -190146.120 5   -148165.447 5  23356854.602    23356856.070
        11.500          11.750
  20607049.2814     185383.43048    120379.27849                  20607050.5474
        29.2504         63.7504
  23290471.7974    -564006.60146   -372627.66946                  23290474.2464
        13.2504         19.0004
 95  4 13 15 49 30.0000000  0  8G14G18G19G22G27G28G29G31
  23613772.8834     915863.26745    606226.95646                  23613776.0824
        11.5004         13.0004
  20370297.7424    -197428.55048   -132212.69549                  20370298.7154
        31.2504         63.7504
  21417273.4774    -254844.95347   -169242.71649                  21417275.2584
        26.0004         63.7504
  23772823.7194     857808.22746    567823.05046                  23772826.0744
        13.7504         17.7504
  24046510.7274    -520474.20145   -322061.64345                  24046513.2234
         9.0004         11.2504
                   -203696.571 5   -158724.223 5  23354276.000    23354277.742
        11.500          11.750
  20609260.7034     197003.44648    129433.84049                  20609261.8524
        29.7504         63.7504
  23282999.6254    -603270.89546   -403223.20446                  23283002.5664
        13.0004         16.5004
 95  4 13 15 49 45.0000000  0  8G14G18G19G22G27G28G29G31
  23624455.3834     972002.27745    649971.63046                  23624458.7814
        11.0004         15.0004
  20367753.0314    -210802.57048   -142634.00149                  20367753.9924
        31.5004         63.7504
  21413957.9224    -272268.78847   -182819.71849                  21413959.7274
        26.0004         63.7504
  23782842.4844     910457.30146    608848.30046                  23782844.8634
        13.7504         17.7504
  24039966.5864    -554865.63945   -348860.15345                  24039968.3444
         9.0004          9.7504
                   -217322.566 5   -169341.860 5  23351683.008    23351684.867
        11.500          11.750
  20611454.6174     208535.22448    138419.64849                  20611455.7074
        29.2504         63.7504
  23275500.5474    -642678.87746   -433930.70246                  23275503.9344
        13.2504         17.7504
 95  4 13 15 50  0.0000000  0  8G14G18G19G22G27G28G29G31
  23635106.3754    1027970.77945    693583.42246                  23635110.7114
        10.5004         12.5004
  20365192.0164    -224260.75648   -153120.88349                  20365193.1294
        31.5004         63.7504
  21410615.2424    -289834.86947   -196507.55849                  21410617.1524
        25.7504         63.7504
  23792833.0314     962957.22946    649757.33346                  23792835.6684
        13.7504         19.7504
  24033392.1254    -589414.58045   -375781.37945                  24033395.8404
         9.0004          8.5004
                   -231018.286 5   -180013.834 5  23349077.125    23349078.551
        11.750          11.750
  20613633.8984     219985.30648    147341.79449                  20613634.9184
        29.7504         63.7504
  23267976.0864    -682220.84646   -464742.59946                  23267978.6294
        13.5004         18.2504
 95  4 13 15 50 15.0000000  0  8G14G18G19G22G27G28G29G31
  23645725.0164    1083775.40845    737067.52745                  23645729.5634
        10.2504         11.2504
  20362615.4534    -237800.20348   -163671.08549                  20362616.5904
        31.2504         63.7504
  21407246.1954    -307538.47747   -210302.56449                  21407248.0824
        26.0004         63.7504
  23802795.4774    1015311.10746    690552.55746                  23802797.9494
        13.5004         19.0004
  24026788.2664    -624118.72445   -402823.55545                  24026791.1954
         9.0004          9.7504
                   -244778.865 5   -190736.344 5  23346458.281    23346459.801
        11.500          11.750
  20615797.8054     231358.03748    156203.67049                  20615798.8244
        30.0004         63.7504
  23260426.8364    -721891.76146   -495654.98646                  23260429.1214
        13.5004         20.2504
 95  4 13 15 50 30.0000000  0  8G14G18G19G22G27G28G29G31
  23656314.4614    1139420.84245    780427.58146                  23656319.0904
        10.2504         14.5004
  20360024.5944    -251415.93948   -174280.73849                  20360025.7304
        31.5004         63.7504
  21403851.3054    -325378.86747   -224204.15249                  21403852.9694
        26.0004         63.7504
  23812730.8914    1067521.35646    731235.85446                  23812732.8244
        13.7504         19.0004
  24020155.2974    -658978.75545   -429987.15746                  24020157.3594
         9.7504         12.5004
                   -258601.358 5   -201507.091 5  23343828.117    23343829.648
        11.500          11.500
  20617947.7114     242655.07248    165006.55849                  20617948.6254
        30.2504         63.7504
  23252854.2424    -761686.15346   -526663.57446                  23252856.8674
        13.2504         19.7504
 95  4 13 15 50 45.0000000  0  8G14G18G19G22G27G28G29G31
  23666874.6724    1194917.42245    823671.65046                  23666878.7734
        10.0004         13.7504
  20357421.0474    -265097.33848   -184941.55149                  20357422.0554
        31.7504         63.7504
  21400431.9694    -343347.38747   -238205.57949                  21400433.6804
        26.2504         63.7504
  23822640.1174    1119594.76146    771812.53846                  23822642.4384
        13.5004         19.7504
  24013492.7894    -693987.48645   -457266.66545                  24013495.7074
         9.2504         11.7504
                   -272477.128 5   -212319.363 5  23341187.500    23341188.820
        11.500          11.500
  20620085.0084     253886.17548    173758.07749                  20620085.6764
        30.7504         63.7504
  23245260.4534    -801594.04546   -557760.62246                  23245262.8914
        13.7504         19.0004
 95  4 13 15 51  0.0000000  0  8G14G18G19G22G27G28G29G31
  23677408.9924    1250274.23945    866806.81846                  23677414.0904
        10.0004         13.0004
  20354806.3594    -278836.58348   -195647.44749                  20354807.4844
        31.5004         63.7504
  21396990.1484    -361435.10247   -252299.88849                  21396991.8834
        26.2504         63.7504
  23832524.8674    1171541.75046    812290.71046                  23832527.1414
        13.5004         17.0004
  24006804.6884    -729134.75945   -484654.12146                  24006807.1024
         9.7504         13.7504
                   -286396.800 5   -223165.841 5  23338538.836    23338540.082
        11.500          11.500
  20622212.0164     265062.78148    182467.12349                  20622212.8014
        30.5004         63.7504
  23237645.4454    -841607.81146   -588940.14346                  23237648.7034
        13.0004         18.2504
 95  4 13 15 51 15.0000000  0  8G14G18G19G22G27G28G29G31
  23687917.9224    1305500.52045    909840.24746                  23687921.2384
        10.0004         13.0004
  20352182.0944    -292628.56048   -206394.43249                  20352183.1844
        31.5004         63.7504
  21393527.2274    -379632.48447   -266479.65249                  21393528.7154
        26.2504         63.7504
  23842387.8364    1223371.52046    852677.54346                  23842390.3444
        13.0004         17.7504
  24000091.5234    -764412.47645   -512143.22845                  24000093.9964
        10.2504         11.7504
                   -300352.715 5   -234040.555 5  23335883.031    23335884.473
        11.500          11.750
  20624330.0554     276193.40148    191140.33649                  20624330.6764
        31.0004         63.7504
  23230012.8914    -881719.70746   -620196.12646                  23230015.8674
        14.0004         18.2504
 95  4 13 15 51 30.0000000  0  8G14G18G19G22G27G28G29G31
  23698403.7974    1360604.56745    952778.45046                  23698408.0164
         9.5004         12.5004
  20349549.0084    -306464.84348   -217175.93949                  20349550.0394
        31.5004         63.7504
  21390045.9614    -397927.58747   -280735.56549                  21390047.5314
        26.0004         63.7504
  23852230.0084    1275091.41346    892978.73746                  23852232.1994
        13.2504         17.0004
  23993354.5314    -799813.77045   -539728.61445                  23993357.5204
         9.7504         11.7504
                   -314336.073 5   -244936.650 5  23333221.836    23333223.391
        11.250          11.750
  20626440.8134     287285.66648    199783.66949                  20626441.3054
        30.7504         63.7504
  23222363.0864    -921920.04846   -651521.04546                  23222366.0274
        13.7504         20.2504
 95  4 13 15 51 45.0000000  0  8G14G18G19G22G27G28G29G31
  23708868.2974    1415591.70645    995625.54945                  23708872.1764
        10.0004         10.5004
  20346909.3984    -320336.73448   -227985.19449                  20346910.4534
        31.5004         63.7504
  21386547.0084    -416314.78447   -295063.23549                  21386548.5314
        26.5004         63.7504
  23862052.4534    1326708.48046    933199.82646                  23862054.8674
        13.0004         19.0004
  23986594.5784    -835337.39945   -567409.33846                  23986597.7424
         9.7504         12.5004
                   -328340.320 5   -255849.032 5  23330557.023    23330558.223
        11.250          11.500
  20628545.3054     298344.50348    208400.95249                  20628545.7854
        31.2504         63.7504
  23214696.9774    -962203.11946   -682910.42346                  23214699.8364
        13.7504         21.0004
 95  4 13 15 52  0.0000000  0  8G14G18G19G22G27G28G29G31
  23719311.1954    1470469.57445   1038387.50645                  23719315.0394
        10.0004         11.2504
  20344263.9774    -334237.13648   -238816.66549                  20344265.0554
        31.5004         63.7504
  21383031.6414    -434786.70647   -309456.93149                  21383033.0474
        26.2504         63.7504
  23871856.5554    1378230.34146    973346.72446                  23871859.3444
        12.5004         18.2504
  23979812.3834    -870979.62445   -595182.45846                  23979815.0784
        10.0004         13.7504
                   -342357.133 5   -266771.209 5  23327889.641    23327891.074
        11.000          11.500
  20630644.2974     309374.09748    216995.44849                  20630644.7074
        31.0004         63.7504
  23207016.8524   -1002563.42246   -714359.98346                  23207019.5004
        14.0004         20.2504
 95  4 13 15 52 15.0000000  0  8G14G18G19G22G27G28G29G31
  23729735.0634    1525248.37545   1081072.27446                  23729738.0274
        10.2504         13.0004
  20341614.9924    -348158.62648   -249664.57149                  20341615.9774
        31.2504         63.7504
  21379502.5234    -453333.32847   -323908.83149                  21379504.1414
        26.2504         63.7504
  23881644.2424    1429662.26846   1013423.54446                  23881647.0664
        12.5004         18.2504
  23973008.7664    -906733.15845   -623042.32645                  23973012.2814
         9.5004         10.5004
                   -356376.908 5   -277695.683 5  23325221.953    23325223.355
        11.500          11.750
  20632739.1334     320383.46048    225574.17549                  20632739.4384
        31.5004         63.7504
  23199323.1644   -1042995.56446   -745865.52546                  23199325.9184
        14.7504         20.2504
 95  4 13 15 52 30.0000000  0  8G14G18G19G22G27G28G29G31
  23740142.1804    1579936.42345   1123686.32445                  23740145.2854
        10.7504         11.2504
  20338963.4144    -362093.36348   -260522.79949                  20338964.4454
        31.7504         63.7504
  21375960.8284    -471943.43747   -338410.20849                  21375962.4804
        25.7504         63.7504
  23891415.7664    1481013.90546   1053437.78646                  23891418.6604
        12.2504         17.0004
  23966186.1724    -942586.89745   -650980.26546                  23966188.7274
         9.7504         12.5004
                   -370389.352 5   -288614.451 5  23322555.563    23322556.801
        11.500          11.750
  20634832.1334     331381.84048    234144.34549                  20634832.5554
        31.0004         63.7504
  23191616.8594   -1083490.91646   -777420.32646                  23191619.5784
        14.2504         21.5004
 95  4 13 15 52 45.0000000  0  8G14G18G19G22G27G28G29G31
  23750532.6484    1634537.77445   1166232.82645                  23750535.3204
        10.7504          9.7504
  20336310.3284    -376035.05948   -271386.44649                  20336311.3484
        31.7504         63.7504
  21372408.8594    -490611.64447   -352956.84749                  21372410.6524
        26.2504         63.7504
  23901173.3594    1532291.24646   1093394.14546                  23901175.8914
        12.2504         17.7504
  23959346.3204    -978531.67545   -678989.16345                  23959348.2074
        10.0004         11.7504
                   -384388.274 5   -299522.681 5  23319891.266    23319893.016
        11.000          11.750
  20636924.7344     342377.70948    242712.55949                  20636925.0744
        31.7504         63.7504
  23183900.6024   -1124043.04946   -809019.36246                  23183902.8634
        15.0004         20.2504
 95  4 13 15 53  0.0000000  0  8G14G18G19G22G27G28G29G31
  23760908.7814    1689062.27745   1208719.44846                  23760912.3914
        10.7504         13.0004
  20333657.5784    -389974.61448   -282248.43049                  20333658.6214
        31.5004         63.7504
  21368847.3204    -509326.02647   -367539.46349                  21368849.2664
        26.2504         63.7504
  23910919.5784    1583506.29246   1133301.97546                  23910921.9344
        12.2504         17.0004
  23952490.5784   -1014554.35945   -707058.75645                  23952494.4454
         9.2504         11.2504
                   -398361.851 5   -310411.159 5  23317232.227    23317234.070
        11.000          11.750
  20639019.4534     353386.20148    251290.61349                  20639019.7814
        31.5004         63.7504
  23176174.8754   -1164640.67746   -840653.85846                  23176177.4654
        15.0004         19.7504
 95  4 13 15 53 15.0000000  0  8G14G18G19G22G27G28G29G31
  23771271.0634    1743519.70945   1251153.76745                  23771274.7664
        10.5004         11.7504
  20331007.5864    -403901.83048   -293100.81149                  20331008.6644
        31.7504         63.7504
  21365279.0084    -528077.70547   -382151.14749                  21365280.8364
        26.2504         63.7504
  23920655.7894    1634670.03646   1173169.81946                  23920658.4614
        12.2504         14.5004
  23945623.0234   -1050646.47245   -735182.44845                  23945625.3444
        10.0004         10.5004
                   -412299.990 5   -321272.028 5  23314580.063    23314581.723
        11.250          11.750
  20641118.5234     364416.59448    259885.72349                  20641118.7934
        31.7504         63.7504
  23168443.0314   -1205272.93046   -872315.33046                  23168445.3874
        15.2504         21.0004
 95  4 13 15 53 30.0000000  0  8G14G18G19G22G27G28G29G31
  23781621.7034    1797911.51945   1293536.98046                  23781624.4694
        10.7504         13.0004
  20328360.6334    -417809.86348   -303938.21349                  20328361.6294
        31.7504         63.7504
  21361704.7814    -546861.71847   -396788.02649                  21361706.4454
        26.5004         63.7504
  23930382.8594    1685784.75346   1212999.45446                  23930385.2624
        12.2504         15.7504
  23938742.0634   -1086806.51645   -763359.08645                  23938745.1454
        10.2504         10.5004
                   -426199.146 5   -332102.524 5  23311935.094    23311936.660
        11.250          11.750
  20643223.0164     375474.64948    268502.39849                  20643223.1334
        31.7504         63.7504
  23160705.4774   -1245933.66046   -903998.99546                  23160707.9494
        15.0004         20.2504
 95  4 13 15 53 45.0000000  0  8G14G18G19G22G27G28G29G31
  23791962.1724    1852253.71745   1335881.54445                  23791965.5124
        10.7504          9.7504
  20325721.4304    -431680.15448   -314746.22349                  20325722.5084
        31.7504         63.7504
  21358127.0004    -565661.84847   -411437.46449                  21358128.7234
        26.2504         63.7504
  23940103.1094    1736866.23846   1252803.20646                  23940105.4184
        12.0004         15.0004
  23931851.5394   -1123017.13545   -791575.13346                  23931854.3984
        10.5004         13.7504
                   -440041.723 5   -342888.927 5  23309300.500    23309302.688
        11.000          11.750
  20645335.9144     386578.64248    277154.86449                  20645336.2304
        31.7504         63.7504
  23152965.5554   -1286605.34446   -935691.20546                  23152968.0984
        14.7504         20.2504
 95  4 13 15 54  0.0000000  0  8G14G18G19G22G27G28G29G31
  23802295.4844    1906555.61845   1378194.71246                  23802299.7034
        10.0004         12.5004
  20323090.7194    -445504.55448   -325518.47749                  20323091.7624
        31.7504         63.7504
  21354548.1174    -584470.58147   -426093.60849                  21354549.7584
        26.5004         63.7504
  23949818.5784    1787923.02045   1292587.69946                  23949821.5434
        11.7504         16.5004
  23924953.2734   -1159267.69345   -819822.29246                  23924955.6054
        10.5004         13.7504
                   -453819.575 5   -353624.896 5  23306678.977    23306680.734
        11.250          11.750
  20647458.9614     397736.51648    285849.31749                  20647459.2544
        31.7504         63.7504
  23145226.0164   -1327277.32246   -967383.62246                  23145228.5354
        15.0004         18.2504
 95  4 13 15 54 15.0000000  0  8G14G18G19G22G27G28G29G31
  23812622.6414    1960826.90745   1420483.99045                  23812626.9414
         9.7504         10.5004
  20320470.2194    -459275.47948   -336249.05549                  20320471.3324
        31.5004         63.7504
  21350968.8054    -603278.27247   -440748.93949                  21350970.5164
        26.7504         63.7504
  23959530.7734    1838961.08346   1332357.60946                  23959533.1884
        12.0004         16.5004
  23918049.2974   -1195546.95645   -848091.82345                  23918051.7584
        10.0004         11.2504
                   -467524.552 5   -364304.089 5  23304071.398    23304072.727
        11.500          11.750
  20649594.5554     408958.86848    294594.01049                  20649594.8134
        31.5004         63.7504
  23137488.1024   -1367939.62446   -999068.51546                  23137490.3524
        14.7504         19.7504
 95  4 13 15 54 30.0000000  0  8G14G18G19G22G27G28G29G31
  23822945.3284    2015070.18145   1462751.47445                  23822949.3364
         9.5004          9.2504
  20317860.6644    -472988.66548   -346934.64949                  20317861.7664
        31.5004         63.7504
  21347390.5554    -622082.56247   -455401.62349                  21347392.1954
        26.7504         63.7504
  23969240.8984    1889986.15446   1372117.40446                  23969243.4774
        12.2504         15.7504
  23911141.2734   -1231850.17945   -876380.03446                  23911143.8984
        10.0004         12.5004
                   -481153.668 5   -374924.157 5  23301477.594    23301479.344
        11.250          11.750
  20651743.8984     420252.45748    303394.21249                  20651744.1094
        31.5004         63.7504
  23129753.1334   -1408588.26346  -1030742.74846                  23129755.5594
        14.7504         19.7504
 95  4 13 15 54 45.0000000  0  8G14G18G19G22G27G28G29G31
  23833262.4924    2069289.98745   1505000.63845                  23833266.2424
         9.2504          8.5004
  20315263.4064    -486636.77748   -357569.53049                  20315264.5904
        31.5004         63.7504
  21343813.1254    -640879.60047   -470048.65249                  21343814.7774
        26.2504         63.7504
  23978950.1174    1941007.73746   1411874.46446                  23978952.5784
        12.5004         14.5004
  23904229.0004   -1268170.85645   -904681.82846                  23904231.5434
        10.0004         13.0004
                   -494701.525 5   -385480.910 5  23298899.523    23298901.023
        11.500          11.750
  20653907.5704     431623.40248    312254.69149                  20653907.7464
        31.5004         63.7504
  23122021.8524   -1449214.76246  -1062399.74146                  23122024.4304
        14.2504         18.2504
 95  4 13 15 55  0.0000000  0  8G14G18G19G22G27G28G29G31
  23843576.8364    2123488.07245   1547232.88245                  23843581.3134
         9.0004         11.7504
  20312679.1884    -500217.31848   -368151.76449                  20312680.3594
        31.7504         63.7504
  21340238.2974    -659667.16847   -484688.30549                  21340240.0904
        26.7504         63.7504
  23988658.9694    1992026.86946   1451629.62246                  23988661.1484
        12.7504         13.7504
  23897315.1174   -1304505.29945   -932994.37346                  23897317.8594
         9.7504         12.5004
                   -508165.721 5   -395972.478 5  23296337.344    23296338.879
        11.500          11.750
  20656086.7274     443073.84748    321177.12149                  20656086.9844
        31.5004         63.7504
  23114295.7504   -1489816.10946  -1094037.12946                  23114297.9774
        14.2504         20.2504
 95  4 13 15 55 15.0000000  0  8G14G18G19G22G27G28G29G31
  23853886.7664    2177666.67745   1589449.93745                  23853890.6094
         9.0004         11.7504
  20310109.1564    -513724.00848   -378676.44649                  20310110.4224
        31.5004         63.7504
  21336665.5634    -678441.63747   -499317.75349                  21336667.2154
        26.2504         63.7504
  23998368.1334    2043048.66846   1491386.86146                  23998370.2894
        12.5004         15.0004
  23890398.7814   -1340849.03045   -961314.12845                  23890401.4654
         9.7504         11.7504
                   -521541.354 5   -406395.034 5  23293792.211    23293793.555
        11.500          11.750
  20658280.8134     454604.96948    330162.41549                  20658281.0944
        31.5004         63.7504
  23106574.8524   -1530388.82246  -1125652.20346                  23106577.1954
        14.0004         21.0004
 95  4 13 15 55 30.0000000  0  8G14G18G19G22G27G28G29G31
  23864191.4694    2231819.56345   1631646.98845                  23864196.0864
         8.7504         11.2504
  20307551.5004    -527163.59048   -389148.83849                  20307552.6254
        31.7504         63.7504
  21333095.0314    -697206.31547   -513939.56349                  21333096.6954
        26.7504         63.7504
  24008076.8364    2094067.08346   1531141.44946                  24008078.7584
        12.7504         15.7504
  23883480.8524   -1377206.14145   -989644.32845                  23883483.8054
        10.0004         11.2504
                   -534834.465 5   -416753.285 6  23291262.461    23291264.199
        11.500          12.000
  20660488.8594     466208.35248    339204.01649                  20660489.1644
        31.0004         63.7504
  23098859.0864   -1570937.12046  -1157248.25446                  23098861.5004
        14.0004         18.2504
 95  4 13 15 55 45.0000000  0  8G14G18G19G22G27G28G29G31
  23874494.0004    2285959.64045   1673834.01745                  23874497.9024
         8.5004          9.7504
  20305008.7424    -540525.37148   -399560.60649                  20305009.9384
        31.5004         63.7504
  21329527.8674    -715949.41047   -528544.56749                  21329529.6844
        26.2504         63.7504
  24017786.2114    2145092.30146   1570901.36846                  24017788.0744
        13.0004         13.7504
  23876561.7034   -1413562.67445  -1017974.07246                  23876564.5044
         9.5004         12.5004
                   -548032.716 5   -427037.625 6  23288750.969    23288752.695
        11.500          12.000
  20662712.8054     477895.85548    348311.16649                  20662713.2034
        30.5004         63.7504
  23091149.5864   -1611450.75246  -1188817.28646                  23091152.3984
        14.2504         21.5004
 95  4 13 15 56  0.0000000  0  8G14G18G19G22G27G28G29G31
  23884794.9304    2340090.18245   1716013.65145                  23884798.8094
         8.2504          9.7504
  20302481.0314    -553809.47148   -409911.84449                  20302482.1214
        31.5004         63.7504
  21325965.3284    -734672.94747   -543134.31949                  21325966.9924
        27.0004         63.7504
  24027497.3364    2196125.11046   1610667.18846                  24027499.5864
        13.0004         15.0004
  23869644.3204   -1449916.38745  -1046301.63745                  23869646.8874
         9.2504          9.7504
                   -561134.513 5   -437246.800 6  23286257.727    23286259.613
        11.500          12.000
  20664952.6564     489667.23848    357483.67549                  20664953.2894
        30.2504         63.7504
  23083446.2034   -1651930.33146  -1220359.78646                  23083449.2734
        14.0004         17.7504
 95  4 13 15 56 15.0000000  0  8G14G18G19G22G27G28G29G31
  23895093.2194    2394209.35745   1758184.41845                  23895097.7424
         8.2504          8.5004
  20299967.6884    -567015.67248   -420202.38349                  20299968.8364
        31.5004         63.7504
  21322405.5474    -753377.69347   -557709.43849                  21322407.2114
        26.2504         63.7504
  24037209.8134    2247162.82446   1650436.81946                  24037211.5824
        13.0004         13.7504
  23862726.5634   -1486269.95545  -1074629.06345                  23862728.7544
         9.5004          9.7504
                   -574140.460 5   -447381.289 5  23283782.578    23283784.191
        11.500          11.750
  20667208.6564     501522.08648    366721.21949                  20667209.4654
        30.0004         63.7504
  23075749.4694   -1692377.94546  -1251877.37946                  23075752.4454
        14.2504         21.0004
 95  4 13 15 56 30.0000000  0  8G14G18G19G22G27G28G29G31
  23905388.9614    2448313.92545   1800343.77045                  23905394.0124
         8.5004          7.2504
  20297469.6724    -580143.72148   -430432.02249                  20297470.8204
        31.5004         63.7504
  21318849.5784    -772065.92647   -572271.67949                  21318851.3364
        26.5004         63.7504
  24046922.6644    2298204.43746   1690209.50646                  24046925.3364
        13.2504         13.7504
  23855808.2034   -1522626.04745  -1102958.45945                  23855811.0394
         9.2504          9.2504
                   -587051.286 5   -457441.665 5  23281326.016    23281327.258
        11.750          11.750
  20669479.7034     513456.72648    376020.94249                  20669480.5124
        30.0004         63.7504
  23068057.6724   -1732796.63546  -1283372.43046                  23068060.4384
        14.2504         22.2504
 95  4 13 15 56 45.0000000  0  8G14G18G19G22G27G28G29G31
  23915685.7274    2502421.56945   1842505.57145                  23915689.8164
         9.2504          9.2504
  20294990.0474    -593173.86148   -440585.36749                  20294991.2544
        31.5004         63.7504
  21315299.2664    -790721.59547   -586808.56149                  21315300.9534
        26.7504         63.7504
  24056639.9064    2349268.87846   1729999.97846                  24056641.8164
        13.2504         15.0004
  23848891.9924   -1558966.28745  -1131275.52445                  23848895.3794
         9.0004          7.2504
                   -599848.272 5   -467413.326 5  23278890.656    23278892.051
        11.500          11.750
  20671768.5704     525485.75448    385394.21049                  20671769.3444
        29.5004         63.7504
  23060376.5234   -1773165.77246  -1314828.87646                  23060378.5984
        15.0004         22.2504
 95  4 13 15 57  0.0000000  0  8G14G18G19G22G27G28G29G31
  23925979.8134    2556516.69045   1884657.58245                  23925984.9104
        10.0004         11.2504
  20292526.8914    -606119.28648   -450672.70349                  20292527.8524
        31.5004         63.7504
  21311752.7974    -809359.39547   -601331.51249                  21311754.3914
        26.7504         63.7504
  24066358.1174    2400338.95346   1769794.84746                  24066359.7464
        13.0004         15.0004
  23841976.8204   -1595306.67145  -1159592.67945                  23841979.7974
         9.0004          9.2504
                   -612544.964 5   -477306.841 5  23276474.484    23276476.094
        11.500          11.750
  20674072.4844     537592.99148    394828.42149                  20674073.4224
        29.2504         63.7504
  23052700.4304   -1813499.39646  -1346257.65646                  23052702.8094
        14.2504         21.0004
 95  4 13 15 57 15.0000000  0  8G14G18G19G22G27G28G29G31
  23936272.0784    2610602.96845   1926802.71245                  23936276.6254
         9.5004          9.2504
  20290080.2504    -618975.86748   -460690.80749                  20290081.3284
        31.5004         63.7504
  21308209.8914    -827977.83047   -615839.37649                  21308211.5554
        27.0004         63.7504
  24076078.1254    2451416.16946   1809595.27146                  24076080.0354
        13.0004         14.5004
  23835061.6484   -1631649.69645  -1187911.89045                  23835064.6134
         9.5004         10.5004
                   -625138.845 5   -487120.241 5  23274077.945    23274079.453
        11.500          11.750
  20676392.0314     549781.10548    404325.65349                  20676393.0164
        29.2504         63.7504
  23045032.2114   -1853797.16046  -1377658.46846                  23045035.0704
        15.0004         21.5004
 95  4 13 15 57 30.0000000  0  8G14G18G19G22G27G28G29G31
  23946562.9614    2664680.78245   1968941.26645                  23946567.1804
        10.0004          9.2504
  20287650.3284    -631744.48648   -470640.37649                  20287651.4414
        30.5004         63.7504
  21304670.2114    -846578.55947   -630333.44649                  21304671.9454
        26.5004         63.7504
  24085798.1334    2502497.69246   1849399.04546                  24085800.0554
        12.2504         14.5004
  23828144.5164   -1668001.34045  -1216237.84346                  23828147.1174
         9.7504         12.5004
                   -637632.227 5   -496855.330 5  23271700.578    23271701.980
        11.250          11.750
  20678726.1024     562047.41248    413883.81549                  20678727.1214
        28.0004         63.7504
  23037370.5234   -1894059.13046  -1409031.41146                  23037372.9494
        14.0004         23.5004
 95  4 13 15 57 45.0000000  0  8G14G18G19G22G27G28G29G31
  23956852.0394    2718753.18845   2011075.57345                  23956855.7194
        10.2504         10.5004
  20285237.8914    -644421.93548   -480518.89649                  20285239.0634
        31.2504         63.7504
  21301134.5234    -865158.72547   -644811.48649                  21301136.0594
        27.0004         63.7504
  24095519.6564    2553583.32346   1889206.01246                  24095521.6254
        12.2504         15.0004
  23821224.8204   -1704362.93845  -1244571.53046                  23821228.0784
        10.0004         12.5004
                   -650022.368 5   -506509.973 5  23269342.977    23269344.008
        11.500          11.750
  20681076.2974     574398.42348    423507.98049                  20681077.3164
        28.7504         63.7504
  23029716.1724   -1934281.91846  -1440373.80546                  23029719.1374
        14.0004         23.0004
 95  4 13 15 58  0.0000000  0  8G14G18G19G22G27G28G29G31
  23967140.6954    2772820.69145   2053206.04545                  23967144.8554
        10.2504         11.2504
  20282843.4534    -657004.57948   -490323.54549                  20282844.6844
        31.0004         63.7504
  21297602.6884    -883718.97547   -659274.01049                  21297604.2344
        27.2504         63.7504
  24105241.9924    2604675.15245   1929017.80646                  24105244.3484
        11.7504         15.0004
  23814303.2504   -1740733.99545  -1272912.61445                  23814305.9574
        10.0004         11.2504
                   -662306.891 5   -516082.318 5  23267005.305    23267006.531
        11.500          11.750
  20683443.1414     586835.72648    433199.38349                  20683444.3594
        28.7504         63.7504
  23022069.7344   -1974465.05046  -1471685.30446                  23022072.4304
        14.2504         22.2504
 95  4 13 15 58 15.0000000  0  8G14G18G19G22G27G28G29G31
  23977428.8444    2826884.02045   2095333.30845                  23977432.0204
        10.5004         11.2504
  20280467.8054    -669489.65348   -500052.16549                  20280469.0824
        31.2504         63.7504
  21294075.5084    -902254.68047   -673717.40449                  21294077.1134
        27.2504         63.7504
  24114966.3834    2655777.43745   1968837.76246                  24114968.4574
        11.5004         13.7504
  23807380.3524   -1777114.03945  -1301260.67945                  23807383.1414
         9.2504          9.7504
                   -674483.051 5   -525570.225 5  23264688.188    23264689.637
        11.500          11.750
  20685826.7664     599362.65048    442960.62249                  20685828.0434
        28.5004         63.7504
  23014432.0554   -2014601.50446  -1502960.43746                  23014434.9734
        14.2504         24.2504
 95  4 13 15 58 30.0000000  0  8G14G18G19G22G27G28G29G31
  23987715.6254    2880943.03545   2137457.21845                  23987719.3284
        10.0004         10.5004
  20278110.6724    -681874.91248   -509703.00849                  20278111.8674
        31.5004         63.7504
  21290553.8204    -920760.68547   -688137.66449                  21290555.4264
        27.2504         63.7504
  24124693.8364    2706894.08245   2008668.90346                  24124695.8054
        11.2504         13.7504
  23800455.8204   -1813500.35645  -1329613.63245                  23800459.0664
         9.2504          9.2504
                   -686548.129 5   -534971.565 5  23262392.195    23262393.727
        11.250          11.750
  20688228.1254     611980.79848    452792.94149                  20688229.4144
        28.5004         63.7504
  23006804.4844   -2054686.95146  -1534195.81246                  23006807.3324
        14.7504         24.2504
 95  4 13 15 58 45.0000000  0  8G14G18G19G22G27G28G29G31
  23998001.8134    2934996.43745   2179576.73045                  23998005.2114
        10.0004         11.2504
  20275773.0864    -694159.82548   -519275.65849                  20275774.3054
        31.5004         63.7504
  21287037.9454    -939238.16147   -702535.68749                  21287039.6334
        27.0004         63.7504
  24134423.9304    2758026.36645   2048512.23546                  24134425.5824
        11.2504         12.5004
  23793531.5314   -1849891.85345  -1357970.62545                  23793533.9574
         9.5004          9.7504
                   -698502.516 5   -544286.661 5  23260117.508    23260118.871
        11.500          11.750
  20690646.7894     624691.57548    462697.43949                  20690648.0204
        28.5004         63.7504
  22999185.9304   -2094720.55246  -1565390.79147                  22999189.2114
        14.2504         26.2504
 95  4 13 15 59  0.0000000  0  8G14G18G19G22G27G28G29G31
  24008286.3754    2989042.11645   2221690.22745                  24008290.1844
        10.0004         11.2504
  20273453.7814    -706347.65248   -528772.66249                  20273454.9774
        31.5004         63.7504
  21283526.7034    -957688.20247   -716912.33249                  21283528.3444
        26.7504         63.7504
  24144156.0554    2809171.79445   2088365.81146                  24144157.7304
        10.7504         13.7504
  23786604.7274   -1886292.59645  -1386334.83345                  23786607.7384
         9.2504         11.7504
                   -710348.999 5   -553517.678 5  23257863.188    23257864.410
        11.500          11.750
  20693083.2344     637494.87348    472674.03649                  20693084.5354
        28.5004         63.7504
  22991576.9924   -2134705.76546  -1596548.06146                  22991580.1684
        14.2504         23.5004
 95  4 13 15 59 15.0000000  0  8G14G18G19G22G27G28G29G31
  24018570.5004    3043084.56645   2263801.19545                  24018575.7974
         9.7504         11.2504
  20271154.2504    -718433.64648   -538190.31249                  20271155.3404
        31.7504         63.7504
  21280022.8444    -976101.88647   -731260.64949                  21280024.7304
        27.0004         63.7504
  24153892.3524    2860335.05945   2128233.28346                  24153895.1054
        10.5004         13.7504
  23779677.0234   -1922695.98845  -1414701.08545                  23779680.1174
         9.2504          9.7504
                   -722081.760 5   -562660.078 5  23255630.367    23255631.730
        11.500          11.750
  20695538.5164     650397.21948    482727.80849                  20695539.8284
        28.5004         63.7504
  22983978.0944   -2174637.58746  -1627663.73746                  22983981.3754
        14.5004         25.5004
 95  4 13 15 59 30.0000000  0  8G14G18G19G22G27G28G29G31
  24028853.8134    3097124.89545   2305910.51545                  24028858.6884
         9.0004         11.7504
  20268873.4924    -730418.46448   -547529.12449                  20268874.6294
        31.5004         63.7504
  21276526.4304    -994475.22747   -745577.52949                  21276528.3404
        26.7504         63.7504
  24163631.8834    2911516.05945   2168114.54646                  24163634.6024
        10.2504         13.0004
  23772750.0474   -1959097.49145  -1443065.87345                  23772752.4614
         9.5004         11.7504
                   -733700.726 5   -571713.809 5  23253419.281    23253420.797
        11.500          11.750
  20698013.0004     663399.79248    492859.68149                  20698014.4064
        28.5004         63.7504
  22976390.0394   -2214513.28646  -1658735.67046                  22976393.2384
        14.7504         25.5004
 95  4 13 15 59 45.0000000  0  8G14G18G19G22G27G28G29G31
  24039135.8984    3151159.72745   2348015.54545                  24039140.4224
         8.0004         11.2504
  20266610.9384    -742307.54848   -556793.33949                  20266612.0274
        31.7504         63.7504
  21273037.8444   -1012808.88047   -759863.47949                  21273039.7304
        27.0004         63.7504
  24173374.0084    2962711.63545   2208007.18746                  24173376.9494
        10.0004         12.5004
  23765824.0314   -1995494.61045  -1471427.24045                  23765826.8674
         9.7504         11.2504
                   -745207.790 5   -580680.343 5  23251229.969    23251231.176
        11.750          11.750
  20700505.5164     676499.28648    503067.07649                  20700506.9804
        29.0004         63.7504
  22968812.5634   -2254333.86546  -1689764.65647                  22968815.2584
        15.5004         26.2504
 95  4 13 16  0  0.0000000  0  8G14G18G19G22G27G28G29G31
  24049417.9454    3205190.42445   2390117.34445                  24049422.8324
         7.7504         10.5004
  20264366.5784    -754100.05948   -565982.30249                  20264367.7034
        31.0004         63.7504
  21269556.5164   -1031102.72047   -774118.41049                  21269558.3444
        27.2504         63.7504
  24183119.3284    3013925.85245   2247914.33845                  24183121.9064
         9.7504         11.2504
  23758899.2424   -2031883.46945  -1499782.19245                  23758901.0124
        10.0004         11.2504
                   -756600.742 5   -589557.956 6  23249062.000    23249063.320
        11.750          12.000
  20703017.1644     689697.70348    513351.55849                  20703018.3364
        29.2504         63.7504
  22961245.6174   -2294098.63346  -1720750.15846                  22961248.7344
        15.5004         25.0004
 95  4 13 16  0 15.0000000  0  8G14G18G19G22G27G28G29G31
  24059698.5474    3259215.90245   2432215.09645                  24059702.8834
         7.5004          8.5004
  20262141.4144    -765795.42848   -575095.57049                  20262142.5744
        31.7504         63.7504
  21266082.5554   -1049357.78547   -788343.12849                  21266084.2894
        27.0004         63.7504
  24192869.1724    3065160.30645   2287837.29246                  24192871.7154
         9.7504         12.5004
  23751976.7034   -2068263.02045  -1528129.88045                  23751978.9774
        10.2504         11.7504
                   -767879.534 5   -598346.615 5  23246915.508    23246916.879
        11.500          11.750
  20705546.8284     702991.60048    523710.43749                  20705548.0944
        29.2504         63.7504
  22953689.5864   -2333805.31846  -1751690.40346                  22953692.5044
        15.5004         25.5004
 95  4 13 16  0 30.0000000  0  8G14G18G19G22G27G28G29G31
  24069976.9534    3313232.91944   2474306.24745                  24069980.5274
         6.7504          6.5004
  20259934.1174    -777393.43148   -584132.96549                  20259935.2304
        31.5004         63.7504
  21262615.8594   -1067577.04647   -802539.94649                  21262617.4304
        27.5004         63.7504
  24202622.2344    3116410.73545   2327772.66046                  24202624.1454
        10.0004         12.5004
  23745054.3754   -2104635.65345  -1556472.16946                  23745056.7074
         9.7504         13.0004
                   -779046.577 5   -607048.198 5  23244790.180    23244791.852
        11.250          11.750
  20708094.5784     716378.24848    534141.59049                  20708095.7274
        30.0004         63.7504
  22946144.3204   -2373456.19046  -1782587.14847                  22946147.1564
        15.7504         27.5004
 95  4 13 16  0 45.0000000  0  8G14G18G19G22G27G28G29G31
  24080255.6804    3367247.61044   2516395.60444                  24080260.6844
         7.2504          4.0004
  20257747.5234    -788885.54448   -593087.85749                  20257748.5664
        31.5004         63.7504
  21259156.2344   -1085756.89747   -816706.06149                  21259157.8754
        27.7504         63.7504
  24212378.7114    3167681.89545   2367724.23146                  24212380.8444
        10.2504         14.5004
  23738136.2584   -2140994.28545  -1584803.54446                  23738139.3984
        10.2504         13.0004
                   -790096.029 5   -615658.153 5  23242687.758    23242689.246
        11.500          11.750
  20710660.1484     729861.88248    544648.31649                  20710661.3914
        29.7504         63.7504
  22938610.5944   -2413047.57946  -1813437.55347                  22938612.9384
        16.2504         26.7504
 95  4 13 16  1  0.0000000  0  8G14G18G19G22G27G28G29G31
  24090535.8914    3421264.80244   2558486.90045                  24090538.9144
         7.2504          6.5004
  20255580.9304    -800270.74148   -601959.43349                  20255581.9384
        31.5004         63.7504
  21255704.4924   -1103895.97647   -830840.39749                  21255706.0984
        27.5004         63.7504
  24222139.0634    3218972.75745   2407691.11245                  24222141.3364
        10.0004         10.5004
  23731220.2114   -2177337.41745  -1613122.85646                  23731222.8954
        10.5004         12.5004
                   -801026.401 5   -624175.316 5  23240607.750    23240609.227
        11.250          11.750
  20713245.2504     743444.48248    555232.15749                  20713246.2234
        30.5004         63.7504
  22931087.9924   -2452575.44546  -1844238.45846                  22931090.4884
        15.5004         25.0004
 95  4 13 16  1 15.0000000  0  8G14G18G19G22G27G28G29G31
  24100814.4534    3475280.11145   2600576.72245                  24100818.2624
         7.7504          6.0004
  20253433.4454    -811555.09648   -610752.42949                  20253434.4654
        31.5004         63.7504
  21252259.9534   -1121997.37747   -844945.37749                  21252261.6054
        27.5004         63.7504
  24231901.7274    3270276.49645   2447668.04045                  24231904.2584
        10.0004         11.7504
  23724306.7974   -2213667.52045  -1641431.99646                  23724308.7664
        10.7504         12.5004
                   -811841.585 5   -632602.723 5  23238549.563    23238551.164
        11.000          11.750
  20715847.3834     757120.57548    565888.85349                  20715848.4614
        30.2504         63.7504
  22923577.7734   -2492042.73446  -1874992.14446                  22923580.3284
        15.7504         25.0004
 95  4 13 16  1 30.0000000  0  8G14G18G19G22G27G28G29G31
  24111092.9224    3529290.36145   2642662.61545                  24111096.0274
         7.7504          9.2504
  20251305.0164    -822741.09248   -619468.78549                  20251306.1054
        31.7504         63.7504
  21248821.1724   -1140065.90947   -859024.74549                  21248822.7774
        27.0004         63.7504
  24241666.4384    3321590.70045   2487653.11645                  24241668.9454
        10.0004         11.7504
  23717396.1174   -2249985.26045  -1669731.52946                  23717397.8054
        10.5004         14.5004
                   -822543.359 5   -640941.760 5  23236513.031    23236514.703
        11.000          11.750
  20718467.8134     770889.69948    576618.03449                  20718468.8674
        30.7504         63.7504
  22916079.4144   -2531449.41246  -1905698.62146                  22916081.7704
        16.0004         25.5004
 95  4 13 16  1 45.0000000  0  8G14G18G19G22G27G28G29G31
  24121370.2664    3583299.04545   2684747.26145                  24121373.3954
         8.0004          8.5004
  20249195.9614    -833824.88148   -628105.49949                  20249196.9574
        31.7504         63.7504
  21245389.4844   -1158101.33947   -873078.31749                  21245391.2074
        26.7504         63.7504
  24251434.1724    3372919.44545   2527649.51746                  24251437.2304
        10.7504         14.5004
  23710487.7424   -2286288.62745  -1698019.84646                  23710489.6174
        10.5004         13.0004
                   -833126.732 5   -649188.532 5  23234498.961    23234500.641
        11.000          11.750
  20721106.7114     784756.26648    587423.14949                  20721107.5204
        31.0004         63.7504
  22908592.6484   -2570792.01946  -1936355.16746                  22908595.2854
        16.0004         21.5004
 95  4 13 16  2  0.0000000  0  8G14G18G19G22G27G28G29G31
  24131646.6644    3637301.89845   2726827.37745                  24131650.1684
         8.0004          9.2504
  20247105.3914    -844810.71748   -636665.88549                  20247106.3164
        31.7504         63.7504
  21241961.8594   -1176112.65247   -887113.10149                  21241963.6414
        26.7504         63.7504
  24261203.8834    3424258.83945   2567654.22545                  24261206.0514
        11.5004         11.7504
  23703580.0704   -2322584.98845  -1726302.69446                  23703582.5084
        10.2504         13.0004
                   -843594.839 5   -657345.489 5  23232507.219    23232508.605
        11.000          11.500
  20723763.2504     798716.33548    598301.12349                  20723764.1174
        31.2504         63.7504
  22901116.7194   -2610075.71246  -1966965.80146                  22901118.8164
        15.5004         24.2504
 95  4 13 16  2 15.0000000  0  8G14G18G19G22G27G28G29G31
  24141921.3984    3691299.03845   2768903.04645                  24141925.0554
         7.7504          7.7504
  20245034.1564    -855694.31648   -645146.60749                  20245035.1174
        32.0004         63.7504
  21238539.7734   -1194097.32747   -901127.12049                  21238541.4844
        27.0004         63.7504
  24270976.2274    3475612.51445   2607670.09146                  24270978.5704
        11.7504         12.5004
  23696675.8914   -2358870.37745  -1754577.00246                  23696677.5784
        10.7504         13.7504
                   -853943.771 5   -665409.579 5  23230538.070    23230539.254
        11.250          11.500
  20726438.3054     812773.15548    609254.48449                  20726439.1374
        31.5004         63.7504
  22893653.3444   -2649299.08946  -1997529.44146                  22893655.5944
        16.2504         24.2504
 95  4 13 16  2 30.0000000  0  8G14G18G19G22G27G28G29G31
  24152196.4774    3745291.45445   2810975.02145                  24152200.2274
         8.0004          7.2504
  20242982.6954    -866474.78848   -653546.97249                  20242983.6914
        31.7504         63.7504
  21235122.8984   -1212051.83047   -915117.63749                  21235124.5634
        26.7504         63.7504
  24280750.7114    3526978.43745   2647695.47145                  24280753.1604
        11.7504         10.5004
  23689773.5634   -2395141.10945  -1782839.88646                  23689775.9774
        10.2504         13.7504
                   -864171.481 5   -673379.216 5  23228591.156    23228592.953
        11.000          11.500
  20729132.6174     826931.57648    620287.01849                  20729133.3794
        31.7504         63.7504
  22886200.5704   -2688461.02546  -2028045.20446                  22886202.3634
        15.5004         21.0004
 95  4 13 16  2 45.0000000  0  8G14G18G19G22G27G28G29G31
  24162470.1094    3799279.36545   2853043.47745                  24162474.1294
         8.2504          7.7504
  20240950.0634    -877157.77448   -661871.36949                  20240951.0594
        32.0004         63.7504
  21231712.3284   -1229975.97247   -929084.49549                  21231714.0394
        27.5004         63.7504
  24290527.0944    3578354.12145   2687728.47845                  24290529.1454
        11.7504         11.2504
  23682873.9454   -2431396.82845  -1811091.06545                  23682876.6524
        10.0004         11.2504
                   -874279.432 5   -681255.529 5  23226667.938    23226669.875
        11.000          11.750
  20731846.2814     841192.71448    631399.59149                  20731846.9494
        31.7504         63.7504
  22878759.8364   -2727564.16646  -2058515.15646                  22878761.5354
        15.7504         22.2504
 95  4 13 16  3  0.0000000  0  8G14G18G19G22G27G28G29G31
  24172741.7734    3853259.15345   2895105.62145                  24172746.2034
         8.2504          7.2504
  20238934.0314    -887751.26848   -670126.03449                  20238935.1564
        31.7504         63.7504
  21228306.4454   -1247872.87047   -943030.12749                  21228308.0984
        26.7504         63.7504
  24300304.3134    3629734.38345   2727765.04745                  24300306.3634
        11.5004         11.2504
  23675976.8914   -2467642.75845  -1839334.63346                  23675980.3484
        10.2504         13.0004
                   -884271.921 5   -689041.875 5  23224766.461    23224768.215
        11.000          11.750
  20734579.4614     855554.35448    642590.47849                  20734580.1764
        32.2504         63.7504
  22871329.2894   -2766609.96346  -2088940.43246                  22871331.0354
        15.0004         21.0004
 95  4 13 16  3 15.0000000  0  8G14G18G19G22G27G28G29G31
  24183011.1254    3907226.35345   2937157.93645                  24183015.9414
         8.2504          7.7504
  20236933.8834    -898261.66948   -678315.95349                  20236934.9844
        31.7504         63.7504
  21224905.2194   -1265747.30147   -956958.24649                  21224906.7424
        27.5004         63.7504
  24310081.9774    3681114.87945   2767801.79345                  24310084.3914
        11.5004         11.7504
  23669080.5784   -2503881.77145  -1867572.79646                  23669082.9224
        10.2504         13.0004
                   -894151.881 5   -696740.535 5  23222886.781    23222887.902
        11.500          11.500
  20737330.8914     870014.08748    653857.80249                  20737331.5824
        32.2504         63.7504
  22863909.3364   -2805602.49646  -2119324.18246                  22863911.5984
        15.0004         23.0004
 95  4 13 16  3 30.0000000  0  8G14G18G19G22G27G28G29G31
  24193278.6954    3961181.01045   2979200.51245                  24193281.4734
         8.2504          7.2504
  20234950.9694    -908682.13848   -686435.79349                  20234952.1414
        31.5004         63.7504
  21221508.6884   -1283594.70547   -970865.30749                  21221510.3874
        26.7504         63.7504
  24319860.3984    3732501.99545   2807843.69346                  24319862.9534
        11.7504         13.7504
  23662186.8204   -2540110.73145  -1895803.12246                  23662189.2464
        10.7504         13.0004
                   -903914.128 5   -704347.469 5  23221028.820    23221030.109
        11.250          11.500
  20740101.7734     884575.50148    665204.35449                  20740102.4884
        32.2504         63.7504
  22856499.5864   -2844538.11546  -2149663.59546                  22856502.2464
        14.7504         21.0004
 95  4 13 16  3 45.0000000  0  8G14G18G19G22G27G28G29G31
  24203543.0784    4015122.65245   3021232.92845                  24203546.1484
         8.2504          5.2504
  20232985.5234    -919011.63648   -694484.75049                  20232986.6844
        31.7504         63.7504
  21218117.3674   -1301416.69547   -984752.56449                  21218119.0434
        26.7504         63.7504
  24329641.1564    3783896.27346   2847891.18546                  24329643.9694
        12.2504         12.5004
  23655294.5864   -2576333.32445  -1924028.50246                  23655297.1414
        11.0004         13.7504
                   -913559.051 5   -711862.982 5  23219193.484    23219194.895
        11.500          11.750
  20742891.7584     899236.67848    676628.65149                  20742892.4144
        32.2504         63.7504
  22849101.5234   -2883416.77846  -2179958.62946                  22849104.2544
        15.0004         24.2504
 95  4 13 16  4  0.0000000  0  8G14G18G19G22G27G28G29G31
  24213805.0634    4069046.93745   3063251.81845                  24213807.7934
         8.2504          8.5004
  20231036.0634    -929255.18048   -702466.72449                  20231037.1294
        31.7504         63.7504
  21214730.2034   -1319216.29047   -998622.37249                  21214731.7504
        26.7504         63.7504
  24339421.1724    3835290.92846   2887938.95245                  24339423.7504
        12.2504         11.7504
  23648401.0704   -2612554.73545  -1952252.96146                  23648403.7894
        10.7504         14.5004
                   -923091.673 5   -719290.984 6  23217379.484    23217381.164
        11.500          12.000
  20745699.6804     913992.29648    688126.53749                  20745700.1604
        32.5004         63.7504
  22841712.7894   -2922244.10046  -2210213.64446                  22841715.5084
        15.2504         25.0004
 95  4 13 16  4 15.0000000  0  8G14G18G19G22G27G28G29G31
  24224063.8134    4122958.67645   3105260.96545                  24224066.0044
         7.5004          6.0004
  20229104.7504    -939404.99448   -710375.66649                  20229105.8984
        32.2504         63.7504
  21211348.9924   -1336984.96947  -1012468.08649                  21211350.7504
        26.7504         63.7504
  24349201.6174    3886690.93645   2927990.91146                  24349203.5044
        11.2504         13.0004
  23641510.1564   -2648768.17445  -1980471.19946                  23641512.6054
        11.0004         12.5004
                   -932508.053 5   -726628.409 6  23215587.852    23215589.309
        11.500          12.000
  20748526.8914     928848.37548    699702.69949                  20748527.5474
        32.5004         63.7504
  22834335.5234   -2961014.30046  -2240424.16246                  22834337.7854
        15.7504         25.5004
 95  4 13 16  4 30.0000000  0  6G18G19G27G28G29G31
  20227190.9224    -949462.33648   -718212.54849                  20227191.8954
        31.7504         63.7504
  21207973.9304   -1354720.97547  -1026288.34349                  21207975.7584
        26.7504         63.7504
  23634619.6414   -2684975.17345  -2008684.42546                  23634622.5354
        10.7504         13.7504
                   -941810.635 5   -733877.165 5  23213817.422    23213818.898
        11.500          11.750
  20751372.8364     943804.40648    711356.75149                  20751373.5984
        32.2504         63.7504
  22826968.9774   -2999725.16346  -2270588.44247                  22826971.2034
        16.2504         26.2504
 95  4 13 16  4 45.0000000  0  6G18G19G27G28G29G31
  20225295.1174    -959424.83548   -725975.53149                  20225296.1134
        32.2504         63.7504
  21204605.7194   -1372422.06047  -1040081.38949                  21204607.5594
        27.0004         63.7504
  23627731.4614   -2721175.28245  -2036892.28345                  23627733.1134
        11.2504         11.7504
                   -950997.603 5   -741035.831 5  23212069.188    23212070.605
        11.500          11.750
  20754238.2664     958862.00748    723089.94349                  20754238.8634
        32.5004         63.7504
  22819615.6334   -3038368.64846  -2300700.21747                  22819618.0004
        16.5004         26.2504
 95  4 13 16  5  0.0000000  0  6G18G19G27G28G29G31
  20223418.7814    -969285.12848   -733658.86949                  20223419.7304
        32.0004         63.7504
  21201244.5394   -1390085.23947  -1053844.89849                  21201246.4024
        26.7504         63.7504
  23620844.6724   -2757368.10145  -2065094.46546                  23620846.8054
        11.5004         15.0004
                   -960065.619 5   -748101.804 5  23210343.461    23210344.973
        11.500          11.750
  20757122.5394     974019.66448    734901.11149                  20757123.2074
        32.0004         63.7504
  22812275.3754   -3076939.79146  -2330755.63147                  22812278.1994
        16.0004         26.7504
 95  4 13 16  5 15.0000000  0  6G18G19G27G28G29G31
  20221560.7114    -979048.26448   -741266.50449                  20221561.7774
        32.2504         63.7504
  21197888.6564   -1407719.15147  -1067585.60149                  21197890.4144
        27.0004         63.7504
  23613957.0784   -2793562.12545  -2093297.58446                  23613958.8484
        11.2504         15.7504
                   -969021.784 5   -755080.616 6  23208639.070    23208640.840
        11.250          12.000
  20760024.1174     989268.77648    746783.53149                  20760024.8094
        31.7504         63.7504
  22804947.9844   -3115447.69646  -2360761.75647                  22804950.8204
        16.2504         27.5004
 95  4 13 16  5 30.0000000  0  6G18G19G27G28G29G31
  20219721.4454    -988713.72948   -748798.03149                  20219722.5704
        32.0004         63.7504
  21194538.8444   -1425323.44147  -1081303.22049                  21194540.4844
        27.2504         63.7504
  23607069.4454   -2829756.80445  -2121501.20746                  23607071.1214
        11.5004         13.7504
                   -977866.859 5   -761972.869 5  23206956.359    23206957.723
        11.750          11.750
  20762943.0394    1004606.66748    758735.13349                  20762943.7774
        31.7504         63.7504
  22797631.3444   -3153895.36746  -2390720.95047                  22797633.9574
        16.0004         28.2504
 95  4 13 16  5 45.0000000  0  6G18G19G27G28G29G31
  20217900.7424    -998281.46948   -756253.41149                  20217901.8324
        32.2504         63.7504
  21191194.8444   -1442895.77847  -1094995.94649                  21191196.3914
        27.0004         63.7504
  23600180.4064   -2865953.43445  -2149706.36346                  23600182.4104
        10.7504         14.5004
                   -986600.996 5   -768778.680 5  23205294.109    23205295.453
        11.750          11.750
  20765878.8204    1020033.76548    770756.24649                  20765879.4654
        31.7504         63.7504
  22790326.5944   -3192282.80646  -2420633.20347                  22790329.5004
        16.5004         30.7504
 95  4 13 16  6  0.0000000  0  6G18G19G27G28G29G31
  20216098.5084   -1007753.01148   -763633.82849                  20216099.4804
        32.2504         63.7504
  21187857.0394   -1460437.25247  -1108664.61449                  21187858.5044
        27.5004         63.7504
  23593292.7814   -2902150.93945  -2177912.18446                  23593295.2544
        10.7504         13.0004
                   -995225.246 5   -775498.860 5  23203652.469    23203654.242
        11.500          11.750
  20768831.2664    1035550.67948    782847.35049                  20768832.1214
        31.0004         63.7504
  22783032.8754   -3230611.63346  -2450499.78847                  22783035.7234
        16.5004         30.7504
 95  4 13 16  6 15.0000000  0  6G18G19G27G28G29G31
  20214314.5864   -1017128.15248   -770939.12949                  20214315.6524
        32.2504         63.7504
  21184525.4454   -1477944.37847  -1122306.52549                  21184526.8524
        27.0004         63.7504
  23586405.0784   -2938345.15445  -2206115.45546                  23586407.5514
        10.5004         12.5004
                  -1003738.659 5   -782132.669 5  23202033.164    23202034.094
        11.750          11.750
  20771801.3594    1051157.07348    795008.17349                  20771802.0164
        31.0004         63.7504
  22775750.3674   -3268879.79246  -2480319.10147                  22775753.1334
        17.0004         31.5004
 95  4 13 16  6 30.0000000  0  6G18G19G27G28G29G31
  20212547.9924   -1026411.11948   -778172.60849                  20212549.0354
        32.2504         63.7504
  21181199.5704   -1495421.06647  -1135924.71749                  21181200.8954
        27.2504         63.7504
  23579517.3834   -2974539.71645  -2234318.98446                  23579520.0084
        10.7504         14.5004
                  -1012144.407 5   -788682.594 5  23200433.563    23200434.383
        11.750          11.500
  20774786.7424    1066845.99548    807233.31049                  20774787.4104
        30.7504         63.7504
  22768479.3444   -3307089.37646  -2510092.77347                  22768481.8054
        17.2504         33.5004
 95  4 13 16  6 45.0000000  0  6G18G19G27G28G29G31
  20210799.1174   -1035600.83248   -785333.42049                  20210800.1954
        32.2504         63.7504
  21177879.5474   -1512868.49747  -1149520.11149                  21177880.9304
        27.2504         63.7504
  23572630.1024   -3010733.56945  -2262521.96346                  23572632.8204
        11.0004         13.7504
                  -1020440.220 5   -795146.847 5  23198854.789    23198855.973
        11.750          11.750
  20777787.3914    1082616.50348    819522.01549                  20777788.2344
        30.0004         63.7504
  22761219.6644   -3345240.03346  -2539820.53047                  22761222.0784
        18.2504         34.0004
 95  4 13 16  7  0.0000000  0  6G18G19G27G28G29G31
  20209068.3284   -1044696.46148   -792420.92149                  20209069.4654
        32.2504         63.7504
  21174564.1644   -1530290.27747  -1163095.52249                  21174565.6174
        27.0004         63.7504
  23565742.9144   -3046928.90645  -2290726.09546                  23565745.1054
        11.0004         15.0004
                  -1028627.884 5   -801526.831 5  23197296.516    23197297.820
        11.750          11.750
  20780803.7344    1098466.15548    831872.38949                  20780804.6484
        30.0004         63.7504
  22753969.7734   -3383338.77246  -2569507.83647                  22753972.3164
        18.2504         35.2504
 95  4 13 16  7 15.0000000  0  6G18G19G27G28G29G31
  20207355.5944   -1053697.79948   -799434.94749                  20207356.6604
        32.5004         63.7504
  21171254.1724   -1547686.33147  -1176650.88349                  21171255.5784
        27.2504         63.7504
  23558854.2814   -3083124.62745  -2318930.53546                  23558856.6484
        11.0004         13.7504
                  -1036706.422 5   -807821.782 5  23195759.359    23195760.637
        11.750          11.750
  20783835.1484    1114397.98148    844286.79749                  20783836.0984
        29.7504         63.7504
  22746729.6564   -3421387.39846  -2599156.08847                  22746732.3054
        18.5004         33.5004
 95  4 13 16  7 30.0000000  0  6G18G19G27G28G29G31
  20205660.4384   -1062605.46148   -806375.98049                  20205661.4694
        32.5004         63.7504
  21167948.7274   -1565055.61147  -1190185.37949                  21167950.1564
        27.0004         63.7504
  23551967.1484   -3119318.25745  -2347133.34446                  23551969.7624
        11.5004         15.7504
                  -1044674.620 5   -814030.757 5  23194243.055    23194244.180
        11.750          11.750
  20786883.6484    1130416.74548    856768.94849                  20786884.7624
        29.2504         63.7504
  22739498.4924   -3459384.96846  -2628764.56747                  22739500.4734
        18.0004         34.0004
 95  4 13 16  7 45.0000000  0  6G18G19G27G28G29G31
  20203983.1484   -1071420.33748   -813244.71249                  20203984.1094
        32.5004         63.7504
  21164648.1564   -1582401.59547  -1203701.72349                  21164649.5634
        27.5004         63.7504
  23545078.8134   -3155514.28145  -2375338.00246                  23545081.6844
        11.2504         15.0004
                  -1052535.551 5   -820156.142 5  23192747.281    23192748.156
        11.750          11.750
  20789947.7424    1146519.38348    869316.45049                  20789948.7274
        29.2504         63.7504
  22732277.9064   -3497330.39046  -2658332.40147                  22732280.0394
        18.0004         33.5004
 95  4 13 16  8  0.0000000  0  6G18G19G27G28G29G31
  20202323.7894   -1080140.29348   -820039.48049                  20202324.6914
        32.7504         63.7504
  21161350.8674   -1599726.12247  -1217201.35249                  21161352.2624
        27.5004         63.7504
  23538190.9924   -3191712.45045  -2403544.36146                  23538192.9144
        11.5004         14.5004
                  -1060287.837 5   -826196.876 5  23191271.844    23191273.023
        11.750          11.750
  20793028.2664    1162708.72748    881931.52449                  20793029.1334
        29.0004         63.7504
  22725067.2894   -3535220.23646  -2687856.93147                  22725069.5514
        17.0004         29.5004
 95  4 13 16  8 15.0000000  0  6G18G19G27G28G29G31
  20200681.8754   -1088768.37848   -826762.66149                  20200682.8014
        32.7504         63.7504
  21158057.5784   -1617033.55147  -1230687.64749                  21158059.1254
        27.5004         63.7504
  23531301.0554   -3227916.23945  -2431755.08446                  23531302.8834
        10.7504         15.0004
                  -1067934.570 5   -832155.355 6  23189816.656    23189818.074
        11.750          12.000
  20796125.6954    1178983.40048    894613.08249                  20796126.7154
        29.2504         63.7504
  22717867.5394   -3573056.00946  -2717339.32047                  22717870.0944
        17.0004         32.0004
 95  4 13 16  8 30.0000000  0  6G18G19G27G28G29G31
  20199057.9224   -1097302.42948   -833412.56549                  20199058.8244
        32.7504         63.7504
  21154767.4534   -1634323.48647  -1244160.31549                  21154768.9884
        27.5004         63.7504
  23524410.8754   -3264126.02545  -2459970.46946                  23524413.6764
        11.0004         15.0004
                  -1075473.926 5   -838030.166 6  23188381.984    23188383.469
        11.750          12.000
  20799239.3134    1195346.18948    907363.30749                  20799240.4964
        29.2504         63.7504
  22710678.0234   -3610836.98346  -2746779.02047                  22710680.5904
        16.5004         31.5004
 95  4 13 16  8 45.0000000  0  6G18G19G27G28G29G31
  20197452.3984   -1105739.59048   -839986.97649                  20197453.0784
        32.7504         63.7504
  21151479.8054   -1651600.98847  -1257623.29649                  21151481.3984
        27.5004         63.7504
  23517518.4534   -3300345.12245  -2488193.13246                  23517520.7504
        11.0004         14.5004
                  -1082905.985 5   -843821.370 5  23186967.953    23186969.070
        11.750          11.750
  20802370.3284    1211801.13748    920185.34249                  20802371.3484
        29.0004         63.7504
  22703498.5084   -3648565.23346  -2776177.62247                  22703501.4614
        16.2504         30.2504
 95  4 13 16  9  0.0000000  0  6G18G19G27G28G29G31
  20195864.4614   -1114084.33448   -846489.37049                  20195865.1884
        33.0004         63.7504
  21148193.1564   -1668871.54347  -1271080.86449                  21148194.8914
        27.5004         63.7504
  23510623.5394   -3336580.44245  -2516428.43246                  23510625.7774
        11.5004         14.5004
                  -1090236.454 5   -849533.408 5  23185572.844    23185573.949
        11.750          11.750
  20805518.5634    1228344.66448    933076.40349                  20805519.5234
        28.7504         63.7504
  22696327.7344   -3686247.60446  -2805540.48247                  22696330.4414
        16.2504         31.5004
 95  4 13 16  9 15.0000000  0  6G18G19G27G28G29G31
  20194294.7894   -1122333.11848   -852916.99449                  20194295.5164
        33.0004         63.7504
  21144909.2974   -1686128.31847  -1284527.69149                  21144911.0664
        27.2504         63.7504
  23503725.8054   -3372826.49245  -2544672.08646                  23503728.0554
        11.5004         13.7504
                  -1097459.409 5   -855161.672 5  23184198.242    23184199.594
        11.750          11.750
  20808684.7274    1244982.90248    946041.26049                  20808685.7934
        29.0004         63.7504
  22689167.2424   -3723876.36646  -2834861.56047                  22689169.9494
        17.0004         30.2504
 95  4 13 16  9 30.0000000  0  6G18G19G27G28G29G31
  20192742.5084   -1130490.98648   -859273.76949                  20192743.2464
        33.2504         63.7504
  21141628.0784   -1703372.06547  -1297964.36949                  21141629.9064
        27.5004         63.7504
  23496827.0084   -3409084.85846  -2572925.34446                  23496829.3164
        12.0004         13.7504
                  -1104577.033 5   -860707.859 5  23182843.953    23182845.160
        11.750          11.750
  20811867.9924    1261710.71848    959075.91849                  20811869.1884
        29.0004         63.7504
  22682016.7194   -3761452.91646  -2864141.97047                  22682019.1454
        17.2504         28.7504
 95  4 13 16  9 45.0000000  0  6G18G19G27G28G29G31
  20191207.4384   -1138556.78148   -865558.80049                  20191208.2114
        33.0004         63.7504
  21138349.2664   -1720601.02047  -1311389.52449                  21138351.0354
        27.2504         63.7504
  23489923.9224   -3445354.56145  -2601187.43546                  23489926.4534
        11.5004         13.0004
                  -1111587.618 6   -866170.639 5  23181509.922    23181511.125
        12.000          11.750
  20815067.8284    1278525.84448    972178.60949                  20815068.9534
        29.2504         63.7504
  22674876.4614   -3798974.31746  -2893379.40747                  22674878.5944
        17.5004         29.5004
 95  4 13 16 10  0.0000000  0  6G18G19G27G28G29G31
  20189689.0164   -1146536.94148   -871777.10549                  20189689.6484
        33.2504         63.7504
  21135072.4064   -1737820.02447  -1324806.91949                  21135074.1644
        27.0004         63.7504
  23483019.0314   -3481640.79445  -2629462.40846                  23483021.6334
        11.7504         15.7504
                  -1118496.476 5   -871554.156 5  23180195.008    23180196.219
        11.750          11.750
  20818282.7664    1295420.63348    985343.37949                  20818283.8554
        29.0004         63.7504
  22667746.0394   -3836444.64846  -2922577.03947                  22667748.4654
        17.7504         28.7504
 95  4 13 16 10 15.0000000  0  6G18G19G27G28G29G31
  20188186.9534   -1154429.94848   -877927.49849                  20188187.5744
        33.0004         63.7504
  21131798.8524   -1755024.68747  -1338213.14549                  21131800.6334
        27.5004         63.7504
  23476111.5944   -3517939.64145  -2657747.21446                  23476114.1254
        11.5004         15.7504
                  -1125301.783 5   -876856.977 5  23178899.930    23178901.395
        11.750          11.750
  20821513.4924    1312397.09348    998571.78549                  20821514.6054
        29.5004         63.7504
  22660625.6564   -3873864.57046  -2951735.40347                  22660627.9774
        18.0004         26.7504
 95  4 13 16 10 30.0000000  0  6G18G19G27G28G29G31
  20186702.0314   -1162233.16548   -884007.92249                  20186702.5824
        33.0004         63.7504
  21128528.1804   -1772211.22347  -1351605.24349                  21128529.9024
        27.5004         63.7504
  23469202.2894   -3554249.27745  -2686040.41446                  23469204.6564
        11.5004         15.7504
                  -1132002.589 5   -882078.369 6  23177624.828    23177626.531
        11.750          12.250
  20824759.1334    1329453.93648   1011862.82949                  20824760.1524
        29.2504         63.7504
  22653514.2734   -3911234.41346  -2980854.75147                  22653516.3244
        17.7504         28.7504
 95  4 13 16 10 45.0000000  0  6G18G19G27G28G29G31
  20185234.1414   -1169946.97048   -890018.67649                  20185234.7974
        33.2504         63.7504
  21125260.8284   -1789381.06947  -1364984.33249                  21125262.4104
        27.5004         63.7504
  23462290.6334   -3590571.36545  -2714343.31046                  23462293.0004
        11.5004         13.7504
                  -1138599.451 5   -887218.768 6  23176369.539    23176370.762
        11.750          12.000
  20828019.6024    1346586.99548   1025213.26349                  20828020.7274
        29.7504         63.7504
  22646412.9144   -3948553.19246  -3009934.29947                  22646414.7894
        17.7504         29.5004
 95  4 13 16 11  0.0000000  0  6G18G19G27G28G29G31
  20183783.0864   -1177571.66548   -895959.99549                  20183783.7774
        33.0004         63.7504
  21121997.6884   -1806530.19247  -1378347.27849                  21121999.1884
        27.2504         63.7504
  23455376.8674   -3626902.86445  -2742653.55546                  23455379.9494
        11.5004         16.5004
                  -1145090.711 6   -892276.882 6  23175134.563    23175135.695
        12.000          12.000
  20831294.0314    1363795.48648   1038622.47449                  20831294.8874
        30.0004         63.7504
  22639321.6094   -3985817.27746  -3038971.23447                  22639323.6134
        17.7504         31.5004
 95  4 13 16 11 15.0000000  0  6G18G19G27G28G29G31
  20182348.3364   -1185111.48748   -901835.18049                  20182349.0274
        33.0004         63.7504
  21118738.2734   -1823657.97647  -1391693.60249                  21118739.6564
        27.2504         63.7504
  23448460.6024   -3663244.89145  -2770971.99046                  23448463.7194
        11.5004         17.7504
                  -1151478.713 5   -897254.534 6  23173918.781    23173920.234
        11.750          12.000
  20834582.4144    1381074.13948   1052086.35849                  20834583.4454
        30.2504         63.7504
  22632240.9694   -4023025.66846  -3067964.76347                  22632243.0554
        17.2504         28.7504
 95  4 13 16 11 30.0000000  0  6G18G19G27G28G29G31
  20180929.0554   -1192569.56548   -907646.66349                  20180929.7114
        33.0004         63.7504
  21115482.5164   -1840767.87547  -1405025.97949                  21115484.0514
        27.7504         63.7504
  23441542.9844   -3699600.38145  -2799300.93246                  23441545.6454
        11.5004         15.7504
                  -1157766.980 5   -902154.463 6  23172722.141    23172723.547
        11.750          12.250
  20837883.0234    1398419.98148   1065602.59849                  20837884.1254
        30.2504         63.7504
  22625171.2664   -4060178.48346  -3096914.98547                  22625173.4454
        17.7504         31.5004
 95  4 13 16 11 45.0000000  0  6G18G19G27G28G29G31
  20179526.2974   -1199941.36748   -913390.92349                  20179526.9654
        33.0004         63.7504
  21112230.1254   -1857857.62847  -1418342.66649                  21112231.6724
        27.5004         63.7504
  23434622.0314   -3735966.87045  -2827638.43446                  23434624.2234
        11.5004         16.5004
                  -1163951.520 6   -906973.574 6  23171545.453    23171546.355
        12.000          12.000
  20841198.0634    1415839.42548   1079176.18649                  20841199.1054
        30.7504         63.7504
  22618113.1484   -4097270.11646  -3125817.52147                  22618115.3634
        18.0004         31.5004
 95  4 13 16 12  0.0000000  0  6G18G19G27G28G29G31
  20178140.4064   -1207225.17548   -919066.61649                  20178141.0274
        33.2504         63.7504
  21108980.8984   -1874931.98947  -1431647.35749                  21108982.4454
        27.2504         63.7504
  23427699.9694   -3772346.03045  -2855985.80446                  23427702.7344
        11.5004         16.5004
                  -1170033.583 5   -911712.833 6  23170387.875    23170388.965
        11.750          12.000
  20844527.6644    1433336.14448   1092809.99349                  20844528.4964
        31.2504         63.7504
  22611066.0864   -4134299.44846  -3154671.52647                  22611068.2304
        17.5004         32.0004
 95  4 13 16 12 15.0000000  0  6G18G19G27G28G29G31
  20176770.8674   -1214421.31048   -924673.99149                  20176771.4774
        32.7504         63.7504
  21105734.0394   -1891995.56447  -1444943.64149                  21105735.7384
        27.5004         63.7504
  23420773.8834   -3808740.37145  -2884345.02746                  23420776.1564
        11.7504         17.0004
                  -1176015.844 5   -916374.324 6  23169249.539    23169250.680
        11.750          12.000
  20847871.9694    1450909.82448   1106503.76649                  20847872.8244
        31.5004         63.7504
  22604030.2194   -4171272.06546  -3183481.34447                  22604032.4694
        17.2504         32.7504
 95  4 13 16 12 30.0000000  0  6G18G19G27G28G29G31
  20175418.4694   -1221529.71448   -930213.00549                  20175419.1484
        33.7504         63.7504
  21102488.4694   -1909050.99647  -1458233.58349                  21102490.0984
        27.5004         63.7504
  23413844.7194   -3845152.83445  -2912718.35146                  23413846.9344
        11.5004         16.5004
                  -1181899.386 5   -920958.893 6  23168129.820    23168131.281
        11.750          12.250
  20851230.4844    1468559.40548   1120256.68349                  20851231.4574
        31.5004         63.7504
  22597005.0634   -4208191.00946  -3212249.32247                  22597007.1484
        17.7504         30.7504
 95  4 13 16 12 45.0000000  0  6G18G19G27G28G29G31
  20174081.7194   -1228552.84348   -935685.56749                  20174082.3874
        32.7504         63.7504
  21099243.7274   -1926102.61147  -1471520.54649                  21099245.2974
        27.7504         63.7504
  23406912.4144   -3881583.32946  -2941105.74346                  23406915.0164
        12.0004         14.5004
                  -1187683.935 5   -925466.319 6  23167029.117    23167030.457
        11.750          12.250
  20854603.4844    1486284.80848   1134068.68349                  20854604.3984
        31.7504         63.7504
  22589989.9454   -4245055.66146  -3240975.00147                  22589991.9384
        17.7504         30.7504
 95  4 13 16 13  0.0000000  0  6G18G19G27G28G29G31
  20172761.2974   -1235492.61248   -941093.18149                  20172761.9774
        33.2504         63.7504
  21095999.1804   -1943151.25147  -1484805.19649                  21096000.8914
        27.5004         63.7504
  23399976.5634   -3918031.73945  -2969507.07646                  23399979.0824
        11.7504         17.7504
                  -1193369.813 5   -929896.864 6  23165947.211    23165948.332
        11.750          12.250
  20857990.8674    1504085.53948   1147939.38049                  20857991.7814
        31.7504         63.7504
  22582985.5164   -4281865.92846  -3269658.30147                  22582987.5204
        18.0004         31.5004
 95  4 13 16 13 15.0000000  0  6G18G19G27G28G29G31
  20171456.5474   -1242348.28448   -946435.25949                  20171457.2734
        33.2504         63.7504
  21092755.8834   -1960195.31447  -1498086.27649                  21092757.6644
        27.5004         63.7504
  23393038.0004   -3954494.74245  -2997919.78846                  23393040.7194
        11.7504         15.0004
                  -1198955.540 6   -934249.371 6  23164884.375    23164885.547
        12.000          12.250
  20861393.1724    1521964.84748   1161871.30549                  20861394.2504
        31.2504         63.7504
  22575991.1024   -4318621.17446  -3298298.74047                  22575993.2114
        18.0004         30.7504
 95  4 13 16 13 30.0000000  0  6G18G19G27G28G29G31
  20170168.2584   -1249119.09848   -951711.21849                  20170169.0084
        33.2504         63.7504
  21089513.6484   -1977234.10047  -1511363.24749                  21089515.3594
        27.5004         63.7504
  23386095.8204   -3990973.08745  -3026344.47146                  23386097.7544
        11.5004         16.5004
                  -1204440.371 6   -938523.253 6  23163840.344    23163841.855
        12.000          12.250
  20864810.9384    1539924.86048   1175866.11549                  20864811.9574
        31.5004         63.7504
  22569007.2664   -4355320.03046  -3326895.23147                  22569009.3984
        18.0004         30.7504
 95  4 13 16 13 45.0000000  0  6G18G19G27G28G29G31
  20168894.9614   -1255809.73748   -956924.70049                  20168895.6294
        33.2504         63.7504
  21086271.3364   -1994272.84447  -1524640.18649                  21086273.0944
        27.5004         63.7504
  23379151.7344   -4027468.02945  -3054782.07346                  23379154.0784
        11.5004         15.7504
                  -1209827.523 6   -942721.016 6  23162815.305    23162816.582
        12.250          12.250
  20868243.7114    1557964.14448   1189922.69949                  20868244.7304
        31.7504         63.7504
  22562033.0704   -4391970.27046  -3355453.84047                  22562035.5784
        18.2504         30.7504
 95  4 13 16 14  0.0000000  0  6G18G19G27G28G29G31
  20167636.4064   -1262424.00748   -962078.67449                  20167637.0044
        33.2504         63.7504
  21083028.9144   -2011312.36947  -1537917.73249                  21083030.5084
        27.7504         63.7504
  23372203.4304   -4063981.18745  -3083233.86846                  23372205.3634
        11.5004         12.5004
                  -1215118.872 6   -946844.140 6  23161808.508    23161809.688
        12.250          12.000
  20871690.7034    1576078.43248   1204037.72649                  20871691.8634
        31.7504         63.7504
  22555067.0944   -4428575.51146  -3383977.38447                  22555068.9574
        18.5004         34.0004
 95  4 13 16 14 15.0000000  0  6G18G19G27G28G29G31
  20166393.4384   -1268955.02648   -967167.78149                  20166394.1764
        33.0004         63.7504
  21079787.8914   -2028343.01847  -1551188.36049                  21079789.3674
        27.7504         63.7504
  23365252.8594   -4100504.96845  -3111693.92242                  23365255.7774
        11.5004          2.0004
                  -1220307.290 6   -950887.058 6  23160821.070    23160822.609
        12.250          12.250
  20875152.7894    1594271.23048   1218213.92749                  20875153.8794
        31.7504         63.7504
  22548111.2034   -4465128.79746  -3412460.45947                  22548113.6764
        18.7504         26.2504
 95  4 13 16 14 30.0000000  0  6G18G19G27G28G29G31
  20165165.6174   -1275407.80048   -972195.91349                  20165166.2854
        33.2504         63.7504
  21076549.6804   -2045361.76147  -1564449.71349                  21076551.2274
        27.5004         63.7504
  23358300.3524   -4137042.45346  -3140164.69346                  23358303.1884
        12.0004         17.7504
                  -1225394.133 6   -954850.817 6  23159852.852    23159854.664
        12.000          12.250
  20878628.9454    1612538.77648   1232448.37449                  20878630.0004
        31.7504         63.7504
  22541165.5704   -4501632.12146  -3440904.57447                  22541167.9144
        18.7504         36.0004
 95  4 13 16 14 45.0000000  0  6G18G19G27G28G29G31
  20163951.0164   -1281790.34748   -977169.32249                  20163951.6954
        33.2504         63.7504
  21073312.6024   -2062371.82848  -1577704.30549                  21073314.1254
        28.0004         63.7504
  23351344.0554   -4173597.46046  -3168649.08446                  23351346.0234
        12.2504         17.0004
                  -1230383.595 6   -958738.704 6  23158903.453    23158904.859
        12.250          12.000
  20882118.7274    1630877.58648   1246738.35849                  20882119.7934
        31.2504         63.7504
  22534228.2344   -4538084.78146  -3469309.22747                  22534230.6254
        18.0004         34.0004
 95  4 13 16 15  0.0000000  0  6G18G19G27G28G29G31
  20162750.9224   -1288097.79448   -982084.21549                  20162751.5904
        33.2504         63.7504
  21070078.9534   -2079364.68048  -1590945.48349                  21070080.3594
        28.2504         63.7504
  23344385.6254   -4210165.03646  -3197143.29346                  23344388.0744
        12.2504         15.7504
                  -1235270.437 6   -962546.628 6  23157973.547    23157974.711
        12.250          12.000
  20885623.0394    1649293.31848   1261088.27449                  20885624.1644
        30.7504         63.7504
  22527302.9144   -4574476.83446  -3497666.64847                  22527305.0594
        18.2504         34.7504
 95  4 13 16 15 15.0000000  0  6G18G19G27G28G29G31
  20161565.1024   -1294329.18548   -986939.84249                  20161565.6414
        33.2504         63.7504
  21066848.9534   -2096339.55048  -1604172.64649                  21066850.4064
        28.5004         63.7504
  23337424.4384   -4246747.70646  -3225649.25446                  23337426.2194
        12.5004         17.7504
                  -1240056.225 6   -966275.801 6  23157063.000    23157064.410
        12.250          12.250
  20889142.1884    1667786.08848   1275498.22049                  20889143.4654
        30.7504         63.7504
  22520389.9614   -4610807.06246  -3525975.88847                  22520391.9534
        18.7504         34.7504
 95  4 13 16 15 30.0000000  0  6G18G19G27G28G29G31
  20160392.0704   -1300493.95248   -991743.55449                  20160392.6214
        33.5004         63.7504
  21063619.9454   -2113308.31148  -1617395.05349                  21063621.4224
        28.5004         63.7504
  23330457.5394   -4283357.39046  -3254176.26046                  23330459.8134
        12.5004         17.0004
                  -1244751.625 6   -969934.544 6  23156169.523    23156170.945
        12.500          12.250
  20892673.8204    1686344.92548   1289959.64749                  20892675.0514
        30.7504         63.7504
  22513485.8984   -4647085.83346  -3554245.04447                  22513488.4064
        18.2504         34.7504
 95  4 13 16 15 45.0000000  0  6G18G19G27G28G29G31
  20159234.4384   -1306577.45948   -996483.94849                  20159235.1174
        33.2504         63.7504
  21060394.5004   -2130258.95348  -1630603.34049                  21060395.9304
        29.0004         63.7504
  23323487.8754   -4319981.11046  -3282714.21346                  23323490.0554
        12.2504         17.0004
                  -1249344.300 6   -973513.243 6  23155295.289    23155296.801
        12.250          12.250
  20896220.0234    1704981.74548   1304481.83849                  20896221.2074
        30.2504         63.7504
  22506594.5864   -4683300.18646  -3582463.99847                  22506596.9414
        18.0004         36.0004
 95  4 13 16 16  0.0000000  0  6G18G19G27G28G29G31
  20158091.8754   -1312580.81448  -1001161.88749                  20158092.6024
        33.2504         63.7504
  21057171.1414   -2147196.22648  -1643801.20949                  21057172.3834
        28.7504         63.7504
  23316515.8524   -4356621.50346  -3311265.14646                  23316517.7734
        12.5004         15.7504
                  -1253838.080 6   -977014.886 6  23154440.313    23154441.715
        12.250          12.250
  20899780.3834    1723691.49148   1319060.85649                  20899781.6484
        29.5004         63.7504
  22499715.1254   -4719453.37046  -3610635.28247                  22499717.3524
        18.2504         36.7504
 95  4 13 16 16 15.0000000  0  6G18G19G27G28G29G31
  20156965.7034   -1318500.05648  -1005774.28049                  20156966.3594
        33.5004         63.7504
  21053950.1804   -2164122.59848  -1656990.58349                  21053951.3984
        28.5004         63.7504
  23309539.3914   -4393283.05946  -3339832.57946                  23309541.0784
        12.2504         17.7504
                  -1258234.764 6   -980440.865 6  23153603.758    23153605.090
        12.250          12.250
  20903353.8834    1742470.77848   1333694.06049                  20903355.1024
        29.5004         63.7504
  22492846.9774   -4755545.23146  -3638758.79347                  22492849.0044
        18.7504         38.0004
 95  4 13 16 16 30.0000000  0  6G18G19G27G28G29G31
  20155856.7584   -1324327.78348  -1010315.36549                  20155857.4384
        33.7504         63.7504
  21050731.2974   -2181037.64248  -1670171.13249                  21050732.6214
        28.5004         63.7504
  23302559.4384   -4429962.98346  -3368414.32546                  23302561.4064
        12.2504         18.2504
                  -1262531.256 6   -983788.774 6  23152786.172    23152787.605
        12.250          12.250
  20906941.5554    1761324.12648   1348384.97649                  20906942.8674
        29.0004         63.7504
  22485990.8134   -4791575.73046  -3666834.48747                  22485992.9344
        18.7504         36.0004
 95  4 13 16 16 45.0000000  0  6G18G19G27G28G29G31
  20154764.3594   -1330067.32248  -1014787.73149                  20154764.9694
        33.7504         63.7504
  21047513.0394   -2197948.23248  -1683348.20949                  21047514.4804
        28.2504         63.7504
  23295575.8364   -4466663.06946  -3397011.77946                  23295578.0864
        12.5004         17.7504
                  -1266732.631 6   -987062.566 6  23151986.516    23151987.969
        12.250          12.250
  20910542.9774    1780249.54048   1363132.04549                  20910544.3364
        28.5004         63.7504
  22479144.7344   -4827550.19246  -3694866.51847                  22479146.9614
        18.2504         38.7504
 95  4 13 16 17  0.0000000  0  6G18G19G27G28G29G31
  20153689.7584   -1335714.91448  -1019188.45249                  20153690.3794
        33.7504         63.7504
  21044296.0164   -2214855.63548  -1696522.79949                  21044297.3874
        28.5004         63.7504
  23288588.7424   -4503380.44646  -3425622.69746                  23288590.6524
        12.2504         16.5004
                  -1270838.695 6   -990262.096 6  23151205.320    23151206.602
        12.500          12.250
  20914158.2034    1799247.32748   1377935.51149                  20914159.4924
        28.5004         63.7504
  22472309.7424   -4863470.00446  -3722855.95847                  22472312.1914
        18.7504         36.0004
 95  4 13 16 17 15.0000000  0  6G18G19G27G28G29G31
  20152633.2034   -1341266.80748  -1023514.60249                  20152633.8484
        33.7504         63.7504
  21041078.5394   -2231760.93648  -1709695.76049                  21041079.8404
        28.0004         63.7504
  23281598.4454   -4540115.63546  -3454247.49646                  23281600.6844
        12.7504         17.0004
                  -1274849.514 6   -993387.405 6  23150442.156    23150443.367
        12.500          12.250
  20917786.4534    1818316.16748   1392794.34349                  20917787.8834
        28.2504         63.7504
  22465483.6564   -4899338.25646  -3750805.22547                  22465486.0704
        18.0004         36.7504
 95  4 13 16 17 30.0000000  0  6G18G19G27G28G29G31
  20151594.6414   -1346724.71648  -1027767.51649                  20151595.2854
        33.7504         63.7504
  21037861.3444   -2248669.61547  -1722871.34649                  21037862.8204
        27.7504         63.7504
  23274604.1564   -4576868.59346  -3482886.13646                  23274605.7624
        12.5004         18.2504
                  -1278766.157 6   -996439.324 6  23149696.703    23149698.039
        12.250          12.250
  20921428.3984    1837454.56647   1407707.37549                  20921429.8874
        27.7504         63.7504
  22458667.1024   -4935162.01546  -3778719.82647                  22458669.5274
        18.2504         37.2504
 95  4 13 16 17 45.0000000  0  6G18G19G27G28G29G31
  20150573.6484   -1352090.47848  -1031948.62749                  20150574.1174
        33.7504         63.7504
  21034643.1644   -2265581.01348  -1736049.05449                  21034644.5354
        28.2504         63.7504
  23267606.6644   -4613639.56446  -3511538.83046                  23267608.9964
        12.5004         17.0004
                  -1282587.564 6   -999417.041 6  23148969.711    23148970.902
        12.500          12.250
  20925083.5474    1856662.73747   1422674.77549                  20925085.2114
        27.5004         63.7504
  22451857.9694   -4970942.93546  -3806601.04147                  22451860.1374
        18.0004         34.7504
 95  4 13 16 18  0.0000000  0  6G18G19G27G28G29G31
  20149569.7114   -1357365.59648  -1036059.10949                  20149570.2034
        33.5004         63.7504
  21031424.5314   -2282494.73048  -1749228.57149                  21031426.0314
        28.2504         63.7504
  23260605.9454   -4650429.61446  -3540206.37446                  23260608.3364
        12.7504         17.0004
                  -1286313.218 6  -1002320.141 6  23148260.656    23148262.000
        12.500          12.250
  20928752.3674    1875942.42847   1437697.90249                  20928753.8094
        27.5004         63.7504
  22445057.0634   -5006681.44446  -3834449.20947                  22445059.3834
        18.2504         37.2504
 95  4 13 16 18 15.0000000  0  6G18G19G27G28G29G31
  20148582.4534   -1362553.75548  -1040101.82849                  20148583.0864
        33.7504         63.7504
  21028205.1094   -2299412.91048  -1762411.56649                  21028206.5164
        28.2504         63.7504
  23253600.1254   -4687244.72446  -3568893.44446                  23253602.4924
        12.7504         17.7504
                  -1289945.642 6  -1005150.595 6  23147569.336    23147570.727
        12.500          12.250
  20932434.1334    1895289.48747   1452773.52249                  20932435.5394
        27.7504         63.7504
  22438263.6724   -5042381.12146  -3862267.12547                  22438265.8164
        18.7504         38.0004
 95  4 13 16 18 30.0000000  0  6G18G19G27G28G29G31
  20147611.1644   -1367657.14148  -1044078.49049                  20147611.8094
        33.2504         63.7504
  21024985.2894   -2316334.29248  -1775597.04949                  21024986.6844
        28.5004         63.7504
  23246589.6024   -4724084.03446  -3597599.38946                  23246591.3484
        12.7504         16.5004
                  -1293483.273 6  -1007907.185 6  23146896.242    23146897.641
        12.500          12.250
  20936129.4454    1914708.43147   1467905.16349                  20936131.0164
        27.5004         63.7504
  22431477.9774   -5078040.48246  -3890053.62347                  22431480.3674
        18.7504         36.0004
 95  4 13 16 18 45.0000000  0  6G18G19G27G28G29G31
  20146655.3524   -1372681.12648  -1047993.28349                  20146656.1844
        33.5004         63.7504
  21021765.0004   -2333256.77548  -1788783.39749                  21021766.3364
        28.2504         63.7504
  23239574.7734   -4760947.05646  -3626323.80046                  23239576.7304
        13.0004         18.2504
                  -1296925.914 6  -1010589.760 6  23146241.047    23146242.453
        12.500          12.250
  20939838.3754    1934199.63347   1483093.10449                  20939839.9454
        27.5004         63.7504
  22424700.9694   -5113655.27846  -3917805.40347                  22424703.0554
        19.5004         37.2504
 95  4 13 16 19  0.0000000  0  6G18G19G27G28G29G31
  20145713.1414   -1377631.56148  -1051850.76149                  20145713.8554
        33.2504         63.7504
  21018544.2664   -2350181.43148  -1801971.43449                  21018545.7194
        28.2504         63.7504
  23232554.8674   -4797838.01446  -3655069.98246                  23232556.4264
        13.0004         19.0004
                  -1300274.950 6  -1013199.392 6  23145603.625    23145605.047
        12.500          12.250
  20943560.7424    1953760.21347   1498335.10949                  20943562.1844
        27.7504         63.7504
  22417932.3054   -5149223.21646  -3945520.66447                  22417934.6254
        19.5004         38.7504
 95  4 13 16 19 15.0000000  0  6G18G19G27G28G29G31
  20144785.6804   -1382505.97448  -1055649.00949                  20144786.3714
        33.7504         63.7504
  21015323.7034   -2367105.81148  -1815159.25549                  21015325.2854
        28.5004         63.7504
  23225529.8524   -4834757.36546  -3683838.29046                  23225532.1024
        13.0004         15.7504
                  -1303526.844 6  -1015733.332 6  23144984.719    23144986.398
        12.250          12.250
  20947296.3444    1973390.44148   1513631.38749                  20947297.6094
        28.0004         63.7504
  22411173.9304   -5184739.01546  -3973195.29648                  22411176.1454
        19.7504         40.0004
 95  4 13 16 19 30.0000000  0  6G18G19G27G28G29G31
  20143872.2664   -1387305.99448  -1059389.28049                  20143872.7814
        33.2504         63.7504
  21012102.5084   -2384031.96548  -1828348.46249                  21012104.1374
        28.0004         63.7504
  23218498.3674   -4871706.57146  -3712629.86746                  23218500.3834
        12.5004         18.2504
                  -1306681.157 6  -1018191.237 6  23144384.555    23144386.273
        12.250          12.500
  20951044.9614    1993090.17548   1528981.82249                  20951046.2274
        28.2504         63.7504
  22404426.0634   -5220200.69946  -4000827.76547                  22404428.2194
        19.7504         38.7504
 95  4 13 16 19 45.0000000  0  6G18G19G27G28G29G31
  20142971.9694   -1392036.92348  -1063075.71949                  20142972.5084
        33.2504         63.7504
  21008881.0704   -2400961.66648  -1841540.42649                  21008882.6524
        28.2504         63.7504
  23211460.6334   -4908690.18346  -3741448.24246                  23211462.3094
        12.7504         17.7504
                  -1309741.307 6  -1020575.766 6  23143802.367    23143803.773
        12.250          12.250
  20954806.1174    2012854.50148   1544382.59049                  20954807.3484
        28.5004         63.7504
  22397687.9384   -5255608.94746  -4028418.58848                  22397690.2234
        19.7504         40.5004
 95  4 13 16 20  0.0000000  0  6G18G19G27G28G29G31
  20142085.1024   -1396697.20248  -1066707.10249                  20142085.7114
        33.2504         63.7504
  21005658.8594   -2417893.03147  -1854733.69549                  21005660.5124
        27.7504         63.7504
  23204416.4534   -4945707.76046  -3770293.09246                  23204418.2584
        13.0004         18.2504
                  -1312708.059 6  -1022887.515 6  23143237.703    23143239.238
        12.250          12.250
  20958579.3914    2032681.87448   1559832.48349                  20958580.5164
        29.2504         63.7504
  22390961.3914   -5290957.83747  -4055963.16248                  22390963.3484
        20.0004         41.2504
 95  4 13 16 20 15.0000000  0  6G18G19G27G28G29G31
  20141212.6094   -1401281.67148  -1070279.41949                  20141213.1724
        33.2504         63.7504
  21002437.5394   -2434823.47548  -1867926.24049                  21002439.2154
        28.2504         63.7504
  23197365.6804   -4982755.41946  -3799161.38246                  23197367.8364
        12.5004         18.2504
                  -1315580.235 6  -1025125.570 6  23142691.180    23142692.613
        12.250          12.250
  20962364.6724    2052573.09848   1575332.13349                  20962365.8554
        29.2504         63.7504
  22384246.6804   -5326245.03347  -4083459.65048                  22384248.7894
        20.2504         40.0004
 95  4 13 16 20 30.0000000  0  6G18G19G27G28G29G31
  20140355.5474   -1405786.14948  -1073789.39949                  20140356.2154
        33.7504         63.7504
  20999216.0864   -2451751.20347  -1881116.67349                  20999217.5984
        27.7504         63.7504
  23190311.7114   -5019828.47746  -3828049.45846                  23190314.2194
        13.2504         19.7504
                  -1318355.864 6  -1027288.394 6  23142162.773    23142164.305
        12.250          12.250
  20966162.4844    2072531.14048   1590883.84949                  20966163.5984
        29.5004         63.7504
  22377544.1564   -5361465.42447  -4110904.10147                  22377545.8094
        20.0004         36.7504
 95  4 13 16 20 45.0000000  0  6G18G19G27G28G29G31
  20139512.9144   -1410214.74648  -1077240.25349                  20139513.5234
        33.2504         63.7504
  20995994.2734   -2468680.94947  -1894308.67549                  20995995.9384
        27.7504         63.7504
  23183250.9844   -5056931.05246  -3856960.53446                  23183253.5274
        13.0004         18.2504
                  -1321039.879 6  -1029379.828 6  23141652.242    23141653.547
        12.250          12.250
  20969972.0084    2092550.46548   1606483.31649                  20969973.0044
        29.7504         63.7504
  22370854.5164   -5396620.37047  -4138297.54847                  22370856.2854
        20.2504         39.2504
 95  4 13 16 21  0.0000000  0  6G18G19G27G28G29G31
  20138684.8364   -1414566.32948  -1080631.09649                  20138685.5274
        33.2504         63.7504
  20992772.5634   -2485612.30147  -1907501.93149                  20992774.1334
        27.7504         63.7504
  23176185.3914   -5094063.70146  -3885895.04246                  23176187.3484
        13.5004         20.2504
                  -1323633.483 6  -1031400.816 6  23141158.867    23141160.152
        12.250          12.250
  20973792.2894    2112625.20248   1622125.96049                  20973793.4024
        30.0004         63.7504
  22364176.6884   -5431712.24347  -4165641.85747                  22364178.3984
        20.0004         39.2504
 95  4 13 16 21 15.0000000  0  6G18G19G27G28G29G31
  20137872.2894   -1418836.09948  -1083958.18849                  20137872.8284
        33.2504         63.7504
  20989550.9144   -2502542.09347  -1920693.97349                  20989552.5084
        27.7504         63.7504
  23169113.8054   -5131221.98946  -3914849.53546                  23169116.4184
        13.2504         19.7504
                  -1326133.662 6  -1033349.008 6  23140682.852    23140684.473
        12.250          12.500
  20977623.4694    2132757.27648   1637813.28549                  20977624.5234
        30.7504         63.7504
  22357510.8444   -5466741.61347  -4192937.45748                  22357512.5084
        20.5004         40.5004
 95  4 13 16 21 30.0000000  0  6G18G19G27G28G29G31
  20137076.2974   -1423019.18648  -1087217.73649                  20137076.9184
        33.5004         63.7504
  20986330.4774   -2519464.57547  -1933880.31749                  20986332.0354
        27.7504         63.7504
  23162039.4304   -5168400.46646  -3943819.76846                  23162041.7504
        13.2504         21.0004
                  -1328537.852 6  -1035222.402 6  23140225.477    23140226.867
        12.250          12.500
  20981465.8984    2152951.25348   1653548.84849                  20981466.9884
        30.0004         63.7504
  22350857.6564   -5501707.19747  -4220183.35548                  22350859.3554
        21.0004         41.2504
 95  4 13 16 21 45.0000000  0  6G18G19G27G28G29G31
  20136297.0004   -1427114.23448  -1090408.68249                  20136297.6684
        33.2504         63.7504
  20983112.9534   -2536373.56447  -1947056.14649                  20983114.3484
        27.5004         63.7504
  23154961.4384   -5205595.15046  -3972802.61246                  23154963.9104
        13.5004         19.7504
                  -1330843.972 6  -1037019.379 6  23139786.758    23139787.961
        12.250          12.250
  20985321.2194    2173209.86548   1669334.76949                  20985322.3914
        30.2504         63.7504
  22344215.4534   -5536608.23147  -4247378.95448                  22344217.1294
        21.0004         41.2504
 95  4 13 16 22  0.0000000  0  6G18G19G27G28G29G31
  20135534.4614   -1431122.43848  -1093531.95849                  20135535.0234
        33.7504         63.7504
  20979898.0474   -2553267.62147  -1960220.34349                  20979899.5944
        27.5004         63.7504
  23147880.2114   -5242806.54546  -4001798.48246                  23147882.8834
        13.2504         18.2504
                  -1333053.811 6  -1038741.324 6  23139366.266    23139367.449
        12.250          12.250
  20989188.4454    2193532.41548   1685170.52049                  20989189.5704
        30.2504         63.7504
  22337585.8524   -5571447.51747  -4274526.43048                  22337587.6454
        20.5004         43.2504
 95  4 13 16 22 15.0000000  0  6G18G19G27G28G29G31
  20134788.1484   -1435043.71148  -1096587.49549                  20134788.7464
        33.5004         63.7504
  20976685.7734   -2570148.00847  -1973373.88349                  20976687.2154
        27.5004         63.7504
  23140795.5634   -5280033.89546  -4030806.78646                  23140798.0594
        13.0004         19.0004
                  -1335168.028 6  -1040388.765 6  23138963.914    23138965.234
        12.250          12.250
  20993068.4844    2213921.47648   1701058.09149                  20993069.7154
        30.5004         63.7504
  22330967.3054   -5606228.38047  -4301628.39148                  22330969.0634
        20.2504         40.5004
 95  4 13 16 22 30.0000000  0  6G18G19G27G28G29G31
  20134056.3674   -1438888.63048  -1099583.53449                  20134057.1174
        33.2504         63.7504
  20973474.5634   -2587023.26747  -1986523.43149                  20973476.1094
        27.7504         63.7504
  23133707.1954   -5317286.31846  -4059834.63346                  23133709.5744
        13.2504         18.2504
                  -1337193.536 6  -1041967.081 6  23138578.477    23138579.609
        12.250          12.250
  20996959.6174    2234370.74448   1716992.58149                  20996961.0004
        29.7504         63.7504
  22324357.8524   -5640959.76346  -4328691.78748                  22324359.8554
        19.7504         40.0004
 95  4 13 16 22 45.0000000  0  6G18G19G27G28G29G31
  20133339.8834   -1442655.97348  -1102519.12849                  20133340.6214
        33.7504         63.7504
  20970265.2344   -2603889.28048  -1999665.77249                  20970266.8054
        28.2504         63.7504
  23126614.0394   -5354560.84546  -4088879.70946                  23126616.2194
        13.7504         20.2504
                  -1339124.123 6  -1043471.428 6  23138210.906    23138212.293
        12.250          12.000
  21000863.1954    2254884.33048   1732977.18749                  21000864.5084
        29.7504         63.7504
  22317759.3834   -5675635.14946  -4355711.54548                  22317761.3404
        19.7504         41.2504
 95  4 13 16 23  0.0000000  0  6G18G19G27G28G29G31
  20132636.2114   -1446351.05948  -1105398.41649                  20132637.0204
        33.0004         63.7504
  20967057.1804   -2620748.50348  -2012802.82349                  20967058.7034
        28.0004         63.7504
  23119516.0084   -5391859.81846  -4117943.84146                  23119517.8244
        13.5004         19.0004
                  -1340962.821 6  -1044904.176 6  23137861.133    23137862.313
        12.250          12.250
  21004778.8594    2275458.64148   1749009.10949                  21004780.1844
        30.2504         63.7504
  22311170.7584   -5710260.02547  -4382691.94948                  22311172.6214
        20.0004         40.0004
 95  4 13 16 23 15.0000000  0  6G18G19G27G28G29G31
  20131948.4304   -1449967.45348  -1108216.38649                  20131949.0514
        33.7504         63.7504
  20963850.9534   -2637596.45548  -2025931.09149                  20963852.4884
        28.2504         63.7504
  23112415.6094   -5429174.64846  -4147020.30446                  23112417.5664
        13.7504         18.2504
                  -1342703.176 6  -1046260.296 6  23137529.734    23137531.273
        12.000          12.000
  21008707.0004    2296103.37848   1765095.91149                  21008708.2774
        29.7504         63.7504
  22304592.4614   -5744830.49647  -4409629.96148                  22304594.4414
        20.5004         40.0004
 95  4 13 16 23 30.0000000  0  6G18G19G27G28G29G31
  20131275.0234   -1453505.10448  -1110972.99449                  20131275.8554
        33.2504         63.7504
  20960646.6254   -2654435.99548  -2039052.81049                  20960648.2194
        28.2504         63.7504
  23105312.1024   -5466504.39746  -4176108.42346                  23105313.7774
        14.2504         21.0004
                  -1344344.278 6  -1047539.080 6  23137217.500    23137218.859
        12.250          12.000
  21012649.9224    2316823.70348   1781241.60849                  21012651.3634
        29.0004         63.7504
  22298024.2974   -5779343.94447  -4436523.54648                  22298026.1484
        20.5004         43.2504
 95  4 13 16 23 45.0000000  0  6G18G19G27G28G29G31
  20130614.4614   -1456976.73148  -1113678.16149                  20130615.3754
        33.7504         63.7504
  20957440.8134   -2671282.91448  -2052180.26949                  20957442.4064
        28.2504         63.7504
  23098202.8364   -5503861.62246  -4205217.93146                  23098204.5234
        13.7504         21.5004
                  -1345899.098 6  -1048750.623 6  23136921.594    23136923.031
        12.250          12.250
  21016604.5394    2337606.50948   1797435.99749                  21016606.0394
        28.5004         63.7504
  22291465.7974   -5813810.51947  -4463380.60448                  22291467.5434
        21.0004         42.0004
 95  4 13 16 24  0.0000000  0  6G18G19G27G28G29G31
  20129968.5634   -1460370.79348  -1116322.88549                  20129969.3244
        33.5004         63.7504
  20954234.6334   -2688130.14748  -2065307.98049                  20954236.3794
        28.0004         63.7504
  23091091.2814   -5541233.91846  -4234339.19846                  23091093.2974
        14.0004         19.7504
                  -1347355.088 6  -1049885.163 6  23136644.578    23136646.059
        12.250          12.250
  21020573.6804    2358464.08948   1813688.64449                  21020575.3094
        28.2504         63.7504
  22284918.5084   -5848216.76847  -4490190.65448                  22284920.4064
        21.0004         42.5004
 95  4 13 16 24 15.0000000  0  6G18G19G27G28G29G31
  20129337.1564   -1463688.70248  -1118908.27149                  20129338.0004
        33.7504         63.7504
  20951027.4844   -2704983.52748  -2078440.47949                  20951029.2304
        28.0004         63.7504
  23083975.8914   -5578624.49446  -4263474.70146                  23083977.7894
        13.7504         21.0004
                  -1348714.392 6  -1050944.360 6  23136385.836    23136387.375
        12.250          12.250
  21024556.8524    2379395.76048   1829999.03249                  21024558.4104
        28.2504         63.7504
  22278382.5864   -5882562.60947  -4516953.62948                  22278384.4964
        20.2504         40.5004
 95  4 13 16 24 30.0000000  0  6G18G19G27G28G29G31
  20128720.3204   -1466930.43048  -1121434.29449                  20128721.1764
        33.7504         63.7504
  20947818.5084   -2721846.64447  -2091580.56549                  20947820.3014
        27.7504         63.7504
  23076857.2424   -5616033.98146  -4292624.92446                  23076859.2704
        14.0004         19.7504
                  -1349977.999 6  -1051928.987 6  23136145.563    23136146.781
        12.250          12.000
  21028553.5394    2400398.83547   1846365.06049                  21028555.2734
        27.5004         63.7504
  22271858.3524   -5916846.89446  -4543668.64048                  22271860.5314
        19.7504         42.0004
 95  4 13 16 24 45.0000000  0  6G18G19G27G28G29G31
  20128118.0394   -1470096.24748  -1123901.16549                  20128118.8834
        34.0004         63.7504
  20944607.1334   -2738722.26147  -2104730.39449                  20944608.9384
        27.7504         63.7504
  23069733.6484   -5653466.45246  -4321793.09046                  23069735.6764
        13.2504         23.0004
                  -1351148.110 6  -1052840.763 6  23135923.031    23135924.234
        12.250          12.000
  21032562.9144    2421469.35047   1862783.63349                  21032564.6254
        27.2504         63.7504
  22265345.8284   -5951070.41546  -4570336.30048                  22265347.9844
        19.7504         41.2504
 95  4 13 16 25  0.0000000  0  6G18G19G27G28G29G31
  20127530.5864   -1473182.24248  -1126305.83749                  20127531.3364
        33.5004         63.7504
  20941393.1334   -2755612.12847  -2117891.32449                  20941394.9024
        27.5004         63.7504
  23062606.3524   -5690921.16046  -4350978.54146                  23062608.7194
        13.7504         21.0004
                  -1352225.307 6  -1053680.134 6  23135717.875    23135719.465
        12.250          12.000
  21036585.5394    2442608.20847   1879255.46149                  21036587.2154
        27.0004         63.7504
  22258844.9224   -5985233.74447  -4596957.05748                  22258846.9384
        20.5004         42.5004
 95  4 13 16 25 15.0000000  0  6G18G19G27G28G29G31
  20126960.4224   -1476179.04748  -1128641.01249                  20126961.2774
        33.7504         63.7504
  20938177.5234   -2772510.47948  -2131058.86149                  20938179.3164
        28.0004         63.7504
  23055476.5394   -5728391.40846  -4380176.13046                  23055478.8484
        14.0004         19.7504
                  -1353205.276 6  -1054443.742 6  23135531.516    23135532.891
        12.250          12.000
  21040622.3674    2463821.40847   1895785.21849                  21040624.1374
        26.7504         63.7504
  22252356.2194   -6019332.62747  -4623527.60248                  22252358.2584
        20.7504         44.0004
 95  4 13 16 25 30.0000000  0  6G18G19G27G28G29G31
  20126406.4924   -1479088.58648  -1130908.18749                  20126407.3594
        33.5004         63.7504
  20934960.1024   -2789419.38748  -2144234.63349                  20934961.7194
        28.2504         63.7504
  23048341.7034   -5765883.09646  -4409390.42346                  23048343.8834
        13.7504         21.5004
                  -1354090.566 6  -1055133.578 6  23135363.055    23135364.438
        12.250          12.000
  21044672.6564    2485105.92147   1912370.53849                  21044674.3324
        26.7504         63.7504
  22245879.6884   -6053367.50747  -4650048.26848                  22245881.5744
        21.5004         42.5004
 95  4 13 16 25 45.0000000  0  6G18G19G27G28G29G31
  20125868.2814   -1481917.28148  -1133112.36949                  20125869.1724
        33.7504         63.7504
  20931740.0234   -2806340.17047  -2157419.65549                  20931741.6414
        27.7504         63.7504
  23041201.8754   -5803404.30446  -4438627.70246                  23041204.4774
        14.0004         23.5004
                  -1354886.499 6  -1055753.783 5  23135211.367    23135212.914
        12.250          11.750
  21048735.1024    2506455.44147   1929006.52549                  21048736.7544
        26.2504         63.7504
  22239414.4304   -6087341.18947  -4676521.25248                  22239416.6684
        21.0004         44.5004
 95  4 13 16 26  0.0000000  0  6G18G19G27G28G29G31
  20125346.7664   -1484658.24248  -1135248.18449                  20125347.7274
        33.5004         63.7504
  20928519.9924   -2823262.67648  -2170606.01749                  20928521.5394
        28.5004         63.7504
  23034056.7814   -5840949.01246  -4467883.31346                  23034059.1954
        13.7504         21.0004
                  -1355585.707 6  -1056298.618 6  23135078.445    23135079.934
        12.250          12.000
  21052811.5704    2527876.28847   1945698.08349                  21052813.3754
        26.7504         63.7504
  22232961.8204   -6121248.10347  -4702942.21448                  22232964.1884
        20.0004         42.5004
 95  4 13 16 26 15.0000000  0  6G18G19G27G28G29G31
  20124840.8984   -1487317.42748  -1137320.27649                  20124841.8364
        33.7504         63.7504
  20925299.5004   -2840187.36948  -2183794.08949                  20925300.8714
        28.5004         63.7504
  23026906.9454   -5878523.42746  -4497162.07146                  23026909.5004
        13.7504         21.5004
                  -1356192.003 6  -1056771.055 5  23134963.227    23134964.426
        12.500          11.750
  21056900.7504    2549366.43247   1962443.63849                  21056902.6374
        26.2504         63.7504
  22226521.5234   -6155093.29947  -4729315.06948                  22226523.9734
        20.2504         42.5004
 95  4 13 16 26 30.0000000  0  6G18G19G27G28G29G31
  20124350.7814   -1489892.11048  -1139326.52449                  20124351.7304
        33.2504         63.7504
  20922078.3914   -2857112.62748  -2196982.60049                  20922079.8094
        28.2504         63.7504
  23019750.7424   -5916130.14946  -4526465.99446                  23019752.8054
        14.0004         21.0004
                  -1356705.601 6  -1057171.260 5  23134865.680    23134866.609
        12.500          11.750
  21061003.8204    2570925.87247   1979243.19149                  21061005.6024
        27.0004         63.7504
  22220093.2194   -6188874.60447  -4755638.14348                  22220095.3524
        20.2504         41.2504
 95  4 13 16 26 45.0000000  0  6G18G19G27G28G29G31
  20123877.4384   -1492379.65848  -1141264.87349                  20123878.4804
        34.0004         63.7504
  20918858.6094   -2874033.35748  -2210167.58249                  20918860.0274
        28.5004         63.7504
  23012588.8364   -5953766.17546  -4555792.75646                  23012591.2034
        13.5004         22.2504
                  -1357123.089 6  -1057496.573 5  23134786.094    23134787.402
        12.500          11.750
  21065119.7664    2592556.31147   1996098.07349                  21065121.4534
        26.7504         63.7504
  22213677.8674   -6222587.48847  -4781907.90448                  22213679.8714
        20.2504         41.2504
 95  4 13 16 27  0.0000000  0  6G18G19G27G28G29G31
  20123419.6484   -1494784.65348  -1143138.89649                  20123420.7034
        33.2504         63.7504
  20915639.1174   -2890952.17648  -2223351.07749                  20915640.3714
        28.7504         63.7504
  23005420.8754   -5991434.90046  -4585144.99746                  23005423.5124
        13.7504         21.0004
                  -1357446.887 6  -1057748.881 5  23134724.578    23134725.684
        12.500          11.750
  21069249.2664    2614255.74547   2013006.71549                  21069251.0474
        27.0004         63.7504
  22207274.5704   -6256235.92047  -4808127.43948                  22207276.5514
        20.5004         42.0004
 95  4 13 16 27 15.0000000  0  6G18G19G27G28G29G31
  20122976.9614   -1497111.71248  -1144952.19149                  20122977.9344
        33.7504         63.7504
  20912419.9304   -2907867.52248  -2236531.86649                  20912421.3244
        28.2504         63.7504
  22998246.2194   -6029136.32046  -4614522.71146                  22998248.2934
        13.2504         18.2504
                  -1357676.909 6  -1057928.117 5  23134680.828    23134681.773
        12.500          11.750
  21073391.4774    2636022.73847   2029967.99549                  21073393.0824
        27.7504         63.7504
  22200884.4924   -6289818.11047  -4834295.37348                  22200886.1914
        21.7504         45.7504
 95  4 13 16 27 30.0000000  0  6G18G19G27G28G29G31
  20122548.8984   -1499360.66548  -1146704.62349                  20122549.8954
        33.7504         63.7504
  20909203.1484   -2924773.60248  -2249705.43249                  20909204.6724
        28.2504         63.7504
  22991065.8674   -6066869.27546  -4643924.99846                  22991068.2584
        13.0004         20.2504
                  -1357808.941 6  -1058030.999 5  23134655.563    23134656.734
        12.500          11.750
  21077546.7274    2657858.55948   2046982.91749                  21077548.1094
        28.2504         63.7504
  22194507.5634   -6323329.56047  -4860408.17648                  22194508.9804
        21.5004         45.7504
 95  4 13 16 27 45.0000000  0  6G18G19G27G28G29G31
  20122134.9224   -1501536.79248  -1148400.30749                  20122135.9064
        33.7504         63.7504
  20905986.9454   -2941674.65548  -2262875.08549                  20905988.4574
        28.2504         63.7504
  22983878.9144   -6104637.99046  -4673355.14046                  22983880.7544
        13.7504         19.0004
                  -1357845.764 6  -1058059.696 5  23134648.672    23134649.805
        12.500          11.750
  21081713.9144    2679758.10648   2064047.49649                  21081715.2504
        28.2504         63.7504
  22188143.5944   -6356772.29647  -4886467.43748                  22188145.2114
        21.5004         45.2504
 95  4 13 16 28  0.0000000  0  6G18G19G27G28G29G31
  20121735.2814   -1503637.23448  -1150037.01649                  20121736.3714
        33.7504         63.7504
  20902771.5394   -2958571.07748  -2276041.12349                  20902773.0984
        28.2504         63.7504
  22976686.0004   -6142438.59146  -4702810.14846                  22976687.9104
        14.0004         21.5004
                  -1357785.521 6  -1058012.752 5  23134660.086    23134661.344
        12.250          11.750
  21085893.7814    2701720.77548   2081161.25649                  21085894.8834
        29.2504         63.7504
  22181792.6564   -6390145.97047  -4912472.87948                  22181794.2734
        21.0004         47.2504
 95  4 13 16 28 15.0000000  0  6G18G19G27G28G29G31
  20121351.0394   -1505656.00048  -1151610.08249                  20121352.0354
        33.7504         63.7504
  20899557.4774   -2975461.68148  -2289202.63249                  20899559.1294
        28.2504         63.7504
  22969486.4774   -6180267.94346  -4732287.54646                  22969488.4224
        13.5004         20.2504
                  -1357625.680 6  -1057888.199 5  23134690.438    23134691.762
        12.500          11.750
  21090084.8204    2723746.71348   2098324.32149                  21090086.0044
        29.2504         63.7504
  22175455.8134   -6423447.11647  -4938421.80248                  22175457.7234
        21.0004         46.5004
 95  4 13 16 28 30.0000000  0  6G18G19G27G28G29G31
  20120983.4064   -1507590.63548  -1153117.58949                  20120984.4024
        33.7504         63.7504
  20896343.2584   -2992350.53847  -2302362.77649                  20896344.9344
        27.7504         63.7504
  22962282.8364   -6218128.46446  -4761789.25046                  22962285.0164
        14.0004         22.2504
                  -1357368.451 6  -1057687.760 5  23134739.438    23134740.828
        12.500          11.750
  21094287.6564    2745830.74948   2115532.65349                  21094288.4654
        30.2504         63.7504
  22169132.5554   -6456673.36847  -4964312.37248                  22169134.5354
        20.7504         48.5004
 95  4 13 16 28 45.0000000  0  6G18G19G27G28G29G31
  20120631.2424   -1509439.71848  -1154558.43249                  20120632.3324
        33.7504         63.7504
  20893129.6564   -3009239.60047  -2315523.07949                  20893131.3204
        27.7504         63.7504
  22955072.2894   -6256017.37546  -4791313.04646                  22955074.5864
        14.0004         21.0004
                  -1357014.319 6  -1057411.815 5  23134806.797    23134808.137
        12.500          11.750
  21098500.4924    2767969.61748   2132783.71949                  21098501.2074
        29.7504         63.7504
  22162824.0394   -6489825.38847  -4990145.09548                  22162826.0084
        21.0004         46.5004
 95  4 13 16 29  0.0000000  0  6G18G19G27G28G29G31
  20120295.2584   -1511206.12948  -1155934.85549                  20120296.3364
        34.0004         63.7504
  20889915.5474   -3026130.18648  -2328684.57049                  20889917.1764
        28.0004         63.7504
  22947856.9844   -6293933.32746  -4820857.93146                  22947859.1764
        14.0004         23.0004
                  -1356563.585 6  -1057060.593 5  23134892.320    23134893.797
        12.250          11.750
  21102723.6484    2790162.78948   2150077.09449                  21102724.4224
        30.0004         63.7504
  22156528.5394   -6522908.10647  -5015923.81448                  22156530.5084
        20.7504         43.2504
 95  4 13 16 29 15.0000000  0  6G18G19G27G28G29G31
  20119974.1094   -1512892.01348  -1157248.53249                  20119975.1764
        34.0004         63.7504
  20886700.7584   -3043024.54048  -2341848.99649                  20886702.4454
        28.2504         63.7504
  22940635.7274   -6331880.60646  -4850427.23646                  22940637.9654
        14.0004         22.2504
                  -1356019.588 6  -1056636.700 5  23134996.023    23134997.555
        12.250          11.750
  21106956.5234    2812406.32048   2167409.70949                  21106957.2974
        30.0004         63.7504
  22150245.6724   -6555924.83047  -5041651.12048                  22150247.6644
        21.0004         46.5004
 95  4 13 16 29 30.0000000  0  6G18G19G27G28G29G31
  20119670.1954   -1514490.00648  -1158493.72549                  20119671.3674
        34.0004         63.7504
  20883485.9454   -3059917.07948  -2355012.00849                  20883487.5744
        28.0004         63.7504
  22933409.9454   -6369853.91746  -4880016.80846                  22933412.1484
        14.0004         23.5004
                  -1355378.623 6  -1056137.249 5  23135117.805    23135119.375
        12.000          11.750
  21111199.8204    2834704.24348   2184784.70749                  21111200.5354
        30.5004         63.7504
  22143976.5474   -6588869.21147  -5067322.04948                  22143978.3754
        20.7504         45.7504
 95  4 13 16 29 45.0000000  0  6G18G19G27G28G29G31
  20119383.8054   -1515994.39248  -1159665.97449                  20119384.9064
        33.7504         63.7504
  20880272.0864   -3076806.62348  -2368172.68449                  20880273.6334
        28.2504         63.7504
  22926178.8914   -6407849.76746  -4909623.96046                  22926180.9884
        13.2504         21.0004
                  -1354639.584 6  -1055561.372 5  23135258.445    23135259.926
        12.250          11.750
  21115453.7894    2857059.15348   2202204.11149                  21115454.4454
        30.2504         63.7504
  22137721.2584   -6621742.26847  -5092937.40848                  22137723.2504
        21.2504         46.5004
 95  4 13 16 30  0.0000000  0  6G18G19G27G28G29G31
  20119115.7274   -1517404.11748  -1160764.46249                  20119116.7234
        34.0004         63.7504
  20877058.4384   -3093693.98847  -2381331.66849                  20877060.0084
        27.7504         63.7504
  22918945.0004   -6445865.66646  -4939246.71746                  22918947.3914
        13.7504         22.2504
                  -1353803.205 6  -1054909.652 5  23135417.922    23135419.297
        12.250          11.750
  21119719.2114    2879474.11148   2219670.30649                  21119719.8674
        30.0004         63.7504
  22131479.2894   -6654544.37547  -5118497.47448                  22131481.2344
        21.7504         47.2504
 95  4 13 16 30 15.0000000  0  6G18G19G27G28G29G31
  20118865.7734   -1518716.93348  -1161787.43649                  20118866.8524
        33.7504         63.7504
  20873846.1414   -3110575.51048  -2394486.09349                  20873847.5354
        28.0004         63.7504
  22911707.7344   -6483899.43546  -4968883.40946                  22911709.9614
        14.0004         23.5004
                  -1352867.691 6  -1054180.678 5  23135595.492    23135597.211
        12.000          11.750
  21123996.8444    2901953.44548   2237186.66749                  21123997.3954
        29.7504         63.7504
  22125251.5234   -6687271.24447  -5143998.90548                  22125253.5744
        21.7504         50.5004
 95  4 13 16 30 30.0000000  0  6G18G19G27G28G29G31
  20118632.8364   -1519942.22048  -1162742.20749                  20118633.8914
        34.0004         63.7504
  20870633.6484   -3127457.23447  -2407640.67849                  20870634.9964
        27.7504         63.7504
  22904465.2814   -6521957.18346  -4998538.78446                  22904467.4384
        14.0004         23.5004
                  -1351839.843 6  -1053379.759 5  23135791.133    23135792.703
        12.000          11.750
  21128285.8984    2924492.32048   2254749.42049                  21128286.5204
        29.7504         63.7504
  22119036.7974   -6719929.11247  -5169446.58048                  22119038.6604
        21.2504         49.7504
 95  4 13 16 30 44.9990000  0  6G18G19G27G28G29G31
  20118415.2144   -1521084.79248  -1163632.52449                  20118416.3044
        33.7504         63.7504
  20867421.0504   -3144338.89848  -2420795.21349                  20867422.5384
        28.0004         63.7504
  22897219.2614   -6560035.14246  -5028209.91246                  22897221.8974
        14.5004         25.0004
                  -1350719.591 6  -1052506.839 5  23136004.612    23136005.929
        12.000          11.750
  21132585.9874    2947091.66348   2272359.29149                  21132586.8084
        28.7504         63.7504
  22112835.2064   -6752518.65147  -5194841.01148                  22112837.1284
        21.2504         47.7504
 95  4 13 16 30 59.9990000  0  6G18G19G27G28G29G31
  20118213.9094   -1522142.25048  -1164456.51749                  20118214.9764
        34.0004         63.7504
  20864209.2764   -3161216.36147  -2433946.47749                  20864210.6124
        27.7504         63.7504
  22889969.7694   -6598131.65846  -5057895.49246                  22889971.7024
        15.0004         25.5004
                  -1349500.821 6  -1051557.145 5  23136236.269    23136237.944
        12.000          11.750
  21136900.5424    2969763.44448   2290025.60649                  21136901.4804
        28.2504         63.7504
  22106646.1594   -6785041.66047  -5220183.59748                  22106648.2224
        21.5004         49.2504
 95  4 13 16 31 14.9990000  0  7G 2G18G19G27G28G29G31
  24296483.7924     -46164.36945
         7.7504
  20118028.6204   -1523117.04048  -1165216.09549                  20118029.7574
        33.7504         63.7504
  20860998.3944   -3178089.41448  -2447094.30949                  20860999.8004
        28.0004         63.7504
  22882716.5194   -6636249.22846  -5087597.48847                  22882718.4174
        15.2504         26.2504
                  -1348186.305 6  -1050532.851 5  23136486.511    23136487.948
        12.000          11.750
  21141227.9564    2992503.16047   2307744.85749                  21141229.1634
        27.7504         63.7504
  22100470.2694   -6817497.41547  -5245473.78448                  22100472.3194
        21.7504         49.7504
 95  4 13 16 31 29.9990000  0  7G 2G18G19G27G28G29G31
  24287072.7534     -95625.46845
         8.0004
  20117859.3314   -1524006.16748  -1165908.92149                  20117860.2804
        34.2504         63.7504
  20857789.0734   -3194956.38248  -2460237.40049                  20857790.3044
        28.5004         63.7504
  22875459.1754   -6674386.26246  -5117314.64446                  22875460.9564
        15.0004         25.5004
                  -1346775.190 6  -1049433.283 5  23136755.206    23136756.456
        12.250          11.500
  21145567.9644    3015312.53447   2325518.38949                  21145568.8194
        27.5004         63.7504
  22094308.1444   -6849881.26847  -5270707.94048                  22094309.8194
        22.2504         47.7504
 95  4 13 16 31 44.9990000  0  7G 2G18G19G27G28G29G31
  24277661.6054    -145079.40045    -10274.34055                  24277665.6014
         8.2504          9.7504
  20117706.9724   -1524807.37248  -1166533.23749                  20117708.0034
        33.7504         63.7504
  20854580.3944   -3211817.64448  -2473376.03649                  20854581.5654
        28.2504         63.7504
  22868198.8864   -6712539.04346  -5147044.07446                  22868201.0774
        14.7504         25.0004
                  -1345265.851 6  -1048257.181 5  23137042.534    23137043.550
        12.250          11.500
  21149922.2304    3038194.37447   2343348.38949                  21149923.3434
        27.0004         63.7504
  22088158.9644   -6882193.49047  -5295886.28648                  22088160.6634
        21.7504         49.2504
 95  4 13 16 31 59.9990000  0  7G 2G18G19G27G28G29G31
  24268251.5814    -194530.85045    -48807.94945                  24268254.6634
         8.5004          9.7504
  20117569.9174   -1525528.21148  -1167094.93249                  20117570.9134
        34.2504         63.7504
  20851371.5734   -3228678.43547  -2486514.31249                  20851372.8974
        27.7504         63.7504
  22860934.6904   -6750712.80946  -5176789.85146                  22860936.9404
        15.0004         25.5004
                  -1343663.062 6  -1047008.252 5  23137347.644    23137348.577
        12.250          11.500
  21154289.6984    3061145.46147   2361232.34049                  21154291.0344
        26.7504         63.7504
  22082022.7224   -6914438.71547  -5321012.41748                  22082024.4444
        21.2504         49.2504
 95  4 13 16 32 14.9990000  0  7G 2G18G19G27G28G29G31
  24258842.7614    -243973.45545    -87334.62645                  24258846.5694
         8.5004          8.5004
  20117448.7304   -1526164.37248  -1167590.63949                  20117449.7724
        33.7504         63.7504
  20848164.0814   -3245535.40748  -2499649.61049                  20848165.5114
        28.2504         63.7504
  22853667.9014   -6788901.52546  -5206547.29247                  22853669.7064
        15.0004         26.2504
                  -1341961.285 6  -1045682.196 5  23137671.261    23137672.366
        12.250          11.500
  21158671.2304    3084170.21147   2379173.69049                  21158672.6834
        26.7504         63.7504
  22075901.3944   -6946609.27847  -5346080.36948                  22075903.1404
        21.7504         47.7504
 95  4 13 16 32 29.9990000  0  7G 2G18G19G27G28G29G31
  24249434.6364    -293411.67645   -125857.87245                  24249438.1634
         8.5004          9.7504
  20117343.1594   -1526719.53648  -1168023.23649                  20117344.2724
        34.0004         63.7504
  20844955.9804   -3262392.95748  -2512785.35949                  20844957.2694
        28.0004         63.7504
  22846397.0114   -6827109.38246  -5236319.63846                  22846398.9914
        15.2504         24.2504
                  -1340163.696 6  -1044281.477 5  23138013.417    23138014.245
        12.250          11.500
  21163065.4174    3107262.70447   2397167.82949                  21163066.7304
        26.2504         63.7504
  22069792.3004   -6978709.77447  -5371093.72648                  22069793.8704
        21.7504         48.5004
 95  4 13 16 32 44.9990000  0  7G 2G18G19G27G28G29G31
  24240027.6674    -342845.32245   -164377.56945                  24240031.2184
         8.5004          8.5004
  20117253.5814   -1527189.24448  -1168389.24449                  20117254.6594
        33.7504         63.7504
  20841748.2224   -3279250.20448  -2525920.87149                  20841749.7804
        28.2504         63.7504
  22839123.1284   -6865332.70846  -5266104.02646                  22839125.4604
        15.2504         24.2504
                  -1338267.194 6  -1042803.688 5  23138374.136    23138375.417
        12.000          11.500
  21167473.6674    3130427.19147   2415218.07149                  21167474.9804
        26.5004         63.7504
  22063697.0974   -7010740.07847  -5396052.39148                  22063698.6084
        22.0004         47.7504
 95  4 13 16 32 59.9990000  0  7G 2G18G19G27G28G29G31
  24230620.7534    -392281.48345   -202899.24345                  24230623.9994
         9.0004          9.2504
  20117179.7454   -1527577.23948  -1168691.57849                  20117180.7534
        33.5004         63.7504
  20838539.8784   -3296110.71547  -2539058.92549                  20838541.4834
        27.7504         63.7504
  22831845.1984   -6903578.67546  -5295906.07946                  22831847.3194
        15.0004         25.0004
                  -1336276.048 6  -1041252.149 5  23138753.214    23138754.495
        12.000          11.500
  21171894.3314    3153658.81547   2433320.62549                  21171895.6794
        26.2504         63.7504
  22057614.3624   -7042705.38947  -5420960.41648                  22057615.6054
        22.0004         46.5004
 95  4 13 16 33 14.9990000  0  7G 2G18G19G27G28G29G31
  24221212.3004    -441718.74045   -241421.74145                  24221216.9294
         9.0004          9.7504
  20117122.4724   -1527878.27748  -1168926.15449                  20117123.5854
        33.7504         63.7504
  20835331.8234   -3312968.82247  -2552195.10549                  20835333.4644
        27.7504         63.7504
  22824563.1364   -6941845.83146  -5325724.62346                  22824565.0344
        15.2504         25.0004
                  -1334187.765 5  -1039624.919 5  23139150.511    23139151.444
        11.750          11.500
  21176328.1514    3176959.30547   2451476.84549                  21176329.4994
        26.0004         63.7504
  22051544.3704   -7074603.63147  -5445816.18048                  22051545.8124
        21.7504         45.7504
 95  4 13 16 33 29.9990000  0  7G 2G18G19G27G28G29G31
  24211804.3314    -491160.57345   -279947.82145                  24211809.0424
         8.5004          8.5004
  20117081.2924   -1528095.32648  -1169095.28349                  20117082.4764
        33.2504         63.7504
  20832123.9254   -3329826.08447  -2565330.63049                  20832125.5544
        27.7504         63.7504
  22817276.8154   -6980137.14746  -5355562.00447                  22817278.7024
        15.5004         26.2504
                  -1332004.871 6  -1037923.965 5  23139565.948    23139566.964
        12.000          11.500
  21180775.2694    3200326.98647   2469685.41249                  21180776.6514
        26.7504         63.7504
  22045486.8084   -7106435.16347  -5470619.96348                  22045488.3314
        21.2504         45.7504
 95  4 13 16 33 44.9990000  0  7G 2G18G19G27G28G29G31
  24202396.2374    -540600.84245   -318472.68645                  24202399.5424
         9.0004          9.7504
  20117056.2534   -1528227.41048  -1169198.20949                  20117057.2724
        33.7504         63.7504
  20828916.9564   -3346680.89248  -2578464.23949                  20828918.5264
        28.5004         63.7504
  22809986.5814   -7018448.17546  -5385414.74546                  22809988.2924
        15.2504         23.0004
                  -1329723.491 6  -1036146.275 5  23140000.065    23140001.245
        12.000          11.500
  21185235.5034    3223765.77747   2487949.39949                  21185236.7924
        27.0004         63.7504
  22039442.9724   -7138196.26247  -5495368.85048                  22039444.5774
        20.7504         47.7504
 95  4 13 16 33 59.9990000  0  7G 2G18G19G27G28G29G31
  24192988.2764    -590041.30645   -356997.70345                  24192992.0734
         9.2504          9.7504
  20117046.5264   -1528277.74648  -1169237.43349                  20117047.6404
        33.2504         63.7504
  20825709.5654   -3363534.05148  -2591596.56549                  20825711.1474
        28.2504         63.7504
  22802691.9404   -7056780.18046  -5415283.82746                  22802693.6754
        15.0004         25.5004
                  -1327344.602 6  -1034292.597 5  23140452.980    23140453.968
        12.000          11.500
  21189708.6984    3247272.39647   2506266.23749                  21189709.8824
        27.2504         63.7504
  22033412.0894   -7169888.05747  -5520063.74148                  22033413.7884
        21.0004         47.2504
 95  4 13 16 34 14.9990000  0  7G 2G18G19G27G28G29G31
  24183577.8864    -639487.35745   -395527.05845                  24183581.4134
         8.2504          8.5004
  20117051.6754   -1528250.41148  -1169216.13349                  20117052.8124
        33.7504         63.7504
  20822501.7844   -3380391.15048  -2604731.96449                  20822503.2844
        28.2504         63.7504
  22795392.7374   -7095138.85346  -5445173.69647                  22795394.4604
        15.2504         26.2504
                  -1324872.512 5  -1032366.296 5  23140923.190    23140924.284
        11.750          11.500
  21194193.5034    3270839.97147   2524630.57049                  21194194.5934
        27.2504         63.7504
  22027394.2224   -7201513.80647  -5544707.16848                  22027395.8394
        22.0004         49.2504
 95  4 13 16 34 29.9990000  0  7G 2G18G19G27G28G29G31
  24174170.1054    -688930.28045   -434054.00445                  24174173.5854
         9.0004          9.7504
  20117072.9724   -1528139.02448  -1169129.34049                  20117074.2964
        33.5004         63.7504
  20819294.3864   -3397245.81948  -2617865.46649                  20819295.8044
        28.2504         63.7504
  22788088.6204   -7133519.87046  -5475080.96346                  22788090.4834
        15.0004         25.5004
                  -1322300.408 5  -1030362.069 5  23141412.651    23141413.694
        11.750          11.500
  21198690.8154    3294473.86647   2543046.59049                  21198691.7304
        27.7504         63.7504
  22021389.7764   -7233067.15547  -5569294.18848                  22021391.6284
        21.7504         48.5004
 95  4 13 16 34 44.9990000  0  7G 2G18G19G27G28G29G31
  24164761.2454    -738373.97245   -472581.51345                  24164763.9764
         9.2504         11.2504
  20117109.2924   -1527948.94048  -1168981.22349                  20117110.4644
        33.5004         63.7504
  20816087.0734   -3414101.50748  -2630999.76449                  20816088.5264
        28.7504         63.7504
  22780779.2694   -7171931.53846  -5505012.11546                  22780781.5774
        14.7504         25.5004
                  -1319634.051 5  -1028284.392 5  23141920.112    23141921.300
        11.750          11.500
  21203199.7844    3318167.74048   2561509.34049                  21203200.6754
        28.2504         63.7504
  22015398.3704   -7264553.43447  -5593828.93848                  22015400.0694
        22.0004         47.2504
 95  4 13 16 34 59.9990000  0  7G 2G18G19G27G28G29G31
  24155353.5424    -787809.60045   -511102.76045                  24155356.8584
         9.5004          9.2504
  20117161.1444   -1527674.71748  -1168767.54449                  20117162.3394
        33.5004         63.7504
  20812880.6674   -3430950.62648  -2644128.94349                  20812881.9214
        28.7504         63.7504
  22773464.4404   -7210370.22646  -5534964.32846                  22773466.5974
        14.7504         25.0004
                  -1316867.331 5  -1026128.512 5  23142446.440    23142447.776
        11.750          11.500
  21207720.5894    3341924.51348   2580021.09949                  21207721.5504
        28.2504         63.7504
  22009420.9484   -7295962.99747  -5618303.91548                  22009422.6244
        20.5004         45.7504
 95  4 13 16 35 14.9990000  0  7G 2G18G19G27G28G29G31
  24145947.8234    -837238.26545   -549618.57945                  24145950.9524
         9.7504          8.5004
  20117229.2844   -1527317.99948  -1168489.58349                  20117230.4564
        33.7504         63.7504
  20809675.2224   -3447794.60248  -2657254.11949                  20809676.4054
        28.5004         63.7504
  22766144.2454   -7248838.79046  -5564939.81747                  22766146.1324
        15.0004         26.2504
                  -1314002.759 5  -1023896.381 5  23142991.644    23142992.913
        11.750          11.500
  21212252.1594    3365738.37048   2598577.33949                  21212253.0624
        28.2504         63.7504
  22003458.7144   -7327294.98647  -5642718.43548                  22003460.6244
        21.0004         47.7504
 95  4 13 16 35 29.9990000  0  7G 2G18G19G27G28G29G31
  24136543.5424    -886657.29545   -588126.90945                  24136546.3314
        10.0004         10.5004
  20117313.4094   -1526874.92648  -1168144.33249                  20117314.5464
        33.2504         63.7504
  20806470.9484   -3464634.87448  -2670376.40349                  20806472.1554
        28.5004         63.7504
  22758818.9644   -7287334.29946  -5594936.30346                  22758821.0854
        15.0004         25.0004
                  -1311040.149 5  -1021587.859 5  23143555.480    23143556.698
        11.750          11.750
  21216795.2764    3389610.09848   2617178.68349                  21216796.0154
        28.7504         63.7504
  21997512.3314   -7358542.93947  -5667067.47448                  21997514.1474
        21.0004         45.2504
 95  4 13 16 35 44.9990000  0  7G 2G18G19G27G28G29G31
  24127142.5344    -936062.38045   -626624.35545                  24127145.1124
        10.5004         10.5004
  20117414.9404   -1526342.15948  -1167729.19149                  20117416.0544
        33.5004         63.7504
  20803266.6834   -3481472.80748  -2683496.87249                  20803267.9134
        28.5004         63.7504
  22751488.9014   -7325852.03946  -5624950.12046                  22751490.8354
        14.7504         22.2504
                  -1307976.468 5  -1019200.585 5  23144138.440    23144139.831
        11.750          11.750
  21221348.6444    3413539.93948   2635825.30349                  21221349.1364
        29.0004         63.7504
  21991583.3394   -7389700.28047  -5691345.90948                  21991585.1794
        21.0004         48.5004
 95  4 13 16 35 59.9990000  0  7G 2G18G19G27G28G29G31
  24117742.7614    -985456.83445   -665113.52045                  24117746.5934
         9.7504         11.2504
  20117533.0424   -1525720.29548  -1167244.62149                  20117534.2264
        33.0004         63.7504
  20800061.9174   -3498314.27048  -2696620.08549                  20800063.2534
        28.2504         63.7504
  22744154.4724   -7364395.46446  -5654983.94046                  22744156.4404
        15.0004         25.5004
                  -1304816.004 5  -1016737.886 5  23144739.808    23144741.198
        11.750          11.500
  21225912.8704    3437522.92948   2654513.34149                  21225913.2454
        29.5004         63.7504
  21985670.7224   -7420771.82247  -5715557.49348                  21985672.5034
        21.5004         49.2504
 95  4 13 16 36 14.9990000  0  7G 2G18G19G27G28G29G31
  24108345.3154   -1034837.99645   -703592.31245                  24108348.8434
        10.2504         11.2504
  20117669.2844   -1525004.81948  -1166687.10949                  20117670.5264
        32.7504         63.7504
  20796856.9564   -3515156.15848  -2709743.63449                  20796858.2454
        28.2504         63.7504
  22736815.4404   -7402962.54046  -5685036.19246                  22736817.5264
        14.7504         24.2504
                  -1301556.635 6  -1014198.127 5  23145360.112    23145361.374
        12.000          11.500
  21230486.7304    3461560.56648   2673243.96449                  21230487.1164
        29.2504         63.7504
  21979774.2844   -7451757.60647  -5739702.25348                  21979776.0654
        21.2504         48.5004
 95  4 13 16 36 29.9990000  0  7G 2G18G19G27G28G29G31
  24098953.6364   -1084196.78945   -742053.70745                  24098955.9214
        11.0004         11.2504
  20117824.1054   -1524190.57448  -1166052.63449                  20117825.2764
        32.5004         63.7504
  20793653.6124   -3531990.12648  -2722861.00649                  20793654.8664
        28.2504         63.7504
  22729472.8704   -7441548.99446  -5715103.53746                  22729475.2374
        15.0004         24.2504
                  -1298192.384 6  -1011576.635 5  23146000.472    23146001.542
        12.000          11.500
  21235073.2144    3485661.29548   2692023.74149                  21235073.5894
        29.5004         63.7504
  21973895.0344   -7482652.85047  -5763776.45848                  21973896.7804
        21.2504         48.5004
 95  4 13 16 36 44.9990000  0  7G 2G18G19G27G28G29G31
  24089563.8234   -1133536.59545   -780500.30446                  24089566.9874
        10.7504         12.5004
  20117997.7064   -1523279.32048  -1165342.56849                  20117998.9014
        32.5004         63.7504
  20790451.1054   -3548818.90748  -2735974.33949                  20790452.5114
        28.2504         63.7504
  22722125.6054   -7480158.14946  -5745188.58446                  22722127.7024
        14.7504         24.2504
                  -1294727.703 6  -1008876.893 5  23146659.620    23146661.097
        12.000          11.500
  21239670.7694    3509822.08048   2710850.32449                  21239671.0974
        29.5004         63.7504
  21968032.4254   -7513460.26247  -5787782.22148                  21968034.2534
        21.2504         49.2504
 95  4 13 16 36 59.9990000  0  7G 2G18G19G27G28G29G31
  24080177.4014   -1182864.58545   -818937.67146                  24080180.7534
        10.7504         13.0004
  20118188.7694   -1522274.90848  -1164559.91049                  20118190.0934
        32.5004         63.7504
  20787248.5424   -3565647.97348  -2749087.89049                  20787249.8194
        28.0004         63.7504
  22714774.2844   -7518791.52746  -5775292.49447                  22714775.9834
        15.0004         26.2504
                  -1291167.694 5  -1006102.867 5  23147337.089    23147338.464
        11.750          11.500
  21244278.8314    3534037.84148   2729719.74049                  21244279.2654
        29.0004         63.7504
  21962185.4724   -7544186.69547  -5811724.88348                  21962187.3584
        21.5004         49.7504
 95  4 13 16 37 14.9990000  0  7G 2G18G19G27G28G29G31
  24070793.6124   -1232174.12445   -857360.66845                  24070797.2224
        10.2504         10.5004
  20118398.6514   -1521171.50748  -1163700.12249                  20118399.9874
        32.5004         63.7504
  20784047.1364   -3582471.85448  -2762197.40649                  20784048.4954
        28.5004         63.7504
  22707419.5894   -7557439.70846  -5805407.95546                  22707421.3474
        15.2504         25.0004
                  -1287506.330 6  -1003249.863 5  23148033.933    23148035.015
        12.000          11.500
  21248899.2374    3558317.59148   2748639.01749                  21248899.5074
        29.0004         63.7504
  21956355.3704   -7574826.14547  -5835599.77448                  21956357.1164
        22.0004         49.7504
 95  4 13 16 37 29.9990000  0  7G 2G18G19G27G28G29G31
  24061415.1904   -1281459.62845   -895764.92446                  24061418.3084
        10.2504         13.0004
  20118628.7844   -1519962.70748  -1162758.20249                  20118630.1444
        32.5004         63.7504
  20780847.8234   -3599286.29948  -2775299.56849                  20780849.2064
        28.5004         63.7504
  22700064.0894   -7596093.29946  -5835527.62546                  22700066.2454
        15.0004         23.0004
                  -1283738.802 5  -1000314.131 5  23148750.870    23148752.116
        11.750          11.500
  21253532.9804    3582668.54148   2767613.78049                  21253533.3784
        28.2504         63.7504
  21950541.7534   -7605376.65047  -5859405.35748                  21950543.4054
        22.0004         50.5004
 95  4 13 16 37 44.9990000  0  7G 2G18G19G27G28G29G31
  24052039.1124   -1330730.53745   -934157.84245                  24052041.8904
        10.2504         11.7504
  20118876.0424   -1518663.05248  -1161745.48649                  20118877.3554
        32.5004         63.7504
  20777647.4254   -3616102.59748  -2788403.17549                  20777648.9014
        28.2504         63.7504
  22692706.1514   -7634759.95646  -5865657.47246                  22692707.8274
        15.2504         25.5004
                  -1279875.117 5   -997303.476 5  23149485.956    23149487.253
        11.750          11.500
  21258178.4644    3607080.31248   2786635.92949                  21258178.9914
        28.7504         63.7504
  21944742.7694   -7635849.89547  -5883150.73048                  21944744.5734
        21.7504         51.7504
 95  4 13 16 37 59.9990000  0  7G 2G18G19G27G28G29G31
  24042667.0734   -1379983.52945   -972536.77146                  24042669.3584
        10.5004         13.0004
  20119140.9564   -1517269.92048  -1160659.93149                  20119142.2924
        31.7504         63.7504
  20774447.7764   -3632915.27748  -2801503.95849                  20774449.3824
        28.0004         63.7504
  22685345.9954   -7673436.91546  -5895795.35746                  22685348.0114
        15.2504         25.5004
                  -1275910.198 5   -994213.933 5  23150240.526    23150241.784
        11.750          11.500
  21262835.9874    3631557.83348   2805709.31449                  21262836.5504
        28.2504         63.7504
  21938958.9644   -7666244.43647  -5906834.77648                  21938960.6284
        21.7504         49.2504
 95  4 13 16 38 14.9990000  0  7G 2G18G19G27G28G29G31
  24033297.9014   -1429218.72745  -1010901.83845                  24033301.6284
        10.2504         11.7504
  20119423.5114   -1515787.04348  -1159504.44849                  20119424.8474
        32.2504         63.7504
  20771249.9014   -3649721.89848  -2814600.02449                  20771251.6014
        28.2504         63.7504
  22677983.2374   -7712127.10446  -5925943.53547                  22677985.4644
        15.0004         26.2504
                  -1271843.888 5   -991045.388 5  23151014.378    23151015.577
        11.750          11.250
  21267507.0814    3656103.89847   2824836.10749                  21267507.7724
        27.5004         63.7504
  21933189.7144   -7696561.80847  -5930458.69648                  21933191.4604
        22.0004         51.7504
 95  4 13 16 38 29.9990000  0  7G 2G18G19G27G28G29G31
  24023931.2454   -1478438.18045  -1049254.63846                  24023934.4684
         9.7504         12.5004
  20119721.8944   -1514217.44748  -1158281.38949                  20119723.2764
        31.7504         63.7504
  20768053.2534   -3666521.24848  -2827690.42449                  20768054.9874
        28.5004         63.7504
  22670617.8864   -7750833.44846  -5956104.31446                  22670620.1594
        15.2504         25.0004
                  -1267676.636 6   -987798.181 5  23151807.362    23151808.585
        12.000          11.250
  21272191.4094    3680720.07947   2844017.53749                  21272192.1944
        27.5004         63.7504
  21927435.2844   -7726799.98647  -5954020.90848                  21927437.0654
        22.2504         53.0004
 95  4 13 16 38 44.9990000  0  7G 2G18G19G27G28G29G31
  24014566.5504   -1527651.07845  -1087602.32545                  24014569.2924
        10.2504         11.2504
  20120036.1984   -1512566.66948  -1156995.07349                  20120037.6874
        32.0004         63.7504
  20764856.2374   -3683320.52448  -2840780.76349                  20764858.0304
        28.2504         63.7504
  22663247.9954   -7789562.26146  -5986282.59247                  22663250.1284
        15.5004         28.2504
                  -1263414.637 6   -984477.148 5  23152618.440    23152619.733
        12.000          11.500
  21276887.7694    3705401.78847   2863250.02849                  21276888.6364
        26.7504         63.7504
  21921696.2764   -7756960.56847  -5977522.64749                  21921698.0114
        22.5004         53.7504
 95  4 13 16 38 59.9990000  0  7G 2G18G19G27G28G29G31
  24005203.6984   -1576852.37745  -1125940.98345                  24005206.4764
        10.2504         11.7504
  20120367.0114   -1510827.50648  -1155639.88349                  20120368.4644
        31.5004         63.7504
  20761660.4644   -3700114.26748  -2853866.79449                  20761662.2104
        28.5004         63.7504
  22655875.6444   -7828304.33746  -6016471.21047                  22655877.9404
        15.5004         27.5004
                  -1259050.252 6   -981076.333 5  23153448.901    23153450.144
        12.000          11.500
  21281598.5814    3730155.82247   2882538.87449                  21281599.3434
        27.0004         63.7504
  21915972.8704   -7787035.05747  -6000957.30849                  21915974.6984
        22.0004         53.7504
 95  4 13 16 39 14.9990000  0  7G 2G18G19G27G28G29G31
  23995842.9874   -1626042.29545  -1164270.75846                  23995845.6834
        10.0004         12.5004
  20120713.4804   -1509006.84548  -1154221.19249                  20120714.9564
        31.5004         63.7504
  20758465.8004   -3716902.71748  -2866948.69849                  20758467.5114
        28.2504         63.7504
  22648500.5344   -7867062.83946  -6046672.62647                  22648502.6554
        16.0004         28.2504
                  -1254584.625 6   -977596.626 5  23154298.737    23154299.870
        12.000          11.250
  21286322.5264    3754980.65447   2901882.89149                  21286323.6054
        27.0004         63.7504
  21910266.4484   -7817022.91447  -6024324.46048                  21910268.3354
        22.2504         51.7504
 95  4 13 16 39 29.9990000  0  7G 2G18G19G27G28G29G31
  23986484.8234   -1675220.48345  -1202591.40345                  23986487.6834
         9.5004         11.2504
  20121075.1204   -1507105.69148  -1152739.77849                  20121076.6204
        31.0004         63.7504
  20755272.0114   -3733686.60248  -2880027.04749                  20755273.6164
        28.2504         63.7504
  22641121.0974   -7905840.96846  -6076889.34347                  22641122.8784
        16.0004         28.7504
                  -1250018.132 6   -974038.328 5  23155167.901    23155168.851
        12.250          11.500
  21291060.4874    3779878.04647   2921283.44349                  21291061.5194
        27.0004         63.7504
  21904576.8704   -7846921.53647  -6047622.08149                  21904578.7694
        22.2504         54.2504
 95  4 13 16 39 44.9990000  0  7G 2G18G19G27G28G29G31
  23977127.9254   -1724388.75045  -1240904.31845                  23977131.2064
         9.2504          9.2504
  20121452.5034   -1505123.23148  -1151195.00249                  20121453.9804
        31.0004         63.7504
  20752079.3474   -3750464.86748  -2893101.01649                  20752080.8824
        28.2504         63.7504
  22633737.4724   -7944640.75646  -6107122.92547                  22633738.9014
        16.2504         28.2504
                  -1245348.951 6   -970400.006 5  23156056.417    23156057.519
        12.250          11.500
  21295812.3624    3804849.21147   2940741.48249                  21295813.4054
        26.7504         63.7504
  21898905.3864   -7876728.44747  -6070848.23749                  21898907.1674
        23.0004         55.0004
 95  4 13 16 39 59.9990000  0  7G 2G18G19G27G28G29G31
  23967773.3394   -1773547.80845  -1279210.05745                  23967776.9604
         9.2504          8.5004
  20121845.6204   -1503056.33848  -1149584.44549                  20121847.1794
        31.0004         63.7504
  20748887.9174   -3767235.63848  -2906169.14749                  20748889.3824
        28.2504         63.7504
  22626349.8314   -7983466.32546  -6137376.61747                  22626351.6364
        16.5004         29.5004
                  -1240576.065 6   -966680.878 5  23156964.534    23156965.718
        12.000          11.500
  21300578.9094    3829896.24047   2960258.63349                  21300580.0584
        27.5004         63.7504
  21893250.8944   -7906440.26247  -6094000.29949                  21893252.7104
        22.5004         54.2504
 95  4 13 16 40 14.9990000  0  7G 2G18G19G27G28G29G31
  23958420.4094   -1822702.06945  -1317512.04945                  23958423.5504
        10.0004          9.7504
  20122255.2374   -1500904.66048  -1147907.81649                  20122256.7374
        31.0004         63.7504
  20745697.8234   -3783998.87748  -2919231.40649                  20745699.1474
        28.2504         63.7504
  22618955.0344   -8022323.98046  -6167655.29147                  22618957.0854
        16.2504         30.2504
                  -1235703.214 6   -962883.857 5  23157891.925    23157892.956
        12.000          11.500
  21305359.4254    3855018.48647   2979834.39949                  21305360.6204
        27.5004         63.7504
  21887614.2064   -7936061.95547  -6117082.12848                  21887616.1634
        22.2504         53.0004
 95  4 13 16 40 29.9990000  0  7G 2G18G19G27G28G29G31
  23949067.6204   -1871846.48145  -1355806.38745                  23949071.0194
         9.0004          9.7504
  20122681.9014   -1498662.42148  -1146160.61749                  20122683.4014
        30.7504         63.7504
  20742510.5584   -3800748.25548  -2932282.86649                  20742511.9644
        28.2504         63.7504
  22611556.0114   -8061206.32846  -6197953.21047                  22611558.2614
        16.5004         29.5004
                  -1230726.375 6   -959005.807 5  23158838.823    23158839.937
        12.000          11.500
  21310155.2924    3880220.62747   2999472.41749                  21310156.4174
        27.7504         63.7504
  21881995.3944   -7965588.91547  -6140090.13849                  21881997.2224
        22.5004         54.2504
 95  4 13 16 40 44.9990000  0  7G 2G18G19G27G28G29G31
  23939717.9724   -1920977.29645  -1394090.11145                  23939722.0264
         8.7504         11.2504
  20123127.3624   -1496322.15748  -1144337.04049                  20123128.8624
        31.0004         63.7504
  20739326.1594   -3817481.90747  -2945322.06949                  20739327.5194
        27.7504         63.7504
  22604153.3314   -8100107.04746  -6228265.45247                  22604155.0894
        16.2504         28.7504
                  -1225643.347 6   -955045.006 5  23159806.190    23159807.265
        12.000          11.500
  21314966.1984    3905502.25647   3019172.38049                  21314967.3354
        27.7504         63.7504
  21876395.6054   -7995016.35547  -6163020.60448                  21876397.3154
        22.7504         52.5004
 95  4 13 16 40 59.9990000  0  7G 2G18G19G27G28G29G31
  23930372.8234   -1970090.89245  -1432360.40345                  23930375.6834
        10.0004         11.7504
  20123591.6594   -1493881.73048  -1142435.41249                  20123593.0894
        31.0004         63.7504
  20736144.4484   -3834200.67847  -2958349.68149                  20736145.7964
        27.5004         63.7504
  22596747.7924   -8139022.79746  -6258589.40247                  22596749.5854
        16.5004         27.5004
                  -1220453.265 6   -951000.790 5  23160794.081    23160794.823
        12.000          11.500
  21319791.6124    3930859.61347   3038931.34649                  21319792.9374
        27.7504         63.7504
  21870814.8624   -8024343.81247  -6185873.16449                  21870816.3974
        23.0004         55.7504
 95  4 13 16 41 14.9990000  0  7G 2G18G19G27G28G29G31
  23921030.5974   -2019185.46345  -1470615.91045                  23921034.2764
        10.2504         10.5004
  20124074.8864   -1491341.50548  -1140456.01849                  20124076.3394
        30.7504         63.7504
  20732966.1444   -3850904.66347  -2971365.76749                  20732967.6444
        27.7504         63.7504
  22589339.5894   -8177953.30946  -6288924.85247                  22589341.6404
        16.2504         30.2504
                  -1215156.434 6   -946873.391 5  23161801.683    23161802.812
        12.000          11.500
  21324631.1444    3956291.43548   3058748.33349                  21324632.5974
        28.0004         63.7504
  21865252.8944   -8053571.24347  -6208647.78048                  21865254.3944
        22.2504         53.0004
 95  4 13 16 41 29.9990000  0  7G 2G18G19G27G28G29G31
  23911690.2224   -2068267.79545  -1508861.87045                  23911694.0074
         9.5004          9.2504
  20124576.7454   -1488704.52548  -1138401.23449                  20124578.2334
        30.5004         63.7504
  20729788.9254   -3867600.80148  -2984375.74349                  20729790.3434
        28.0004         63.7504
  22581927.1054   -8216905.21446  -6319276.97547                  22581929.0974
        16.5004         28.7504
                  -1209759.373 6   -942667.886 5  23162828.761    23162829.991
        12.000          11.500
  21329483.7534    3981791.80048   3078618.73349                  21329485.0074
        28.2504         63.7504
  21859709.1444   -8082704.35547  -6231348.89948                  21859710.7264
        22.2504         50.5004
 95  4 13 16 41 44.9990000  0  7G 2G18G19G27G28G29G31
  23902354.1284   -2117325.24345  -1547088.43245                  23902358.0654
         9.2504          9.2504
  20125100.5734   -1485951.48048  -1136256.00549                  20125102.0854
        30.5004         63.7504
  20726616.0424   -3884274.61147  -2997368.31849                  20726617.5194
        27.5004         63.7504
  22574513.7224   -8255862.53746  -6349633.32247                  22574515.6084
        16.5004         29.5004
                  -1204247.570 6   -938372.978 5  23163877.753    23163878.835
        12.000          11.500
  21334351.8704    4007374.36748   3098553.18949                  21334353.0304
        29.0004         63.7504
  21854184.9484   -8111732.88347  -6253968.52248                  21854186.6834
        22.0004         51.7504
 95  4 13 16 41 59.9990000  0  7G 2G18G19G27G28G29G31
  23893022.6284   -2166366.93445  -1585302.71945                  23893026.3084
        10.0004          9.2504
  20125644.9404   -1483092.28348  -1134028.06449                  20125646.2064
        30.2504         63.7504
  20723445.4174   -3900936.38147  -3010351.51149                  20723446.8704
        27.5004         63.7504
  22567097.8474   -8294834.78846  -6380001.29247                  22567099.7104
        16.7504         28.7504
                  -1198632.189 6   -933997.353 5  23164946.237    23164947.265
        12.000          11.250
  21339233.3864    4033025.53348   3118541.10249                  21339234.5344
        28.5004         63.7504
  21848678.4334   -8140670.48847  -6276517.29148                  21848680.0504
        22.5004         53.0004
 95  4 13 16 42 14.9990000  0  7G 2G18G19G27G28G29G31
  23883693.3004   -2215394.11845  -1623505.68245                  23883696.8274
        10.2504         11.7504
  20126208.6754   -1480129.81348  -1131719.65049                  20126210.0934
        30.7504         63.7504
  20720276.4254   -3917589.94548  -3023328.30949                  20720277.9834
        28.0004         63.7504
  22559678.2614   -8333824.86746  -6410383.17347                  22559679.7724
        17.0004         30.7504
                  -1192917.048 5   -929543.997 5  23166033.784    23166034.866
        11.750          11.500
  21344126.2304    4058740.53547   3138578.75549                  21344127.4604
        27.5004         63.7504
  21843188.0814   -8169521.29647  -6298998.43349                  21843189.8274
        22.2504         55.7504
 95  4 13 16 42 29.9990000  0  7G 2G18G19G27G28G29G31
  23874367.3084   -2264401.03245  -1661692.88145                  23874370.6244
        10.0004         10.5004
  20126792.2764   -1477062.61848  -1129329.63149                  20126793.6714
        30.7504         63.7504
  20717109.4174   -3934231.66947  -3036295.88149                  20717110.9874
        27.7504         63.7504
  22552256.8474   -8372825.08446  -6440772.94147                  22552258.5344
        17.0004         30.2504
                  -1187097.755 5   -925009.486 5  23167141.050    23167142.323
        11.500          11.500
  21349032.6834    4084521.97747   3158668.17849                  21349033.9954
        27.7504         63.7504
  21837715.6124   -8198280.03547  -6321407.82448                  21837717.3004
        22.5004         51.7504
 95  4 13 16 42 44.9990000  0  7G 2G18G19G27G28G29G31
  23865046.7064   -2313376.87345  -1699855.85145                  23865049.2024
        10.0004         11.7504
  20127397.6754   -1473881.54748  -1126850.87449                  20127398.9524
        30.7504         63.7504
  20713945.7924   -3950856.35147  -3049250.17649                  20713947.2924
        27.5004         63.7504
  22544834.9334   -8411827.40046  -6471164.34847                  22544836.4214
        17.2504         31.5004
                  -1181165.214 5   -920386.720 5  23168269.831    23168271.327
        11.500          11.500
  21353952.3554    4110375.75847   3178813.96749                  21353953.6794
        27.7504         63.7504
  21832262.6124   -8226935.45147  -6343736.71848                  21832264.3354
        22.2504         50.5004
 95  4 13 16 42 59.9990000  0  7G 2G18G19G27G28G29G31
  23855731.5504   -2362333.69245  -1738003.99945                  23855734.9954
        10.7504         11.7504
  20128022.0114   -1470600.28648  -1124294.05249                  20128023.3354
        30.7504         63.7504
  20710783.5194   -3967476.42348  -3062200.87949                  20710784.9134
        28.5004         63.7504
  22537410.2064   -8450845.93446  -6501568.38547                  22537411.9644
        17.0004         32.0004
                  -1175130.620 5   -915684.444 5  23169418.292    23169419.628
        11.750          11.500
  21358883.7614    4136289.45848   3199006.44849                  21358885.0034
        28.0004         63.7504
  21826826.9404   -8255499.54647  -6365994.44148                  21826828.8514
        22.2504         51.7504
 95  4 13 16 43 14.9990000  0  7G 2G18G19G27G28G29G31
  23846418.4724   -2411273.74345  -1776139.08746                  23846422.1284
        11.0004         13.7504
  20128664.7304   -1467223.64748  -1121662.90749                  20128666.0654
        30.2504         63.7504
  20707621.7844   -3984091.13948  -3075147.40549                  20707623.2844
        28.2504         63.7504
  22529981.3394   -8489881.76746  -6531985.91547                  22529983.0974
        16.7504         30.7504
                  -1168993.829 5   -910902.532 5  23170586.222    23170587.323
        11.750          11.500
  21363827.0424    4162266.60647   3219248.37049                  21363828.2144
        27.7504         63.7504
  21821408.3864   -8283975.74947  -6388183.67848                  21821410.1904
        22.5004         53.0004
 95  4 13 16 43 29.9990000  0  7G 2G18G19G27G28G29G31
  23837109.6904   -2460196.33045  -1814260.57946                  23837113.6284
        10.7504         13.0004
  20129325.0734   -1463751.90848  -1118957.65849                  20129326.3624
        30.2504         63.7504
  20704462.0504   -4000695.34548  -3088085.74549                  20704463.4804
        28.5004         63.7504
  22522550.4724   -8528933.37546  -6562415.72247                  22522552.4174
        17.0004         32.0004
                  -1162752.786 5   -906039.380 5  23171773.737    23171775.128
        11.750          11.750
  21368783.1674    4188312.72647   3239544.03749                  21368784.4804
        27.5004         63.7504
  21816006.5734   -8312363.25947  -6410303.80749                  21816008.2844
        23.0004         54.2504
 95  4 13 16 43 44.9990000  0  7G 2G18G19G27G28G29G31
  23827801.7144   -2509103.00245  -1852369.62846                  23827805.7924
        10.2504         14.5004
  20130003.5344   -1460187.03648  -1116179.83949                  20130004.9174
        30.2504         63.7504
  20701304.0974   -4017291.11148  -3101017.50649                  20701305.5974
        28.5004         63.7504
  22515115.5654   -8568003.67446  -6592860.10147                  22515117.5934
        17.0004         32.7504
                  -1156409.874 5   -901096.849 5  23172980.847    23172982.222
        11.750          11.750
  21373752.2454    4214424.42747   3259890.80749                  21373753.4874
        27.0004         63.7504
  21810620.3704   -8340666.90547  -6432358.58349                  21810622.0464
        23.0004         54.2504
 95  4 13 16 43 59.9990000  0  7G 2G18G19G27G28G29G31
  23818499.1054   -2557991.43245  -1890464.48646                  23818502.5624
        10.7504         13.7504
  20130699.8004   -1456528.74348  -1113329.22249                  20130701.2064
        30.7504         63.7504
  20698147.7844   -4033876.73948  -3113941.37149                  20698149.1554
        28.2504         63.7504
  22507677.8474   -8607089.71946  -6623316.74647                  22507679.7224
        17.0004         32.0004
                  -1149963.867 5   -896073.985 5  23174207.526    23174208.687
        11.750          11.750
  21378733.7614    4240602.46047   3280289.26449                  21378735.0034
        26.7504         63.7504
  21805250.7844   -8368883.71547  -6454345.69548                  21805252.3784
        22.5004         53.0004
 95  4 13 16 44 14.9990000  0  7G 2G18G19G27G28G29G31
  23809199.4804   -2606861.39545  -1928544.95845                  23809202.8194
        10.7504         11.2504
  20131413.1834   -1452779.38748  -1110407.64749                  20131414.5654
        30.2504         63.7504
  20694993.2694   -4050453.70148  -3126858.48149                  20694994.7334
        28.2504         63.7504
  22500236.8004   -8646192.14946  -6653786.16847                  22500238.3584
        17.2504         34.7504
                  -1143415.130 5   -890971.075 5  23175453.526    23175455.038
        11.750          11.750
  21383728.1204    4266848.00647   3300740.32849                  21383729.1984
        26.7504         63.7504
  21799899.0894   -8397007.25747  -6476260.13248                  21799900.5424
        22.5004         52.5004
 95  4 13 16 44 29.9990000  0  7G 2G18G19G27G28G29G31
  23799903.5424   -2655712.68545  -1966610.87246                  23799907.8194
        10.7504         14.5004
  20132143.9564   -1448939.69348  -1107415.68149                  20132145.3624
        30.7504         63.7504
  20691840.5264   -4067020.18748  -3139767.42749                  20691841.8744
        28.2504         63.7504
  22492792.8784   -8685309.22146  -6684266.99447                  22492794.9054
        17.0004         31.5004
                  -1136763.042 5   -885787.624 5  23176719.644    23176720.897
        11.750          11.500
  21388735.4724    4293162.07547   3321244.78449                  21388736.6794
        26.5004         63.7504
  21794565.8314   -8425032.86047  -6498098.25748                  21794567.4484
        22.2504         49.7504
 95  4 13 16 44 44.9990000  0  7G 2G18G19G27G28G29G31
  23790610.3004   -2704545.63445  -2004662.49246                  23790613.8394
        10.7504         14.5004
  20132892.1674   -1445008.22448  -1104352.20449                  20132893.5264
        30.7504         63.7504
  20688690.5814   -4083573.91348  -3152666.43249                  20688691.9994
        28.2504         63.7504
  22485347.1594   -8724437.45846  -6714756.52347                  22485349.2224
        17.2504         32.7504
                  -1130006.774 5   -880523.003 5  23178005.245    23178006.671
        11.750          11.750
  21393755.9094    4319545.44247   3341803.24249                  21393756.9874
        26.0004         63.7504
  21789251.5194   -8452960.49547  -6519860.03648                  21789253.0074
        23.0004         51.7504
 95  4 13 16 44 59.9990000  0  7G 2G18G19G27G28G29G31
  23781322.0584   -2753357.10645  -2042697.38545                  23781325.6904
        11.0004         11.7504
  20133658.7534   -1440979.52548  -1101212.96249                  20133659.9134
        30.7504         63.7504
  20685543.9174   -4100110.28248  -3165551.91549                  20685545.2654
        28.5004         63.7504
  22477900.0114   -8763572.36846  -6745251.25747                  22477901.9094
        17.2504         32.0004
                  -1123142.797 5   -875174.445 5  23179311.315    23179312.792
        11.750          11.500
  21398790.7614    4346003.26347   3362419.70949                  21398791.9684
        26.2504         63.7504
  21783956.6284   -8480785.28747  -6541541.68048                  21783958.4094
        22.7504         51.7504
 95  4 13 16 45 14.9990000  0  7G 2G18G19G27G28G29G31
  23772036.1054   -2802152.05045  -2080719.40546                  23772039.8904
        10.2504         12.5004
  20134443.3624   -1436856.33448  -1098000.08849                  20134444.4874
        30.7504         63.7504
  20682400.1904   -4116629.60848  -3178424.11349                  20682401.5734
        28.2504         63.7504
  22470451.6834   -8802712.39046  -6775749.97047                  22470453.5584
        17.0004         32.7504
                  -1116173.752 5   -869744.020 5  23180637.456    23180639.116
        11.750          11.500
  21403839.4644    4372533.97047   3383092.97849                  21403840.7304
        25.5004         63.7504
  21778680.8314   -8508508.73947  -6563144.35548                  21778682.5894
        22.5004         51.7504
 95  4 13 16 45 29.9990000  0  7G 2G18G19G27G28G29G31
  23762754.1204   -2850929.02345  -2118727.40246                  23762758.1634
        10.2504         13.7504
  20135246.6674   -1432636.12648  -1094711.61649                  20135247.8154
        30.7504         63.7504
  20679259.7454   -4133132.20848  -3191283.28049                  20679261.1514
        28.2504         63.7504
  22463002.9014   -8841857.73046  -6806252.81447                  22463004.8584
        17.0004         30.2504
                  -1109100.492 5   -864232.389 5  23181983.589    23181985.093
        11.750          11.500
  21408901.8314    4399137.05047   3403822.63849                  21408902.8274
        26.0004         63.5004
  21773424.8624   -8536129.29547  -6584666.85348                  21773426.4214
        22.2504         53.0004
 95  4 13 16 45 44.9990000  0  7G 2G18G19G27G28G29G31
  23753475.8234   -2899689.87945  -2156722.85746                  23753479.0814
        10.7504         13.7504
  20136068.5114   -1428317.46348  -1091346.42649                  20136069.6474
        31.0004         63.7504
  20676121.8864   -4149622.82248  -3204133.10649                  20676123.3044
        28.0004         63.7504
  22455552.2224   -8881011.68446  -6836762.38647                  22455554.2844
        17.2504         31.5004
                  -1101925.754 5   -858641.681 5  23183348.917    23183350.272
        11.750          11.500
  21413976.9484    4425807.43847   3424604.74949                  21413978.0384
        25.7504         63.7504
  21768188.6364   -8563646.42247  -6606108.75448                  21768190.3234
        22.5004         52.5004
 95  4 13 16 45 59.9990000  0  7G 2G18G19G27G28G29G31
  23744199.8314   -2948432.59745  -2194704.18246                  23744203.4764
        10.5004         13.7504
  20136909.6364   -1423896.26748  -1087901.34149                  20136910.7024
        31.0004         63.7504
  20672986.4014   -4166100.47648  -3216972.83249                  20672987.9484
        28.2504         63.7504
  22448099.7614   -8920172.75746  -6867277.49747                  22448101.2144
        16.7504         30.2504
                  -1094647.316 5   -852970.171 5  23184733.847    23184735.382
        11.500          11.500
  21419065.4334    4452546.99647   3445440.75749                  21419066.6514
        25.7504         63.7504
  21762972.4954   -8591057.54047  -6627468.05848                  21762973.9134
        22.7504         51.7504
 95  4 13 16 46 14.9990000  0  7G 2G18G19G27G28G29G31
  23734927.4094   -2997161.76945  -2232674.93646                  23734931.5464
        11.0004         13.7504
  20137769.6834   -1419377.38748  -1084380.13849                  20137770.8084
        31.2504         63.7504
  20669852.7064   -4182567.32648  -3229804.14149                  20669854.2654
        28.2504         63.7504
  22440645.2224   -8959346.20446  -6897802.25447                  22440647.0264
        17.2504         34.0004
                  -1087269.099 5   -847220.909 5  23186137.894    23186139.202
        11.500          11.500
  21424166.5814    4479353.05247   3466328.57849                  21424167.7764
        26.2504         63.7504
  21757776.1754   -8618365.89547  -6648747.28449                  21757777.5584
        23.2504         53.7504
 95  4 13 16 46 29.9990000  0  7G 2G18G19G27G28G29G31
  23725657.8234   -3045874.52445  -2270632.90446                  23725661.2334
        10.7504         13.7504
  20138648.3234   -1414759.68648  -1080781.93049                  20138649.3554
        31.2504         63.7504
  20666722.0114   -4199020.03848  -3242624.43249                  20666723.4054
        28.2504         63.7504
  22433189.2694   -8998530.99946  -6928335.84747                  22433190.9914
        17.7504         30.2504
                  -1079788.845 5   -841392.141 5  23187561.159    23187562.741
        11.500          11.500
  21429280.1904    4506225.82147   3487268.38549                  21429281.3044
        26.0004         63.7504
  21752599.0734   -8645571.43347  -6669946.39348                  21752600.5034
        23.0004         53.0004
 95  4 13 16 46 44.9990000  0  7G 2G18G19G27G28G29G31
  23716391.3004   -3094569.94245  -2308577.36746                  23716394.4524
        10.7504         15.7504
  20139546.3314   -1410040.55448  -1077104.68749                  20139547.3744
        31.2504         63.7504
  20663594.2924   -4215456.18548  -3255431.81849                  20663595.6754
        28.2504         63.7504
  22425730.6674   -9037723.96546  -6958875.82547                  22425732.1204
        17.7504         32.0004
                  -1072204.205 5   -835482.030 5  23189004.698    23189006.105
        11.500          11.500
  21434406.8624    4533165.27447   3508260.15249                  21434408.0344
        26.2504         63.7504
  21747440.9564   -8672676.48447  -6691067.19448                  21747442.3624
        22.5004         51.7504
 95  4 13 16 46 59.9990000  0  7G 2G18G19G27G28G29G31
  23707128.2374   -3143250.58545  -2346510.30746                  23707131.9054
        11.0004         12.5004
  20140463.3784   -1405222.19048  -1073350.12049                  20140464.3154
        31.5004         63.7504
  20660468.8784   -4231880.63848  -3268230.09049                  20660470.3314
        28.5004         63.7504
  22418270.3314   -9076930.15646  -6989426.08847                  22418271.5974
        17.7504         31.5004
                  -1064517.222 5   -829492.174 5  23190467.573    23190468.815
        11.750          11.500
  21439545.4334    4560170.53247   3529303.19549                  21439546.6284
        26.0004         63.7504
  21742301.3394   -8699685.26947  -6712112.98848                  21742303.1204
        22.7504         51.7504
 95  4 13 16 47 14.9990000  0  7G 2G18G19G27G28G29G31
  23697866.1514   -3191918.57045  -2384433.38646                  23697869.3274
        11.0004         13.0004
  20141397.9334   -1400310.20448  -1069522.60249                  20141398.9644
        31.2504         63.7504
  20657345.1444   -4248297.42648  -3281022.38849                  20657346.5854
        29.0004         63.7504
  22410805.3864   -9116156.86546  -7019992.34947                  22410806.8514
        17.5004         35.2504
                  -1056731.126 5   -823425.084 5  23191949.011    23191950.542
        11.750          11.500
  21444696.4874    4587237.86247   3550394.60449                  21444697.7184
        26.2504         63.7504
  21737179.7924   -8726598.67947  -6733084.46048                  21737181.5034
        23.2504         53.0004
 95  4 13 16 47 29.9990000  0  7G 2G18G19G27G28G29G31
  23688608.3624   -3240567.02645  -2422341.25046                  23688612.3704
        11.0004         14.5004
  20142350.9174   -1395303.76748  -1065621.48449                  20142351.7964
        31.5004         63.7504
  20654222.7844   -4264705.06748  -3293807.56249                  20654224.1904
        28.5004         63.7504
  22403336.8234   -9155404.19246  -7050574.66347                  22403338.6284
        17.5004         34.7504
                  -1048842.342 5   -817277.979 5  23193450.245    23193451.827
        11.750          11.500
  21449859.3784    4614369.17247   3571535.87549                  21449860.5624
        26.7504         63.7504
  21732076.8004   -8753415.23447  -6753980.46748                  21732078.4404
        23.0004         51.7504
 95  4 13 16 47 44.9990000  0  7G 2G18G19G27G28G29G31
  23679355.6674   -3289189.47645  -2460228.85446                  23679358.9834
        10.7504         14.5004
  20143322.3394   -1390199.14048  -1061643.85149                  20143323.1474
        32.2504         63.7504
  20651102.7534   -4281100.13648  -3306582.94149                  20651104.1124
        28.5004         63.7504
  22395864.7454   -9194669.75446  -7081171.19847                  22395866.5624
        17.0004         33.5004
                  -1040845.719 5   -811046.844 5  23194972.073    23194973.507
        11.750          11.250
  21455035.7144    4641570.57547   3592731.75849                  21455037.0264
        27.0004         63.7504
  21726993.3784   -8780128.76047  -6774796.19149                  21726994.9954
        23.0004         54.2504
 95  4 13 16 47 59.9990000  0  7G 2G18G19G27G28G29G31
  23670107.0344   -3337793.27145  -2498101.90846                  23670109.8004
        11.0004         15.0004
  20144310.6054   -1385004.34848  -1057595.96549                  20144311.4484
        31.5004         63.7504
  20647984.4254   -4297488.11248  -3319352.78949                  20647985.7494
        28.5004         63.7504
  22388387.6364   -9233960.56446  -7111787.39747                  22388389.8154
        17.2504         32.7504
                  -1032747.759 5   -804736.750 5  23196512.972    23196514.456
        11.750          11.250
  21460223.8864    4668834.27847   3613976.18649                  21460225.1984
        27.0004         63.7504
  21721928.3554   -8806745.75847  -6795536.69549                  21721930.1124
        22.7504         53.7504
 95  4 13 16 48 14.9990000  0  7G 2G18G19G27G28G29G31
  23660861.6514   -3386378.42245  -2535960.45346                  23660865.0734
        11.5004         14.5004
  20145316.0344   -1379721.74148  -1053479.65449                  20145316.8664
        32.0004         63.7504
  20644867.4804   -4313868.16648  -3332116.46849                  20644868.8394
        28.7504         63.7504
  22380905.9174   -9273276.74846  -7142423.37547                  22380907.9684
        17.2504         33.5004
                  -1024548.823 5   -798347.968 5  23198073.237    23198074.647
        11.750          11.000
  21465423.8394    4696160.25247   3635269.13549                  21465425.1634
        26.7504         63.7504
  21716881.4954   -8833266.04447  -6816201.83749                  21716883.2884
        22.2504         55.0004
 95  4 13 16 48 29.9990000  0  7G 2G18G19G27G28G29G31
  23651620.4254   -3434946.64946  -2573805.80446                  23651622.8044
        12.2504         13.7504
  20146337.3154   -1374355.28348  -1049297.99449                  20146338.1124
        32.2504         63.7504
  20641750.9334   -4330245.61948  -3344878.11449                  20641752.2454
        28.5004         63.7504
  22373419.8704   -9312619.30346  -7173079.90047                  22373421.8624
        17.7504         34.0004
                  -1016251.613 5   -791882.605 5  23199652.058    23199653.483
        11.500          11.000
  21470634.5114    4723543.34947   3656606.60149                  21470636.0694
        26.5004         63.7504
  21711853.7534   -8859689.38147  -6836791.43649                  21711855.4644
        23.2504         54.2504
 95  4 13 16 48 44.9990000  0  7G 2G18G19G27G28G29G31
  23642381.9014   -3483490.81345  -2611632.44046                  23642384.6794
        11.7504         15.0004
  20147375.6984   -1368898.69648  -1045046.11349                  20147376.6244
        32.2504         63.7504
  20638635.1054   -4346617.65048  -3357635.54249                  20638636.4054
        28.0004         63.7504
  22365929.2764   -9351981.56946  -7203751.79247                  22365931.1754
        17.7504         34.7504
                  -1007851.401 5   -785336.987 5  23201250.425    23201252.245
        11.500          11.000
  21475857.2614    4750987.51847   3677991.64449                  21475858.5734
        27.0004         63.7504
  21706844.9254   -8886009.69347  -6857300.76049                  21706846.4834
        23.2504         53.7504
 95  4 13 16 48 59.9990000  0  7G 2G18G19G27G28G29G31
  23633148.7454   -3532011.22745  -2649440.52846                  23633151.7804
        11.5004         13.7504
  20148431.5194   -1363350.87448  -1040723.13949                  20148432.3154
        32.2504         63.7504
  20635520.3084   -4362985.30048  -3370389.55349                  20635521.7144
        28.0004         63.7504
  22358434.5194   -9391365.92346  -7234440.88147                  22358436.5114
        17.7504         33.5004
                   -999349.423 5   -778712.068 5  23202868.378    23202870.026
        11.250          11.000
  21481091.6444    4778494.57947   3699425.70449                  21481093.0624
        26.7504         63.7504
  21701856.0654   -8912228.39147  -6877730.90648                  21701857.6364
        23.2504         51.7504
 95  4 13 16 49 14.9990000  0  7G 2G18G19G27G28G29G31
  23623920.3784   -3580506.98046  -2687229.39846                  23623923.2844
        12.0004         14.5004
  20149504.0424   -1357714.38348  -1036331.06749                  20149504.8864
        32.7504         63.7504
  20632406.4014   -4379350.07947  -3383141.32549                  20632407.8554
        27.7504         63.7504
  22350935.5974   -9430773.35146  -7265147.96447                  22350937.4484
        17.7504         33.5004
                   -990747.561 5   -772009.321 5  23204505.190    23204506.706
        11.250          11.000
  21486337.6674    4806062.21747   3720906.96849                  21486339.0504
        26.2504         63.7504
  21696886.1124   -8938344.58247  -6898081.17348                  21696887.6714
        23.2504         51.7504
 95  4 13 16 49 29.9990000  0  7G 2G18G19G27G28G29G31
  23614697.6444   -3628972.98745  -2724995.11246                  23614700.6324
        11.7504         13.7504
  20150594.8394   -1351982.99748  -1031865.05449                  20150595.6944
        32.7504         63.7504
  20629293.8704   -4395706.78548  -3395886.80649                  20629295.3584
        28.2504         63.7504
  22343434.2764   -9470194.50646  -7295865.73347                  22343436.0814
        17.7504         33.5004
                   -982041.553 5   -765225.428 5  23206161.862    23206163.413
        11.000          11.000
  21491595.1514    4833690.70047   3742435.64149                  21491596.4174
        26.2504         63.7504
  21691936.7614   -8964353.30447  -6918347.70049                  21691938.1444
        23.0004         53.7504
 95  4 13 16 49 44.9990000  0  7G 2G18G19G27G28G29G31
  23605480.2614   -3677407.00045  -2762735.88846                  23605483.2844
        11.0004         13.0004
  20151704.9014   -1346149.06348  -1027319.13849                  20151705.6404
        33.0004         63.7504
  20626183.7764   -4412050.24748  -3408621.97049                  20626185.3354
        28.0004         63.7504
  22335931.3154   -9509622.58546  -7326588.90847                  22335933.0734
        18.0004         35.2504
                   -973228.276 5   -758357.936 5  23207838.987    23207840.491
        11.000          11.000
  21496864.9334    4861384.23447   3764015.00049                  21496866.3514
        26.0004         63.7504
  21687008.4954   -8990252.29347  -6938528.71949                  21687009.9484
        23.7504         56.2504
 95  4 13 16 49 59.9990000  0  7G 2G18G19G27G28G29G31
  23596268.1904   -3725818.01345  -2800458.72146                  23596271.8584
        11.5004         13.7504
  20152833.7064   -1340217.79548  -1022697.36949                  20152834.4804
        33.0004         63.7504
  20623075.5504   -4428384.35948  -3421349.84849                  20623077.0974
        28.2504         63.7504
  22328426.2844   -9549060.86846  -7357320.03347                  22328428.0424
        18.0004         33.5004
                   -964314.081 5   -751411.811 5  23209535.355    23209536.733
        11.000          10.750
  21502146.3864    4889138.38647   3785641.59849                  21502147.7104
        25.7504         63.7504
  21682099.6834   -9016048.62547  -6958629.74749                  21682101.0424
        23.7504         56.2504
 95  4 13 16 50 14.9990000  0  7G 2G18G19G27G28G29G31
  23587061.1834   -3774202.40745  -2838160.83146                  23587064.1474
        11.7504         15.0004
  20153981.6514   -1334185.11548  -1017996.58349                  20153982.4834
        33.0004         63.7504
  20619969.6444   -4444706.40248  -3434068.31649                  20619971.0974
        28.2504         63.7504
  22320920.5194   -9588505.27146  -7388055.91747                  22320922.1944
        18.0004         32.7504
                   -955296.693 5   -744385.281 5  23211251.198    23211252.769
        11.250          11.000
  21507439.4874    4916955.13447   3807316.96849                  21507440.9174
        25.2504         63.7504
  21677210.2924   -9041742.03547  -6978650.57748                  21677211.7334
        23.0004         53.0004
 95  4 13 16 50 29.9990000  0  7G 2G18G19G27G28G29G31
  23577858.6754   -3822560.13245  -2875842.16946                  23577861.6984
        11.5004         13.7504
  20155148.5814   -1328053.04048  -1013218.34549                  20155149.3784
        33.0004         63.7504
  20616864.7534   -4461021.76748  -3446781.58749                  20616866.2064
        28.2504         63.7504
  22313412.9954   -9627956.74846  -7418797.32047                  22313414.9404
        18.0004         33.5004
                   -946178.516 5   -737280.213 5  23212986.730    23212988.077
        11.500          11.000
  21512744.4014    4944831.68347   3829038.93849                  21512745.7964
        25.2504         63.7504
  21672339.3234   -9067336.93447  -6998594.63849                  21672340.9054
        23.5004         56.2504
 95  4 13 16 50 44.9990000  0  7G 2G18G19G27G28G29G31
  23568662.0974   -3870887.94645  -2913500.18746                  23568665.7654
        11.0004         14.5004
  20156334.6444   -1321820.12948  -1008361.53149                  20156335.4764
        33.0004         63.7504
  20613762.0814   -4477326.34348  -3459486.44749                  20613763.4874
        28.2504         63.7504
  22305904.2764   -9667413.80946  -7449543.07247                  22305906.2104
        17.7504         35.2504
                   -936958.275 5   -730095.614 5  23214741.245    23214742.675
        11.500          11.000
  21518061.3704    4972770.70447   3850809.58849                  21518062.5774
        25.5004         63.7504
  21667487.5814   -9092833.20147  -7018461.85349                  21667489.1054
        23.5004         55.7504
 95  4 13 16 50 59.9990000  0  7G 2G18G19G27G28G29G31
  23559470.4874   -3919192.67645  -2951140.20846                  23559474.0034
        11.0004         14.5004
  20157538.7924   -1315491.81348  -1003430.38049                  20157539.7764
        32.7504         63.7504
  20610660.9954   -4493623.05448  -3472185.17849                  20610662.4484
        28.2504         63.7504
  22298393.6984   -9706882.54146  -7480297.92247                  22298395.6204
        17.7504         35.2504
                   -927641.877 5   -722836.086 5  23216514.112    23216515.433
        11.500          11.000
  21523388.8554    5000768.07447   3872625.70949                  21523390.1324
        25.2504         63.5004
  21662653.5734   -9118238.17147  -7038257.92249                  21662655.0154
        24.0004         59.0004
 95  4 13 16 51 14.9990000  0  7G 2G18G19G27G28G29G31
  23550283.0424   -3967474.82345  -2988762.65246                  23550286.2064
        11.5004         14.5004
  20158761.3314   -1309068.78648   -998425.42649                  20158762.2804
        33.2504         63.7504
  20607561.9174   -4509908.91348  -3484875.45749                  20607563.3234
        28.2504         63.7504
  22290881.3704   -9746360.27746  -7511059.78847                  22290883.0584
        17.7504         34.7504
                   -918226.554 5   -715499.474 5  23218305.995    23218307.206
        11.500          11.000
  21528728.9564    5028829.58747   3894491.80849                  21528730.2454
        25.0004         61.5004
  21657837.1514   -9143547.85047  -7057979.74449                  21657838.5934
        23.5004         56.2504
 95  4 13 16 51 29.9990000  0  7G 2G18G19G27G28G29G31
  23541099.0894   -4015732.26345  -3026365.84446                  23541102.6874
        10.7504         13.0004
  20160001.7534   -1302549.26448   -993345.27949                  20160002.7614
        32.7504         63.7504
  20604465.2374   -4526182.08748  -3497555.85149                  20604466.5974
        28.7504         63.7504
  22283367.8474   -9785844.07246  -7541826.37047                  22283369.7224
        18.0004         34.0004
                   -908709.261 5   -708083.406 5  23220116.894    23220118.355
        11.500          10.750
  21534081.4254    5056957.82947   3916409.90649                  21534082.7264
        24.7504         63.0004
  21653040.1754   -9168756.35947  -7077622.72849                  21653041.7924
        23.7504         56.2504
 95  4 13 16 51 44.9990000  0  7G 2G18G19G27G28G29G31
  23531920.9334   -4063966.53645  -3063950.95046                  23531924.6474
        11.0004         14.5004
  20161261.0734   -1295932.38748   -988189.27649                  20161262.1404
        33.2504         63.7504
  20601370.5974   -4542443.35748  -3510226.96649                  20601371.8864
        28.2504         63.7504
  22275852.3314   -9825338.04246  -7572600.89047                  22275854.4524
        18.0004         33.5004
                   -899090.327 5   -700588.135 5  23221947.292    23221948.515
        11.250          10.750
  21539447.4874    5085156.28847   3938382.71949                  21539448.9524
        24.7504         61.0004
  21648262.0504   -9193863.55747  -7097186.77049                  21648263.9724
        23.0004         55.7504
 95  4 13 16 51 59.9990000  0  7G 2G18G19G27G28G29G31
  23522747.2144   -4112175.28745  -3101516.20846                  23522750.6124
        11.2504         15.0004
  20162538.5894   -1289217.70548   -982957.05949                  20162539.6554
        32.5004         63.7504
  20598279.3624   -4558689.88948  -3522886.60149                  20598280.6284
        28.7504         63.7504
  22268334.9644   -9864843.52346  -7603384.36247                  22268336.8974
        18.0004         36.0004
                   -889367.291 5   -693011.742 5  23223797.542    23223798.952
        11.000          10.750
  21544828.1364    5113430.97947   3960414.93049                  21544829.3664
        25.0004         60.2504
  21643504.4484   -9218866.82647  -7116669.82749                  21643506.2654
        23.7504         57.0004
 95  4 13 16 52 14.9990000  0  7G 2G18G19G27G28G29G31
  23513577.5734   -4160359.65245  -3139062.43746                  23513581.4404
        11.0004         13.0004
  20163834.3784   -1282407.79448   -977650.63649                  20163835.5854
        32.2504         63.7504
  20595190.3314   -4574924.36748  -3535536.83949                  20595191.5384
        28.7504         63.7504
  22260814.6364   -9904362.56546  -7634178.42247                  22260816.6054
        18.0004         34.7504
                   -879540.758 5   -685354.708 5  23225667.425    23225668.874
        11.000          10.500
  21550222.3554    5141778.38947   3982503.81649                  21550223.5624
        24.7504         59.5004
  21638766.7374   -9243764.07447  -7136070.27449                  21638768.3664
        24.2504         57.7504
 95  4 13 16 52 29.9990000  0  7G 2G18G19G27G28G29G31
  23504411.9954   -4208526.68045  -3176595.16246                  23504415.9214
        11.5004         16.5004
  20165147.4254   -1275508.00048   -972274.17849                  20165148.6904
        32.2504         63.7504
  20592101.2694   -4591155.27248  -3548184.29649                  20592102.5584
        28.5004         63.7504
  22253290.9254   -9943900.61946  -7664987.28147                  22253292.9764
        18.2504         37.2504
                   -869616.267 5   -677621.340 5  23227555.839    23227557.464
        11.000          10.500
  21555629.1364    5170191.93947   4004644.22949                  21555630.3904
        25.0004         57.7504
  21634048.4724   -9268558.60947  -7155390.69149                  21634049.9834
        24.2504         57.0004
 95  4 13 16 52 44.9990000  0  7G 2G18G19G27G28G29G31
  23495249.5894   -4256675.14545  -3214113.43146                  23495253.5854
        11.5004         13.7504
  20166477.9954   -1268516.31548   -966826.11649                  20166479.0734
        32.5004         63.7504
  20589014.6054   -4607376.65148  -3560824.33049                  20589015.9994
        28.5004         63.7504
  22245763.7534   -9983455.31246  -7695809.11647                  22245765.7574
        18.2504         37.2504
                   -859590.264 5   -669808.873 5  23229464.011    23229465.276
        11.000          10.500
  21561049.5894    5198676.06147   4026839.64249                  21561050.5974
        25.0004         59.5004
  21629350.4014   -9293245.70847  -7174627.38149                  21629352.0304
        23.5004         57.7504
 95  4 13 16 52 59.9990000  0  7G 2G18G19G27G28G29G31
  23486089.6204   -4304809.51745  -3251620.71246                  23486093.0544
        11.5004         17.0004
  20167826.0194   -1261432.50148   -961306.26349                  20167827.2614
        31.7504         63.7504
  20585929.8474   -4623587.06848  -3573455.82349                  20585931.2184
        29.0004         63.7504
  22238233.4874  -10023027.76446  -7726644.77847                  22238235.4094
        18.2504         37.2504
                   -849463.704 5   -661918.053 5  23231390.745    23231392.378
        11.000          10.500
  21566483.2224    5227229.50047   4049089.06849                  21566484.2884
        25.2504         57.7504
  21624673.6754   -9317823.28447  -7193778.73349                  21624675.5854
        23.7504         60.2504
 95  4 13 16 53 14.9990000  0  7G 2G18G19G27G28G29G31
  23476931.7064   -4352936.07446  -3289121.90846                  23476934.4724
        12.0004         18.2504
  20169190.9334   -1254259.51248   -955716.92749                  20169192.2574
        31.7504         63.7504
  20582846.2614   -4639791.74148  -3586082.84049                  20582847.4914
        28.7504         63.7504
  22230698.5584  -10062621.40846  -7757496.96347                  22230700.5974
        18.2504         36.7504
                   -839239.679 5   -653951.282 5  23233336.448    23233337.940
        11.000          10.500
  21571928.7924    5255848.72847   4071389.75549                  21571930.0344
        24.2504         60.2504
  21620016.8084   -9342294.28947  -7212847.04249                  21620018.5654
        24.2504         58.2504
 95  4 13 16 53 29.9990000  0  7G 2G18G19G27G28G29G31
  23467775.1284   -4401056.31946  -3326618.17946                  23467778.6674
        12.2504         15.7504
  20170572.7694   -1246997.72648   -950058.39649                  20170574.1284
        31.5004         63.7504
  20579763.0344   -4655992.96548  -3598707.16749                  20579764.4054
        28.5004         63.7504
  22223159.7224  -10102240.01046  -7788368.58947                  22223162.0424
        18.2504         36.0004
                   -828921.172 5   -645910.893 5  23235300.112    23235301.503
        11.000          10.500
  21577386.7614    5284528.31147   4093737.46749                  21577388.0624
        25.0004         59.5004
  21615380.1364   -9366661.52547  -7231834.49849                  21615381.8004
        24.2504         58.2504
 95  4 13 16 53 44.9990000  0  7G 2G18G19G27G28G29G31
  23458621.0504   -4449160.51146  -3364101.93846                  23458624.7184
        12.5004         18.2504
  20171973.5424   -1239637.01648   -944322.78349                  20171974.9954
        31.5004         63.7504
  20576682.8314   -4672181.34348  -3611321.48949                  20576684.3084
        28.7504         63.7504
  22215617.6754  -10141874.31646  -7819252.45647                  22215619.6674
        18.2504         37.2504
                   -818500.399 5   -637790.811 5  23237282.870    23237284.565
        10.750          10.750
  21582856.1834    5313272.92847   4116135.86049                  21582857.5774
        25.0004         59.0004
  21610763.9644   -9390919.53147  -7250736.83249                  21610765.6054
        24.2504         57.7504
 95  4 13 16 53 59.9990000  0  7G 2G18G19G27G28G29G31
  23449469.4094   -4497251.30346  -3401575.28246                  23449472.5034
        12.5004         17.0004
  20173392.5654   -1232180.41648   -938512.45249                  20173394.1014
        31.0004         63.7504
  20573604.3704   -4688356.49548  -3623925.49949                  20573605.7654
        29.0004         63.7504
  22208072.6674  -10181523.57746  -7850147.97247                  22208074.5304
        18.5004         37.2504
                   -807980.904 5   -629593.805 5  23239284.675    23239286.503
        10.750          10.750
  21588338.5424    5342079.93847   4138582.87149                  21588339.9724
        25.5004         61.0004
  21606167.3314   -9415073.86947  -7269558.38849                  21606168.7614
        23.7504         58.2504
 95  4 13 16 54 14.9990000  0  7G 2G18G19G27G28G29G31
  23440320.6754   -4545326.69246  -3439036.60146                  23440324.0854
        12.7504         18.2504
  20174829.6904   -1224626.32048   -932626.14649                  20174831.1204
        31.0004         63.7504
  20570529.7924   -4704515.30248  -3636516.77449                  20570531.2574
        29.0004         63.7504
  22200525.5114  -10221183.87046  -7881052.08647                  22200527.3744
        18.7504         36.0004
                   -797361.420 5   -621318.893 5  23241305.612    23241307.409
        10.750          10.750
  21593831.7924    5370947.23347   4161076.85649                  21593832.9524
        25.7504         61.0004
  21601590.7224   -9439124.28347  -7288298.96949                  21601592.1514
        24.2504         58.2504
 95  4 13 16 54 29.9990000  0  7G 2G18G19G27G28G29G31
  23431176.1984   -4593384.99446  -3476484.61146                  23431179.7494
        13.2504         21.0004
  20176285.9644   -1216973.84448   -926663.18249                  20176287.5814
        30.2504         63.7504
  20567457.4874   -4720658.67348  -3649096.02349                  20567458.9524
        28.7504         63.7504
  22192977.0654  -10260851.41846  -7911961.85847                  22192979.0584
        18.5004         36.0004
                   -786641.684 5   -612965.856 5  23243345.308    23243347.062
        10.500          10.750
  21599336.3784    5399874.17647   4183617.32049                  21599337.5974
        25.2504         59.5004
  21597033.5894   -9463071.02047  -7306958.76749                  21597034.8434
        24.2504         60.2504
 95  4 13 16 54 44.9990000  0  7G 2G18G19G27G28G29G31
  23422034.6754   -4641421.51846  -3513915.66146                  23422037.9564
        13.0004         17.7504
  20177760.7534   -1209223.83148   -920624.22349                  20177762.4874
        30.5004         63.7504
  20564389.2064   -4736783.43048  -3661660.76549                  20564390.5654
        29.0004         63.7504
  22185426.6834  -10300527.41646  -7942878.20447                  22185428.6874
        18.2504         36.7504
                   -775821.918 5   -604534.878 5  23245404.292    23245406.085
        10.500          11.000
  21604852.3704    5428860.48047   4206204.04249                  21604853.6714
        25.2504         60.2504
  21592496.2454   -9486917.38847  -7325540.34749                  21592497.7454
        24.5004         60.2504
 95  4 13 16 54 59.9990000  0  7G 2G18G19G27G28G29G31
  23412898.5264   -4689433.98346  -3551327.94746                  23412901.9954
        13.5004         19.0004
  20179254.1754   -1201375.42348   -914508.58249                  20179255.7454
        30.2504         63.7504
  20561324.5894   -4752887.76248  -3674209.59049                  20561326.0304
        29.0004         63.7504
  22177875.2534  -10340212.42646  -7973801.58647                  22177876.9994
        18.7504         38.0004
                   -764903.068 5   -596026.687 5  23247482.105    23247484.022
        10.500          10.750
  21610378.7764    5457903.47147   4228834.92849                  21610380.1944
        25.0004         62.2504
  21587977.5734   -9510662.18147  -7344042.78049                  21587978.9094
        23.7504         59.0004
 95  4 13 16 55 14.9990000  0  7G 2G18G19G27G28G29G31
  23403767.6674   -4737418.49046  -3588718.44846                  23403770.6904
        13.5004         19.7504
  20180766.7924   -1193426.33448   -908314.49149                  20180768.3974
        30.0004         63.7504
  20558263.6204   -4768973.36048  -3686743.82049                  20558264.9094
        29.0004         63.7504
  22170321.7844  -10379904.22446  -8004730.24447                  22170323.7764
        18.2504         38.7504
                   -753884.308 5   -587440.653 5  23249578.855    23249580.753
        10.500          10.750
  21615916.4874    5487003.65047   4251510.37749                  21615917.8234
        25.0004         63.7504
  21583478.6124   -9534304.22447  -7362465.14449                  21583480.1714
        24.2504         59.5004
 95  4 13 16 55 29.9990000  0  7G 2G18G19G27G28G29G31
  23394642.1514   -4785370.62146  -3626083.73446                  23394645.4564
        13.0004         20.2504
  20182298.2694   -1185379.51748   -902044.25249                  20182299.9214
        30.0004         63.7504
  20555206.1124   -4785040.94848  -3699264.01249                  20555207.4484
        29.0004         63.7504
  22162767.5344  -10419601.67246  -8035663.31147                  22162769.6084
        18.5004         34.7504
                   -742765.692 5   -578776.809 5  23251694.847    23251696.503
        10.750          10.750
  21621465.4564    5516162.39447   4274231.46249                  21621467.0384
        24.7504         63.5004
  21578999.5584   -9557843.30647  -7380807.28449                  21579000.9764
        24.7504         59.5004
 95  4 13 16 55 44.9990000  0  7G 2G18G19G27G28G29G31
  23385523.7694   -4833288.26646  -3663422.13946                  23385527.0384
        13.0004         19.0004
  20183847.5814   -1177237.64448   -895699.94249                  20183849.1404
        30.0004         63.7504
  20552151.8624   -4801092.40948  -3711771.64249                  20552153.2694
        29.0004         63.7504
  22155212.4644  -10459304.74346  -8066600.76647                  22155214.2334
        18.7504         36.7504
                   -731548.289 5   -570035.979 5  23253829.620    23253831.319
        10.750          10.750
  21627024.9804    5545377.73447   4296996.64849                  21627026.5384
        25.0004         63.7504
  21574539.9724   -9581278.35047  -7399068.35949                  21574541.4014
        24.5004         61.0004
 95  4 13 16 55 59.9990000  0  7G 2G18G19G27G28G29G31
  23376411.5264   -4881174.68246  -3700736.21046                  23376415.0304
        13.2504         19.0004
  20185413.8864   -1169005.57148   -889285.34149                  20185415.6324
        29.5004         63.7504
  20549099.2374   -4817132.84548  -3724270.67849                  20549100.5854
        28.5004         63.7504
  22147655.7614  -10499014.84346  -8097543.68947                  22147657.4724
        19.0004         36.7504
                   -720235.961 5   -561221.181 5  23255982.151    23255983.827
        11.000          10.750
  21632594.5734    5574646.76847   4319803.67349                  21632596.1554
        25.0004         63.5004
  21570099.5264   -9604612.25247  -7417250.62149                  21570100.9334
        24.2504         60.2504
 95  4 13 16 56 14.9990000  0  7G 2G18G19G27G28G29G31
  23367304.9254   -4929028.83846  -3738025.14546                  23367308.4994
        12.7504         17.7504
  20186997.8784   -1160681.80348   -882799.29649                  20186999.7414
        29.5004         63.7504
  20546048.2064   -4833165.20648  -3736763.42449                  20546049.4834
        28.7504         63.7504
  22140098.1054  -10538732.11546  -8128492.20047                  22140099.9564
        19.5004         36.7504
                   -708828.030 5   -552331.886 5  23258153.003    23258154.542
        10.750          10.500
  21638174.3784    5603969.23547   4342652.32949                  21638176.3124
        23.7504         63.5004
  21565679.0194   -9627841.51947  -7435351.34149                  21565680.6244
        24.2504         60.2504
 95  4 13 16 56 29.9990000  0  7G 2G18G19G27G28G29G31
  23358203.7764   -4976854.61446  -3775291.96246                  23358206.5654
        13.0004         18.2504
  20188598.7694   -1152269.32448   -876244.12549                  20188600.5154
        29.2504         63.7504
  20542997.7064   -4849196.79248  -3749255.56349                  20542999.0544
        28.7504         63.7504
  22132537.2064  -10578462.81146  -8159451.18047                  22132539.0814
        18.7504         36.7504
                   -697327.692 5   -543370.587 5  23260341.526    23260343.011
        11.000          10.250
  21643763.7844    5633340.30947   4365538.85849                  21643765.7654
        24.2504         63.7504
  21561278.2844   -9650967.37647  -7453371.48549                  21561280.1124
        23.7504         59.0004
 95  4 13 16 56 44.9990000  0  7G 2G18G19G27G28G29G31
  23349108.7924   -5024648.05446  -3812533.59746                  23349112.0974
        12.5004         17.0004
  20190216.5194   -1143766.00148   -869618.16249                  20190218.4874
        28.7504         63.7504
  20539947.7924   -4865223.37048  -3761743.80449                  20539949.2104
        28.7504         63.7504
  22124975.1984  -10618204.45046  -8190418.68847                  22124977.0384
        19.0004         38.0004
                   -685732.102 5   -534335.065 5  23262547.987    23262549.605
        10.750          10.250
  21649362.4404    5662763.76747   4388466.21249                  21649364.6444
        23.0004         59.5004
  21556898.5034   -9673985.15547  -7471307.41349                  21556900.0974
        24.7504         61.5004
 95  4 13 16 56 59.9990000  0  7G 2G18G19G27G28G29G31
  23340019.6984   -5072414.41546  -3849754.11546                  23340023.0154
        13.2504         19.0004
  20191851.8944   -1135173.81648   -862922.96449                  20191853.9094
        28.7504         63.7504
  20536898.8624   -4881245.68648  -3774228.72249                  20536900.1164
        29.0004         63.7504
  22117409.0344  -10657962.70846  -8221399.13547                  22117411.0154
        18.7504         39.2504
                   -674043.912 5   -525227.388 5  23264772.128    23264773.647
        10.750          10.250
  21654971.7064    5692239.33947   4411434.16849                  21654973.7574
        23.2504         59.5004
  21552538.9334   -9696894.06147  -7489158.51249                  21552540.3394
        24.0004         57.7504
 95  4 13 16 57 14.9990000  0  7G 2G18G19G27G28G29G31
  23330935.0974   -5120154.12446  -3886953.86546                  23330938.2264
        13.2504         18.2504
  20193504.5894   -1126488.55048   -856155.22849                  20193506.5934
        28.5004         63.7504
  20533851.1594   -4897261.17548  -3786708.31949                  20533852.5304
        28.5004         63.7504
  22109841.6834  -10697731.60646  -8252387.87647                  22109843.5344
        19.5004         37.2504
                   -662258.307 5   -516043.800 5  23267014.901    23267016.374
        10.750          10.250
  21660592.6674    5721775.64147   4434449.45349                  21660594.4834
        23.7504         59.5004
  21548201.0034   -9719688.47247  -7506920.38749                  21548202.6794
        23.5004         59.0004
 95  4 13 16 57 29.9990000  0  7G 2G18G19G27G28G29G31
  23321854.7224   -5167869.14446  -3924134.38746                  23321858.2264
        13.0004         19.0004
  20195173.9804   -1117715.00848   -849318.71149                  20195176.0544
        28.5004         63.7504
  20530804.9254   -4913269.50048  -3799182.33349                  20530806.2614
        28.5004         63.7504
  22102271.3624  -10737512.64646  -8283386.08247                  22102273.0854
        19.2504         37.2504
                   -650375.979 5   -506784.849 5  23269275.933    23269277.472
        10.750          10.250
  21666224.4564    5751374.27547   4457513.30749                  21666226.2614
        23.2504         59.0004
  21543884.4484   -9742372.23447  -7524596.03949                  21543886.1944
        24.0004         61.5004
 95  4 13 16 57 44.9990000  0  7G 2G18G19G27G28G29G31
  23312779.3864   -5215562.21746  -3961297.80146                  23312782.2694
        13.5004         19.7504
  20196860.4174   -1108853.44048   -842413.59649                  20196862.5624
        28.5004         63.7504
  20527760.1904   -4929269.41948  -3811649.79949                  20527761.5734
        28.5004         63.7504
  22094698.6594  -10777308.45146  -8314395.79248                  22094700.5464
        19.7504         40.0004
                   -638398.192 5   -497451.508 5  23271555.362    23271556.796
        10.500          10.250
  21671868.8154    5781035.09147   4480625.61349                  21671870.7024
        23.2504         57.7504
  21539588.7064   -9764947.49847  -7542187.15049                  21539590.2654
        24.5004         61.5004
 95  4 13 16 57 59.9990000  0  7G 2G18G19G27G28G29G31
  23303707.3784   -5263235.57946  -3998445.85546                  23303710.5544
        13.5004         21.0004
  20198564.1444   -1099898.86548   -835436.01049                  20198566.3234
        28.0004         63.7504
  20524717.2924   -4945259.84948  -3824109.87049                  20524718.5694
        28.5004         63.7504
  22087122.4484  -10817120.70746  -8345418.32547                  22087124.1014
        19.5004         38.7504
                   -626324.405 5   -488043.369 5  23273852.933    23273854.452
        10.500          10.250
  21677525.1594    5810758.90847   4503787.01449                  21677527.0584
        23.0004         57.7504
  21535313.2764   -9787415.68147  -7559694.82549                  21535314.8704
        24.5004         62.2504
 95  4 13 16 58 14.9990000  0  7G 2G18G19G27G28G29G31
  23294639.3554   -5310890.49246  -4035579.53346                  23294642.3664
        13.7504         23.0004
  20200286.5504   -1090848.36148   -828383.67749                  20200288.6474
        28.5004         63.7504
  20521676.6364   -4961238.67148  -3836560.89749                  20521678.0894
        28.5004         63.7504
  22079542.6514  -10856951.18146  -8376455.04547                  22079544.3864
        19.0004         38.0004
                   -614154.632 5   -478560.432 5  23276168.620    23276170.331
        10.250          10.250
  21683193.6444    5840547.01847   4526998.50649                  21683195.5194
        23.0004         56.2504
  21531058.0114   -9809776.13547  -7577118.55549                  21531059.4764
        24.0004         61.0004
 95  4 13 16 58 29.9990000  0  7G 2G18G19G27G28G29G31
  23285574.4644   -5358523.59946  -4072696.23346                  23285577.8974
        13.7504         20.2504
  20202027.2764   -1081700.71148   -821255.64449                  20202029.3974
        28.0004         63.7504
  20518639.4014   -4977199.82148  -3848998.15349                  20518640.8554
        28.7504         63.7504
  22071960.1834  -10896800.00146  -8407506.06447                  22071961.9524
        19.5004         39.2504
                   -601884.659 5   -468999.419 5  23278503.675    23278505.374
        10.250          10.250
  21688875.5734    5870404.35547   4550263.94549                  21688877.3554
        23.7504         58.2504
  21526824.3784   -9832024.72347  -7594455.11249                  21526826.0424
        24.0004         62.2504
 95  4 13 16 58 44.9990000  0  7G 2G18G19G27G28G29G31
  23276514.6904   -5406135.14746  -4109796.11446                  23276517.1404
        14.2504         19.7504
  20203786.3624   -1072456.86648   -814052.65849                  20203788.5074
        28.0004         63.7504
  20515605.9874   -4993139.62348  -3861418.77549                  20515607.2764
        28.2504         63.7504
  22064373.1674  -10936668.54046  -8438572.45447                  22064374.7964
        19.5004         38.0004
                   -589514.680 5   -459360.478 5  23280857.542    23280859.245
        10.500          10.750
  21694570.4014    5900331.86847   4573584.07249                  21694571.8554
        24.0004         55.7504
  21522611.8084   -9854162.71247  -7611705.48049                  21522613.3084
        24.7504         63.0004
 95  4 13 16 58 59.9990000  0  7G 2G18G19G27G28G29G31
  23267457.8624   -5453728.49946  -4146881.82346                  23267460.8274
        14.0004         19.7504
  20205563.3314   -1063118.90148   -806776.32749                  20205565.3584
        28.2504         63.7504
  20512576.3394   -5009061.56148  -3873825.47749                  20512577.7454
        28.5004         63.7504
  22056781.8314  -10976559.45946  -8469656.27847                  22056783.7414
        19.5004         39.2504
                   -577048.907 5   -449646.893 5  23283229.776    23283231.519
        10.250          10.750
  21700278.6124    5930327.52747   4596957.29749                  21700280.0544
        24.2504         54.2504
  21518419.1514   -9876194.93647  -7628873.44649                  21518420.7694
        24.0004         63.7504
 95  4 13 16 59 14.9990000  0  7G 2G18G19G27G28G29G31
  23258403.9874   -5501305.88446  -4183955.08746                  23258406.6474
        14.0004         20.2504
  20207358.0504   -1053688.09548   -799427.65449                  20207359.9954
        28.5004         63.7504
  20509548.9724   -5024969.78348  -3886221.48949                  20509550.2264
        28.2504         63.7504
  22049187.0814  -11016473.14447  -8500757.84448                  22049188.6984
        20.0004         40.5004
                   -564489.174 5   -439860.092 5  23285619.925    23285621.503
        10.500          10.750
  21705999.1834    5960389.41047   4620382.12549                  21706000.4014
        25.0004         55.0004
  21514245.7614   -9898124.26047  -7645961.22749                  21514247.3314
        23.7504         61.0004
 95  4 13 16 59 29.9990000  0  7G 2G18G19G27G28G29G31
  23249352.6124   -5548869.68546  -4221017.77746                  23249355.5074
        14.0004         23.5004
  20209169.3554   -1044169.23048   -792010.36249                  20209171.3004
        28.5004         63.7504
  20506522.8234   -5040872.87048  -3898613.50549                  20506524.0424
        28.5004         63.7504
  22041586.3864  -11056414.04846  -8531880.62148                  22041587.8974
        19.5004         41.2504
                   -551842.358 5   -430005.435 5  23288026.448    23288028.124
        10.500          10.750
  21711730.0344    5990505.08747   4643848.88149                  21711731.0544
        25.0004         53.7504
  21510091.1364   -9919958.24347  -7662974.71749                  21510092.7414
        23.5004         62.2504
 95  4 13 16 59 44.9990000  0  7G 2G18G19G27G28G29G31
  23240308.4404   -5596399.85246  -4258054.25546                  23240311.1014
        14.2504         20.2504
  20211001.4094   -1034542.56148   -784509.06849                  20211003.2024
        28.5004         63.7504
  20503500.9484   -5056752.69248  -3910987.38749                  20503502.1554
        28.5004         63.7504
  22033984.2064  -11096365.11746  -8563011.31448                  22033986.0934
        19.7504         40.5004
                   -539090.297 5   -420068.769 5  23290453.253    23290454.823
        10.750          10.750
  21717473.7064    6020687.76347   4667367.83748                  21717474.8084
        25.0004         52.5004
  21505957.9804   -9941678.03847  -7679899.22949                  21505959.5854
        23.7504         61.5004
 95  4 13 16 59 59.9990000  0  7G 2G18G19G27G28G29G31
  23231267.0034   -5643911.06246  -4295075.96046                  23231269.8744
        14.0004         23.0004
  20212851.8474   -1024819.24248   -776932.46149                  20212853.4874
        29.0004         63.7504
  20500480.4644   -5072626.75648  -3923356.78449                  20500481.6124
        28.7504         63.7504
  22026377.0814  -11136339.79646  -8594160.40147                  22026378.8514
        19.5004         39.2504
                   -526246.895 5   -410060.923 5  23292897.362    23292898.851
        10.500          10.750
  21723226.9564    6050921.68847   4690926.72848                  21723227.9524
        24.7504         52.5004
  21501844.3944   -9963295.39047  -7696743.91249                  21501846.0694
        23.7504         61.5004
 95  4 13 17  0 14.9990000  0  7G 2G18G19G27G28G29G31
  23222231.5654   -5691395.54246  -4332076.82046                  23222234.9174
        14.7504         21.0004
  20214721.0734   -1014995.02848   -769277.23649                  20214722.8784
        29.0004         63.7504
  20497461.5114   -5088490.85048  -3935718.41349                  20497462.7064
        28.5004         63.7504
  22018767.0034  -11176330.96346  -8625322.34748                  22018768.7264
        19.2504         40.0004
                   -513306.454 5   -399977.463 5  23295359.526    23295361.296
        10.250          10.750
  21728990.7534    6081211.08047   4714528.84449                  21728991.7614
        24.5004         53.7504
  21497751.6054   -9984802.29147  -7713502.52849                  21497753.5034
        23.2504         59.5004
 95  4 13 17  0 29.9990000  0  7G 2G18G19G27G28G29G31
  23213200.6674   -5738852.23746  -4369056.05646                  23213203.9954
        14.2504         21.5004
  20216609.4404   -1005072.21048   -761545.17449                  20216611.2104
        28.7504         63.7504
  20494444.7764   -5104344.43148  -3948071.85149                  20494446.0194
        28.7504         63.7504
  22011154.6054  -11216334.76146  -8656494.13448                  22011156.3394
        19.7504         41.2504
                   -500267.839 5   -389817.505 5  23297840.831    23297842.515
        10.250          10.750
  21734765.7144    6111557.70247   4738175.55148                  21734766.6284
        24.7504         52.5004
  21493680.1054  -10006197.87447  -7730174.39949                  21493682.0384
        23.5004         59.0004
 95  4 13 17  0 44.9990000  0  7G 2G18G19G27G28G29G31
  23204173.4334   -5786289.23346  -4406019.92446                  23204176.8554
        14.0004         21.0004
  20218514.8154    -995059.45648   -753743.03249                  20218516.3514
        29.0004         63.7504
  20491428.4094   -5120196.29448  -3960423.94949                  20491429.5814
        29.0004         63.7504
  22003538.2694  -11256357.40146  -8687680.59648                  22003540.0264
        19.5004         40.0004
                   -487139.657 5   -379587.760 5  23300338.948    23300340.753
        10.000          10.750
  21740549.5894    6141951.64947   4761859.13248                  21740550.7844
        24.2504         51.7504
  21489627.8704  -10027491.58947  -7746766.90449                  21489629.6054
        23.0004         62.2504
 95  4 13 17  0 59.9990000  0  7G 2G18G19G27G28G29G31
  23195151.2374   -5833702.25146  -4442965.11746                  23195154.6244
        14.0004         21.0004
  20220438.4954    -984950.68848   -745866.07649                  20220439.9954
        29.0004         63.7504
  20488412.2454   -5136044.33248  -3972773.06649                  20488413.5934
        28.5004         63.7504
  21995920.2534  -11296391.31747  -8718875.84648                  21995922.0464
        20.0004         42.0004
                   -473919.103 5   -369286.036 5  23302854.589    23302856.483
        10.000          10.750
  21746342.9804    6172394.99447   4785581.20948                  21746344.3274
        24.2504         51.7504
  21485596.2924  -10048680.27947  -7763277.56849                  21485598.0034
        23.5004         60.2504
 95  4 13 17  1 14.9990000  0  7G 2G18G19G27G28G29G31
  23186133.2534   -5881090.77746  -4479891.22646                  23186136.7224
        14.0004         22.2504
  20222380.1364    -974746.84148   -737915.02949                  20222381.6124
        29.2504         63.7504
  20485397.3394   -5151888.23548  -3985118.96449                  20485398.6404
        28.5004         63.7504
  21988300.3864  -11336433.20646  -8750077.31448                  21988302.0974
        19.7504         42.0004
                   -460605.967 5   -358912.167 5  23305388.269    23305389.913
        10.000          10.750
  21752145.1514    6202888.05047   4809342.02048                  21752146.4764
        23.5004         48.5004
  21481584.0264  -10069762.39147  -7779705.18149                  21481585.9254
        23.0004         57.0004
 95  4 13 17  1 29.9990000  0  7G 2G18G19G27G28G29G31
  23177120.3154   -5928451.53946  -4516795.69846                  23177123.5854
        13.5004         20.2504
  20224340.6984    -964446.03648   -729888.43049                  20224342.0694
        29.5004         63.7504
  20482383.9644   -5167723.22048  -3997457.91149                  20482385.4054
        28.5004         63.7504
  21980679.2924  -11376482.48447  -8781284.53348                  21980680.8514
        20.0004         40.5004
                   -447196.190 5   -348462.999 5  23307940.073    23307941.534
        10.000          10.750
  21757957.5344    6233433.07547   4833143.32148                  21757959.1634
        22.7504         50.5004
  21477593.6054  -10090733.76947  -7796046.50649                  21477595.5264
        23.2504         61.0004
 95  4 13 17  1 44.9990000  0  7G 2G18G19G27G28G29G31
  23168113.5814   -5975783.50346  -4553677.73046                  23168116.9334
        13.7504         21.0004
  20226319.1754    -954048.07148   -721786.12049                  20226320.4764
        29.2504         63.7504
  20479373.2844   -5183545.46248  -4009786.92749                  20479374.6794
        28.5004         63.7504
  21973056.8784  -11416538.19847  -8812496.76948                  21973058.5894
        20.0004         42.5004
                   -433686.948 5   -337936.317 5  23310510.581    23310512.288
        10.000          10.750
  21763780.7844    6264033.79847   4856988.02348                  21763782.5074
        22.2504         52.5004
  21473624.1834  -10111592.26047  -7812299.86849                  21473626.0464
        23.5004         59.0004
 95  4 13 17  1 59.9990000  0  7G 2G18G19G27G28G29G31
  23159110.4404   -6023095.08946  -4590543.88646                  23159114.0504
        13.5004         21.5004
  20228315.0974    -943559.82048   -713613.45749                  20228316.4804
        29.5004         63.7504
  20476363.8864   -5199359.96948  -4022109.91549                  20476365.3514
        28.7504         63.7504
  21965431.7454  -11456609.50247  -8843721.14948                  21965433.4444
        20.2504         43.2504
                   -420085.460 5   -327337.759 5  23313099.058    23313100.659
        10.000          10.750
  21769614.3004    6294689.27147   4880875.39148                  21769616.4334
        21.5004         47.7504
  21469675.3314  -10132344.36147  -7828470.33149                  21469676.7844
        23.5004         57.7504
 95  4 13 17  2 14.9990000  0  7G 2G18G19G27G28G29G31
  23150113.2844   -6070374.99546  -4627385.36246                  23150116.6364
        13.7504         21.5004
  20230329.8944    -932972.36448   -705363.49849                  20230331.3004
        29.5004         63.7504
  20473357.6054   -5215156.65048  -4034419.01949                  20473359.1404
        28.5004         63.7504
  21957805.6124  -11496686.10447  -8874949.66748                  21957806.8904
        20.5004         42.0004
                   -406382.549 5   -316660.174 5  23315706.519    23315708.132
        10.000          10.750
  21775460.0344    6325410.91447   4904814.31448                  21775462.2494
        21.0004         47.2504
  21465748.7374  -10152978.59547  -7844548.95449                  21465750.4954
        23.5004         60.2504
 95  4 13 17  2 29.9990000  0  7G 2G18G19G27G28G29G31
  23141120.9484   -6117628.75646  -4664206.46046                  23141124.4404
        13.7504         21.5004
  20232362.2844    -922291.75848   -697040.94949                  20232363.6324
        29.5004         63.7504
  20470354.9174   -5230937.48348  -4046715.77049                  20470356.4054
        28.7504         63.7504
  21950177.0974  -11536772.80647  -8906186.04748                  21950178.6444
        20.2504         43.2504
                   -392583.010 5   -305907.291 5  23318332.456    23318334.202
         9.750          10.750
  21781317.6984    6356192.89947   4928800.25648                  21781319.9484
        21.0004         47.7504
  21461843.6754  -10173500.37047  -7860539.93949                  21461845.3154
        23.5004         60.2504
 95  4 13 17  2 44.9990000  0  7G 2G18G19G27G28G29G31
  23132133.7064   -6164859.09246  -4701009.29646                  23132137.1874
        14.0004         21.5004
  20234411.8944    -911520.41548   -688647.69849                  20234413.2414
        29.2504         63.7504
  20467354.6594   -5246703.72348  -4059001.15049                  20467356.2064
        28.5004         63.7504
  21942546.1754  -11576873.79647  -8937433.56848                  21942547.8744
        20.2504         40.0004
                   -378689.305 5   -295081.036 5  23320976.448    23320978.175
         9.750          10.750
  21787186.1204    6387031.07247   4952829.98648                  21787188.1244
        21.2504         50.5004
  21457959.6594  -10193910.26547  -7876443.74749                  21457961.2764
        23.5004         61.5004
 95  4 13 17  2 59.9990000  0  7G 2G18G19G27G28G29G31
  23123151.5894   -6212062.06446  -4737790.82946                  23123154.7304
        14.0004         21.0004
  20236480.0264    -900654.31448   -680180.61049                  20236481.3744
        29.2504         63.7504
  20464357.5424   -5262453.85148  -4071273.97549                  20464358.9254
        28.5004         63.7504
  21934912.9404  -11616987.31447  -8968690.84448                  21934914.4764
        20.5004         44.5004
                   -364699.076 5   -284179.563 5  23323638.448    23323640.331
         9.750          10.750
  21793065.4484    6417927.07447   4976904.77148                  21793067.5114
        21.0004         50.5004
  21454097.6834  -10214204.58947  -7892257.49749                  21454099.4294
        23.5004         59.0004
 95  4 13 17  3 14.9990000  0  7G 2G18G19G27G28G29G31
  23114173.5194   -6259239.20546  -4774552.22246                  23114177.0814
        13.7504         23.0004
  20238564.9644    -889696.21048   -671641.83249                  20238566.2764
        29.2504         63.7504
  20461362.7374   -5278190.89848  -4083536.60949                  20461364.1324
        28.7504         63.7504
  21927276.4724  -11657116.82547  -8999960.59448                  21927278.1244
        20.5004         44.0004
                   -350614.331 5   -273204.445 5  23326318.651    23326320.335
         9.750          10.500
  21798955.8624    6448879.71947   5001023.69848                  21798958.1834
        21.2504         49.2504
  21450257.6444  -10234384.25147  -7907981.90949                  21450259.3784
        23.2504         61.0004
 95  4 13 17  3 29.9990000  0  7G 2G18G19G27G28G29G31
  23105201.7764   -6306388.93146  -4811292.24946                  23105204.7654
        14.5004         23.0004
  20240668.2614    -878643.10448   -663029.02349                  20240669.6204
        29.0004         63.7504
  20458371.1514   -5293911.88048  -4095786.72449                  20458372.5934
        28.7504         63.7504
  21919637.0194  -11697262.73447  -9031243.11548                  21919638.6474
        20.5004         44.5004
                   -336432.078 5   -262153.341 5  23329017.792    23329019.327
         9.750          10.750
  21804857.0654    6479892.15247   5025189.21248                  21804859.2454
        21.0004         49.2504
  21446439.9174  -10254446.55247  -7923614.86549                  21446441.6984
        23.2504         60.2504
 95  4 13 17  3 44.9990000  0  7G 2G18G19G27G28G29G31
  23096234.1984   -6353511.81646  -4848011.36646                  23096237.5974
        13.7504         23.0004
  20242789.5504    -867495.72948   -654342.76049                  20242790.9214
        29.0004         63.7504
  20455382.5734   -5309618.04948  -4108025.29949                  20455383.8154
        29.2504         63.7504
  21911993.8234  -11737427.53647  -9062540.35148                  21911995.6514
        20.2504         44.0004
                   -322154.480 5   -251027.946 5  23331734.644    23331736.382
        10.000          10.750
  21810769.6594    6510962.10647   5049399.54648                  21810771.7924
        21.5004         48.5004
  21442644.5114  -10274391.80347  -7939156.60949                  21442646.3864
        23.5004         63.5004
 95  4 13 17  3 59.9990000  0  7G 2G18G19G27G28G29G31
  23087272.9724   -6400604.35946  -4884706.82846                  23087275.9954
        14.0004         23.0004
  20244928.8704    -856253.72548   -645582.76349                  20244930.0424
        29.0004         63.7504
  20452396.8864   -5325308.55248  -4120251.66149                  20452397.9994
        29.2504         63.7504
  21904347.8554  -11777606.50147  -9093848.62448                  21904349.5544
        20.5004         45.2504
                   -307782.135 5   -239828.720 5  23334469.565    23334471.308
        10.000          10.750
  21816693.1514    6542090.06647   5073655.07848                  21816695.1794
        21.7504         53.0004
  21438871.9094  -10294217.90547  -7954605.51349                  21438873.9604
        23.5004         60.2504
 95  4 13 17  4 14.9990000  0  7G 2G18G19G27G28G29G31
  23078319.9014   -6447653.91746  -4921368.80446                  23078323.1244
        14.7504         24.2504
  20247088.3314    -844905.57248   -636740.05049                  20247089.6204
        28.7504         63.7504
  20449415.7304   -5340972.68048  -4132457.47649                  20449416.8904
        28.7504         63.7504
  21896702.3394  -11817785.84747  -9125157.19748                  21896703.9684
        20.5004         41.2504
                   -293304.769 5   -228547.662 5  23337224.542    23337226.144
        10.000          10.500
  21822629.7454    6573285.58047   5097963.24848                  21822631.8664
        22.2504         52.5004
  21435124.1594  -10313912.41347  -7969951.87049                  21435126.0224
        23.5004         63.0004
 95  4 13 17  4 29.9990000  0  7G 2G18G19G27G28G29G31
  23069372.6444   -6494671.38546  -4958005.78546                  23069375.7724
        14.7504         23.5004
  20249265.9334    -833461.47448   -627822.57749                  20249267.2694
        28.5004         63.7504
  20446438.0734   -5356621.46548  -4144651.33249                  20446439.2454
        28.7504         63.7504
  21889054.8864  -11857971.45047  -9156470.64648                  21889056.5504
        20.5004         44.5004
                   -278732.476 5   -217192.629 5  23339997.659    23339999.308
        10.000          10.500
  21828576.3084    6604534.59947   5122313.11748                  21828578.4294
        22.7504         53.0004
  21431399.0424  -10333486.84747  -7985204.67349                  21431400.9404
        23.5004         61.5004
 95  4 13 17  4 44.9990000  0  7G 2G18G19G27G28G29G31
  23060431.9094   -6541656.07746  -4994617.21446                  23060435.0504
        14.7504         23.5004
  20251462.0814    -821921.69348   -618830.54549                  20251463.6164
        28.2504         63.7504
  20443463.2374   -5372254.02048  -4156832.54249                  20443464.3514
        28.5004         63.7504
  21881406.8704  -11898163.99947  -9187789.50148                  21881408.5344
        20.7504         44.0004
                   -264065.725 5   -205764.000 5  23342788.753    23342790.347
        10.000          10.750
  21834532.7924    6635837.79647   5146705.20249                  21834534.9724
        22.7504         53.7504
  21427696.7614  -10352942.23847  -8000364.71549                  21427698.4954
        23.7504         61.5004
 95  4 13 17  4 59.9990000  0  7G 2G18G19G27G28G29G31
  23051497.8624   -6588604.02546  -5031200.00946                  23051501.0974
        14.7504         25.0004
  20253676.4564    -810284.06648   -609762.27349                  20253677.9804
        28.2504         63.7504
  20440491.8944   -5387868.09548  -4168999.35849                  20440492.9834
        28.5004         63.7504
  21873757.4874  -11938360.96347  -9219111.80648                  21873758.9644
        20.5004         44.5004
                   -249302.959 5   -194260.542 5  23345597.769    23345599.538
        10.000          10.500
  21840501.2924    6667201.10947   5171144.12748                  21840503.4484
        23.2504         53.0004
  21424018.1904  -10372274.06747  -8015428.47449                  21424019.8664
        23.7504         62.2504
 95  4 13 17  5 14.9990000  0  7G 2G18G19G27G28G29G31
  23042570.3314   -6635518.06346  -5067756.38946                  23042572.9804
        15.0004         25.0004
  20255909.6834    -798549.42748   -600618.40549                  20255911.0074
        28.0004         63.7504
  20437523.7924   -5403464.97048  -4181152.76349                  20437524.9524
        28.5004         63.7504
  21866107.0814  -11978562.33547  -9250437.54548                  21866108.5584
        20.5004         44.5004
                   -234445.865 5   -182683.593 5  23348425.089    23348426.589
        10.000          10.500
  21846480.6364    6698623.36147   5195628.98448                  21846482.5464
        23.0004         52.5004
  21420362.5974  -10391484.59947  -8030397.70749                  21420364.3784
        24.0004         61.5004
 95  4 13 17  5 29.9990000  0  7G 2G18G19G27G28G29G31
  23033650.4334   -6682394.25146  -5104283.28346                  23033653.5504
        15.0004         23.0004
  20258161.6444    -786715.01248   -591396.78949                  20258162.9804
        28.0004         63.7504
  20434560.5344   -5419038.01048  -4193287.60049                  20434561.7764
        28.2504         63.7504
  21858457.2694  -12018765.24647  -9281764.48148                  21858458.7454
        21.0004         44.0004
                   -219490.553 5   -171030.105 5  23351271.065    23351272.710
        10.000          10.500
  21852472.0894    6730107.65047   5220162.18048                  21852473.9644
        23.0004         50.5004
  21416730.9174  -10410569.28047  -8045268.88149                  21416732.5694
        24.0004         61.5004
 95  4 13 17  5 44.9990000  0  7G 2G18G19G27G28G29G31
  23024736.8704   -6729232.72546  -5140780.77046                  23024740.1634
        14.7504         24.2504
  20260432.3084    -774782.58147   -582098.79749                  20260433.7844
        27.7504         63.7504
  20431601.7924   -5434587.26848  -4205403.90749                  20431603.0694
        28.5004         63.7504
  21850806.4484  -12058969.00347  -9313092.08148                  21850807.9374
        20.7504         45.2504
                   -204437.651 5   -159300.579 5  23354135.315    23354137.351
        10.000          10.750
  21858475.1984    6761652.66747   5244742.69448                  21858476.8274
        23.2504         49.7504
  21413122.8704  -10429527.90247  -8060041.83049                  21413124.5114
        24.0004         62.2504
 95  4 13 17  5 59.9990000  0  7G 2G18G19G27G28G29G31
  23015831.3944   -6776032.54146  -5177248.14046                  23015834.2764
        15.0004         25.0004
  20262721.3314    -762753.75247   -572725.69149                  20262722.7494
        27.7504         63.7504
  20428647.1054   -5450114.85348  -4217503.32249                  20428648.2884
        28.5004         63.7504
  21843156.0584  -12099171.92747  -9344419.02148                  21843157.6404
        21.0004         44.0004
                   -189287.962 5   -147495.626 5  23357018.315    23357020.167
        10.000          10.750
  21864488.9484    6793256.30347   5269368.89048                  21864490.5194
        22.2504         47.2504
  21409539.3944  -10448360.46047  -8074716.54349                  21409541.2224
        24.0004         62.2504
 95  4 13 17  6 14.9990000  0  7G 2G18G19G27G28G29G31
  23006932.2844   -6822797.30046  -5213688.19446                  23006935.0624
        15.5004         23.5004
  20265028.6904    -750628.04347   -563277.09449                  20265030.1904
        27.7504         63.7504
  20425695.7374   -5465623.98848  -4229588.36349                  20425697.0384
        28.5004         63.7504
  21835505.7534  -12139375.10447  -9375746.16848                  21835507.3824
        21.0004         45.7504
                   -174041.858 5   -135615.557 5  23359919.605    23359921.327
        10.000          10.750
  21870513.7694    6824918.19947   5294040.47948                  21870515.4804
        22.0004         44.5004
  21405979.3154  -10467069.63047  -8089295.11649                  21405981.0264
        24.2504         61.0004
 95  4 13 17  6 29.9990000  0  7G 2G18G19G27G28G29G31
  22998039.1674   -6869531.74946  -5250104.62946                  22998042.2374
        15.5004         24.2504
  20267354.5584    -738406.79148   -553754.04849                  20267356.1634
        28.0004         63.7504
  20422746.9564   -5481118.02048  -4241661.63649                  20422748.1284
        28.5004         63.7504
  21827854.5974  -12179581.34447  -9407075.69848                  21827856.0264
        20.7504         44.0004
                   -158700.646 5   -123661.368 5  23362838.847    23362840.733
        10.000          10.750
  21876549.2224    6856633.93547   5318754.02748                  21876550.8514
        22.2504         46.5004
  21402441.9874  -10485658.99547  -8103780.32949                  21402443.7224
        24.5004         63.7504
 95  4 13 17  6 44.9990000  0  7G 2G18G19G27G28G29G31
  22989150.3624   -6916242.34046  -5286502.48346                  22989153.3624
        15.5004         23.5004
  20269696.8314    -726097.22947   -544162.18649                  20269698.2724
        27.7504         63.7504
  20419800.5584   -5496601.72348  -4253726.85949                  20419801.8584
        28.0004         63.7504
  21820201.2224  -12219801.28447  -9438415.90948                  21820202.7224
        21.2504         47.7504
                   -143269.743 5   -111637.293 5  23365775.370    23365777.194
         9.750          10.500
  21882593.9094    6888399.34947   5343506.28548                  21882595.5154
        21.7504         45.2504
  21398926.6594  -10504132.81147  -8118175.50249                  21398928.1594
        24.7504         63.7504
 95  4 13 17  6 59.9990000  0  7G 2G18G19G27G28G29G31
  22980266.1834   -6962928.39846  -5322881.20846                  22980269.3824
        15.2504         24.2504
  20272056.1514    -713699.68248   -534501.76949                  20272057.6874
        28.5004         63.7504
  20416856.6204   -5512071.63648  -4265781.33549                  20416857.8624
        28.2504         63.7504
  21812544.7374  -12260035.58547  -9469767.30648                  21812546.1324
        21.2504         46.5004
                   -127747.112 5    -99541.742 5  23368729.190    23368730.991
        10.000          10.750
  21888648.8554    6920217.84347   5368299.89848                  21888650.4134
        21.2504         43.2504
  21395433.5504  -10522486.79747  -8132477.30649                  21395435.1444
        24.2504         63.7504
 95  4 13 17  7 14.9990000  0  7G 2G18G19G27G28G29G31
  22971387.3864   -7009588.38146  -5359239.62746                  22971390.5034
        16.0004         25.5004
  20274432.5194    -701210.86048   -524770.22549                  20274434.0074
        28.2504         63.7504
  20413915.7924   -5527528.26648  -4277825.46349                  20413917.1054
        28.2504         63.7504
  21804886.4334  -12300279.69747  -9501126.34548                  21804888.1204
        21.0004         45.2504
                   -112130.223 5    -87372.746 5  23371700.917    23371702.753
        10.000          10.500
  21894713.7144    6952089.69247   5393135.09048                  21894715.4254
        21.0004         43.2504
  21391963.4174  -10540722.03247  -8146686.57249                  21391965.0344
        24.0004         63.5004
 95  4 13 17  7 29.9990000  0  7G 2G18G19G27G28G29G31
  22962513.5734   -7056219.86846  -5395575.83346                  22962516.6554
        15.5004         25.5004
  20276826.7844    -688629.90948   -514966.89649                  20276828.3664
        28.5004         63.7504
  20410976.6754   -5542970.98447  -4289858.74649                  20410977.9644
        27.7504         63.7504
  21797226.2844  -12340533.80747  -9532493.16948                  21797227.8784
        20.7504         45.2504
                    -96418.380 5    -75129.753 5  23374690.940    23374692.730
        10.000          10.500
  21900788.8234    6984013.72247   5418010.94048                  21900790.5934
        20.7504         42.5004
  21388515.6984  -10558841.22047  -8160805.41449                  21388517.4914
        24.5004         63.7504
 95  4 13 17  7 44.9990000  0  7G 2G18G19G27G28G29G31
  22953645.4094   -7102821.46446  -5431888.74946                  22953648.6794
        15.0004         23.5004
  20279239.0814    -675953.91148   -505089.49949                  20279240.6754
        28.5004         63.7504
  20408040.8474   -5558398.75647  -4301880.38749                  20408042.1594
        27.7504         63.7504
  21789565.3394  -12380794.25547  -9563864.94448                  21789567.0624
        21.2504         45.2504
                    -80609.526 5    -62811.177 5  23377699.253    23377700.940
        10.000          10.250
  21906874.2694    7015992.59947   5442929.52448                  21906876.0734
        20.2504         44.0004
  21385089.8864  -10576843.36447  -8174833.05349                  21385091.7264
        24.5004         63.5004
 95  4 13 17  7 59.9990000  0  7G 2G18G19G27G28G29G31
  22944782.7064   -7149398.26146  -5468182.33747                  22944785.6364
        15.5004         26.7504
  20281668.1364    -663188.53448   -495142.46149                  20281669.6124
        28.5004         63.7504
  20405106.4874   -5573819.11147  -4313896.24549                  20405107.8474
        27.7504         63.7504
  21781901.6284  -12421065.85947  -9595245.40548                  21781903.4334
        21.0004         45.7504
                    -64709.834 5    -50421.817 5  23380724.808    23380726.355
        10.000          10.000
  21912969.1054    7048022.19347   5467887.63148                  21912970.9684
        20.2504         42.5004
  21381685.1904  -10594734.38847  -8188774.10649                  21381686.9374
        24.2504         63.5004
 95  4 13 17  8 14.9990000  0  7G 2G18G19G27G28G29G31
  22935924.3004   -7195947.98046  -5504454.84346                  22935927.4294
        15.0004         25.0004
  20284115.5034    -650327.67048   -485121.01349                  20284116.9684
        29.0004         63.7504
  20402174.5734   -5589228.15548  -4325903.29349                  20402175.9094
        28.0004         63.7504
  21774236.6364  -12461347.06347  -9626633.34548                  21774238.6514
        21.2504         48.5004
                    -48715.361 5    -37958.594 5  23383768.628    23383770.077
        10.000          10.000
  21919074.5504    7080106.46747   5492888.33348                  21919076.7764
        20.0004         42.5004
  21378302.3624  -10612512.97147  -8202627.54049                  21378303.8274
        24.5004         63.0004
 95  4 13 17  8 29.9990000  0  7G 2G18G19G27G28G29G31
  22927070.3944   -7242472.56246  -5540707.73946                  22927073.7574
        14.5004         24.2504
  20286580.7224    -637372.42248   -475026.02449                  20286582.2804
        29.0004         63.7504
  20399244.9174   -5604623.66748  -4337899.79449                  20399246.1714
        28.2504         63.7504
  21766568.7764  -12501638.49947  -9658029.26248                  21766570.6054
        20.5004         47.2504
                    -32626.736 5    -25422.008 5  23386830.019    23386831.644
         9.750           9.750
  21925190.9094    7112247.25047   5517933.08048                  21925193.0074
        20.7504         44.5004
  21374940.7454  -10630179.57247  -8216393.71949                  21374942.2104
        25.0004         62.2504
 95  4 13 17  8 44.9990000  0  7G 2G18G19G27G28G29G31
  22918221.5504   -7288973.62746  -5576942.31246                  22918224.7614
        14.5004         25.0004
  20289063.7454    -624326.08148   -464860.04849                  20289065.2334
        29.2504         63.7504
  20396317.7844   -5620005.55547  -4349885.67849                  20396318.9684
        27.7504         63.7504
  21758899.4014  -12541944.30447  -9689436.37448                  21758901.1014
        21.2504         46.5004
                    -16446.857 5    -12814.321 5  23389908.808    23389910.464
         9.500           9.750
  21931317.5034    7144443.82647   5543021.30048                  21931319.4724
        21.0004         46.5004
  21371599.6514  -10647734.57947  -8230072.94649                  21371601.1284
        24.5004         63.7504
 95  4 13 17  8 59.9990000  0  7G 2G18G19G27G28G29G31
  22909378.1124   -7335446.28946  -5613154.76146                  22909381.0654
        14.5004         24.2504
  20291564.5974    -611183.73148   -454619.26549                  20291566.0264
        29.5004         63.7504
  20393394.1514   -5635368.23647  -4361856.59849                  20393395.3824
        27.7504         63.7504
  21751226.9404  -12582261.78847  -9720852.59148                  21751228.6054
        21.0004         47.7504
                      -172.441 5      -132.965 5  23393005.730    23393007.296
         9.500           9.750
  21937456.3084    7176701.74347   5568157.31848                  21937458.0774
        21.7504         47.2504
  21368280.9094  -10665175.54247  -8243663.30249                  21368282.7144
        24.7504         63.7504
 95  4 13 17  9 14.9990000  0  7G 2G18G19G27G28G29G31
  22900539.4644   -7381893.10846  -5649347.07046                  22900542.7574
        14.7504         25.0004
  20294083.7144    -597944.96848   -444303.35449                  20294085.0974
        29.7504         63.7504
  20390473.3394   -5650718.10847  -4373817.53449                  20390474.5814
        27.7504         63.7504
  21743552.9874  -12622589.08147  -9752276.44648                  21743554.9684
        21.2504         46.5004
                     16193.064 5     12619.368 5  23396120.175    23396121.675
         9.250           9.750
  21943605.6054    7209014.80947   5593336.30848                  21943607.3624
        22.2504         49.2504
  21364982.4874  -10682508.50347  -8257169.49749                  21364983.9054
        24.5004         63.7504
 95  4 13 17  9 29.9990000  0  7G 2G18G19G27G28G29G31
  22891705.3864   -7428317.86546  -5685522.18546                  22891708.8784
        14.5004         25.5004
  20296620.9334    -584611.48548   -433913.63149                  20296622.3624
        29.2504         63.7504
  20387553.8474   -5666060.89248  -4385772.95149                  20387554.9484
        28.0004         63.7504
  21735876.6904  -12662929.06347  -9783710.19548                  21735878.5544
        21.5004         48.5004
                     32644.818 5     25438.903 5  23399250.862    23399252.394
         9.250           9.750
  21949763.7924    7241377.23547   5618553.76148                  21949765.6084
        22.7504         48.5004
  21361704.0504  -10699737.62247  -8270594.78149                  21361705.2224
        25.2504         63.7504
 95  4 13 17  9 44.9990000  0  7G 2G18G19G27G28G29G31
  22882875.2224   -7474722.10146  -5721681.31246                  22882878.3154
        15.0004         23.5004
  20299176.9484    -571180.15648   -423447.66849                  20299178.2374
        29.7504         63.7504
  20384636.4254   -5681391.70948  -4397719.03749                  20384637.4214
        28.2504         63.7504
  21728198.0264  -12703279.43647  -9815152.03948                  21728199.6444
        21.2504         47.7504
                     49184.790 5     38327.185 5  23402398.253    23402399.823
         9.250           9.750
  21955931.9334    7273791.29947   5643811.45848                  21955933.6204
        22.2504         48.5004
  21358446.4014  -10716856.33247  -8283934.03449                  21358447.6444
        25.0004         63.7504
 95  4 13 17  9 59.9990000  0  7G 2G18G19G27G28G29G31
  22874047.5734   -7521109.90246  -5757827.63747                  22874050.5384
        14.7504         26.7504
  20301750.5504    -557656.43848   -412909.71049                  20301751.8394
        29.7504         63.7504
  20381720.6204   -5696713.69947  -4409658.25049                  20381721.6404
        27.7504         63.7504
  21720517.8154  -12743641.07947  -9846602.66448                  21720519.3514
        21.7504         47.7504
                     65810.205 5     51282.041 5  23405561.995    23405563.339
         9.250           9.750
  21962109.7224    7306254.09847   5669107.12448                  21962111.5504
        22.5004         48.5004
  21355209.7614  -10733865.09647  -8297187.61149                  21355211.1204
        25.2504         63.7504
 95  4 13 17 10 14.9990000  0  7G 2G18G19G27G28G29G31
  22865224.0344   -7567478.14146  -5793958.70846                  22865227.0344
        14.7504         24.2504
  20304341.8944    -544039.26048   -402298.93049                  20304343.1594
        30.0004         63.7504
  20378807.6284   -5712021.99747  -4421586.79349                  20378808.6364
        27.7504         63.7504
  21712835.1834  -12784013.04247  -9878061.32848                  21712836.8124
        21.7504         49.2504
                     82521.872 5     64304.109 5  23408742.105    23408743.647
         9.000           9.750
  21968296.1834    7338764.32447   5694439.74848                  21968297.9294
        22.5004         49.2504
  21351994.8784  -10750760.28347  -8310352.68349                  21351996.3434
        25.2504         63.7504
 95  4 13 17 10 29.9990000  0  7G 2G18G19G27G28G29G31
  22856404.4804   -7613824.01046  -5830072.35746                  22856407.2454
        15.2504         25.5004
  20306951.3944    -530325.79348   -391613.11749                  20306952.7884
        30.0004         63.7504
  20375898.1444   -5727310.96247  -4433500.27249                  20375899.1284
        27.7504         63.7504
  21705151.6984  -12824389.64647  -9909523.61648                  21705153.6084
        21.7504         50.5004
                     99322.931 5     77395.830 5  23411939.159    23411940.776
         9.000           9.500
  21974492.0654    7371324.73847   5719811.47948                  21974493.8354
        22.0004         48.5004
  21348802.3864  -10767536.55147  -8323425.09549                  21348803.8044
        25.2504         63.7504
 95  4 13 17 10 44.9990000  0  7G 2G18G19G27G28G29G31
  22847589.9954   -7660145.19846  -5866166.76846                  22847593.3584
        15.0004         25.5004
  20309578.8474    -516519.07548   -380854.64149                  20309580.0424
        30.2504         63.7504
  20372992.3084   -5742581.26547  -4445399.21049                  20372993.2694
        27.7504         63.7504
  21697467.4564  -12864770.16647  -9940988.95548                  21697469.4374
        21.5004         50.5004
                    116211.577 5     90555.804 5  23415153.183    23415154.733
         9.000           9.500
  21980697.0584    7403932.63847   5745220.21048                  21980698.8044
        22.2504         47.2504
  21345632.9334  -10784191.70747  -8336403.13249                  21345634.2924
        25.2504         63.5004
 95  4 13 17 10 59.9990000  0  7G 2G18G19G27G28G29G31
  22838780.5654   -7706440.00946  -5902240.62247                  22838783.4014
        15.7504         28.2504
  20312223.8704    -502618.37648   -370022.93249                  20312225.0194
        30.0004         63.7504
  20370089.6984   -5757835.56947  -4457285.67949                  20370090.7654
        27.7504         63.7504
  21689782.2064  -12905157.17247  -9972459.33648                  21689783.8824
        21.2504         49.2504
                    133185.991 5    103782.608 5  23418383.206    23418384.882
         9.000           9.250
  21986910.4954    7436583.74047   5770662.61248                  21986912.1834
        22.7504         46.5004
  21342486.1674  -10800728.88447  -8349289.24749                  21342487.4914
        25.2504         63.7504
 95  4 13 17 11 14.9990000  0  7G 2G18G19G27G28G29G31
  22829974.3314   -7752714.52346  -5938298.67347                  22829977.2144
        15.5004         26.2504
  20314885.4644    -488632.00848   -359124.47049                  20314886.6244
        30.0004         63.7504
  20367187.6834   -5773084.56247  -4469168.00849                  20367188.9134
        27.7504         63.7504
  21682095.1124  -12945553.39347 -10003936.90548                  21682096.9404
        21.7504         48.5004
                    150238.350 5    117070.149 5  23421628.230    23421629.640
         8.750           9.000
  21993130.2614    7469267.84847   5796130.72948                  21993131.7144
        22.2504         46.5004
  21339360.0344  -10817155.42747  -8362089.14749                  21339361.5114
        25.0004         63.5004
 95  4 13 17 11 29.9990000  0  7G 2G18G19G27G28G29G31
  22821174.7694   -7798957.84646  -5974332.41047                  22821177.5224
        16.2504         26.7504
  20317564.6754    -474551.32248   -348152.51149                  20317565.8584
        29.7504         63.7504
  20364288.8004   -5788319.13947  -4481039.10849                  20364290.0074
        27.7504         63.7504
  21674408.2454  -12985947.26947 -10035412.64848                  21674410.1444
        21.2504         51.7504
                    167378.566 5    130426.156 5  23424889.855    23424891.315
         8.750           9.000
  21999357.5974    7501993.96647   5821631.58848                  21999359.1084
        21.7504         45.2504
  21336258.2224  -10833456.97647  -8374791.64349                  21336259.6514
        25.2504         63.7504
 95  4 13 17 11 44.9990000  0  7G 2G18G19G27G28G29G31
  22812380.3554   -7845174.45846  -6010345.34447                  22812383.0504
        16.0004         26.7504
  20320260.3084    -460387.09948   -337115.46149                  20320261.4684
        30.0004         63.7504
  20361392.0344   -5803541.77447  -4492900.90149                  20361393.1364
        27.7504         63.7504
  21666720.5034  -13026346.08347 -10066892.23548                  21666722.4374
        21.5004         49.7504
                    184600.660 5    143845.962 5  23428166.948    23428168.526
         8.500           8.750
  22005592.8154    7534757.92347   5847161.91648                  22005594.2574
        22.0004         44.0004
  21333179.0974  -10849637.57647  -8387399.89849                  21333180.4564
        25.7504         63.7504
 95  4 13 17 11 59.9990000  0  7G 2G18G19G27G28G29G31
  22803592.0114   -7891357.69746  -6046332.26547                  22803594.7534
        16.2504         27.5004
  20322971.2144    -446140.40248   -326014.14549                  20322972.2924
        29.7504         63.7504
  20358498.1514   -5818748.57847  -4504750.35849                  20358499.3354
        27.7504         63.7504
  21659032.0344  -13066749.86747 -10098375.69848                  21659034.0504
        21.7504         52.5004
                    201907.600 5    157331.873 5  23431460.503    23431461.995
         8.500           8.750
  22011835.2764    7567564.12147   5872725.17947                  22011837.0814
        21.0004         39.2504
  21330123.6364  -10865695.60747  -8399912.64849                  21330124.9954
        25.2504         63.7504
 95  4 13 17 12 14.9990000  0  7G 2G18G19G27G28G29G31
  22794811.5034   -7937501.33546  -6082288.33947                  22794813.8474
        16.7504         28.2504
  20325697.9954    -431811.35948   -314848.66549                  20325699.0264
        30.0004         63.7504
  20355607.4874   -5833938.37047  -4516586.55849                  20355608.6714
        27.7504         63.7504
  21651342.2144  -13107160.85947 -10129864.77348                  21651344.0654
        21.7504         51.0004
                    219300.195 5    170884.539 5  23434770.292    23434771.608
         8.500           8.750
  22018086.3554    7600413.88647   5898322.37647                  22018087.9834
        20.2504         37.2504
  21327090.8394  -10881631.31247  -8412330.07749                  21327092.3624
        25.5004         63.7504
 95  4 13 17 12 29.9990000  0  7G 2G18G19G27G28G29G31
  22786036.7454   -7983609.92146  -6118217.10447                  22786039.3824
        16.2504         27.5004
  20328440.0194    -417403.21248   -303621.54249                  20328441.1554
        29.7504         63.7504
  20352719.0654   -5849118.15447  -4528414.95949                  20352720.2844
        27.7504         63.7504
  21643649.0584  -13147587.27447 -10161365.87548                  21643650.7694
        22.0004         51.0004
                    236773.746 5    184500.288 5  23438095.487    23438096.745
         8.500           8.500
  22024344.8154    7633303.60046   5923950.71247                  22024346.4444
        19.7504         37.2504
  21324080.6754  -10897451.03747  -8424657.13349                  21324082.2694
        25.5004         63.7504
 95  4 13 17 12 44.9990000  0  7G 2G18G19G27G28G29G31
  22777270.6124   -8029677.43546  -6154113.84847                  22777273.0264
        16.5004         27.5004
  20331197.6754    -402909.69248   -292327.89749                  20331198.8474
        29.0004         63.7504
  20349832.5504   -5864285.72347  -4540233.84249                  20349833.7574
        27.7504         63.7504
  21635954.3784  -13188023.64847 -10192874.72748                  21635956.0654
        22.0004         52.5004
                    254335.365 5    198184.656 5  23441437.339    23441438.741
         8.750           8.750
  22030612.7844    7666243.09446   5949617.82347                  22030614.7304
        19.0004         32.7504
  21321092.9644  -10913151.10547  -8436890.94249                  21321094.5694
        25.7504         63.7504
 95  4 13 17 12 59.9990000  0  7G 2G18G19G27G28G29G31
  22768510.3314   -8075711.97446  -6189984.90247                  22768513.1794
        16.2504         28.2504
  20333970.6834    -388337.79548   -280973.17749                  20333971.7264
        29.0004         63.7504
  20346946.8004   -5879450.90347  -4552050.86449                  20346947.9604
        27.7504         63.7504
  21628255.9484  -13228478.98047 -10224398.36048                  21628257.5654
        22.0004         51.0004
                    271977.821 5    211932.013 5  23444794.456    23444796.046
         8.750           9.000
  22036889.1124    7699224.91346   5975317.92347                  22036891.0224
        18.7504         34.0004
  21318126.3394  -10928740.24247  -8449038.32149                  21318127.8974
        25.7504         63.7504
 95  4 13 17 13 14.9990000  0  7G 2G18G19G27G28G29G31
  22759756.6124   -8121714.90646  -6225831.33147                  22759759.2024
        16.5004         28.2504
  20336758.3784    -373688.98248   -269558.52549                  20336759.5854
        28.7504         63.7504
  20344061.4954   -5894613.46547  -4563865.84649                  20344062.6444
        27.7504         63.7504
  21620554.4874  -13268950.82747 -10255934.86149                  21620556.0344
        22.2504         53.7504
                    289701.547 5    225742.699 5  23448167.308    23448169.085
         8.750           9.000
  22043174.2144    7732252.66146   6001053.80647                  22043176.0544
        18.7504         34.0004
  21315180.6984  -10944219.09847  -8461099.75949                  21315182.0814
        25.7504         63.7504
 95  4 13 17 13 29.9990000  0  7G 2G18G19G27G28G29G31
  22751008.0654   -8167687.44246  -6261654.07947                  22751010.9954
        16.2504         28.7504
  20339560.2454    -358964.14448   -258084.63049                  20339561.4644
        28.2504         63.7504
  20341177.3154   -5909770.77247  -4575676.73549                  20341178.4994
        27.5004         63.7504
  21612850.3944  -13309439.01447 -10287484.08948                  21612851.9874
        23.0004         52.5004
                    307507.379 5    239617.365 5  23451555.745    23451557.562
         8.750           9.250
  22049467.8154    7765327.91646   6026826.71847                  22049470.1594
        18.0004         32.7504
  21312256.5424  -10959585.02547  -8473073.20749                  21312257.9834
        25.5004         63.7504
 95  4 13 17 13 44.9990000  0  7G 2G18G19G27G28G29G31
  22742264.9644   -8213632.74246  -6297455.59747                  22742267.8704
        16.5004         30.2504
  20342376.0034    -344166.35148   -246553.89349                  20342377.5974
        28.0004         63.7504
  20338294.6594   -5924918.64647  -4587480.27449                  20338295.9134
        27.5004         63.7504
  21605140.7374  -13349950.65247 -10319051.59949                  21605142.2844
        22.5004         53.7504
                    325392.941 5    253554.152 5  23454959.183    23454960.866
         9.000           9.250
  22055771.2064    7798450.67946   6052636.64147                  22055773.2454
        19.0004         34.0004
  21309353.6984  -10974841.77947  -8484961.57849                  21309355.1754
        26.0004         63.7504
 95  4 13 17 13 59.9990000  0  7G 2G18G19G27G28G29G31
  22733527.5264   -8259546.75846  -6333232.73947                  22733530.0934
        16.0004         27.5004
  20345207.5114    -329289.67248   -234961.68649                  20345208.9524
        28.2504         63.7504
  20335415.1754   -5940051.28147  -4599271.89749                  20335416.1364
        27.7504         63.7504
  21597427.3554  -13390485.18747 -10350636.94448                  21597428.9484
        22.2504         53.0004
                    343361.701 5    267555.768 5  23458378.440    23458380.366
         8.750           9.250
  22062084.4174    7831625.57446   6078487.18647                  22062086.2334
        19.5004         35.2504
  21306470.8004  -10989989.30647  -8496764.89949                  21306472.7224
        25.7504         63.7504
 95  4 13 17 14 14.9990000  0  7G 2G18G19G27G28G29G31
  22724795.6674   -8305433.83646  -6368988.88047                  22724798.4444
        16.7504         26.7504
  20348053.6204    -314332.52347   -223306.77549                  20348055.0034
        27.7504         63.7504
  20332537.6054   -5955171.51447  -4611053.93849                  20332538.9294
        27.5004         63.7504
  21589709.1674  -13431044.13947 -10382241.31948                  21589710.7264
        22.2504         52.5004
                    361410.954 5    281620.110 5  23461813.362    23461815.097
         9.000           9.250
  22068406.7614    7864849.06747   6104375.60947                  22068408.4134
        20.2504         33.5004
  21303608.7374  -11005028.72947  -8508483.85749                  21303610.3784
        25.2504         63.7504
 95  4 13 17 14 29.9990000  0  7G 2G18G19G27G28G29G31
  22716070.1594   -8351288.13446  -6404719.49647                  22716072.8314
        16.7504         28.2504
  20350916.9404    -299282.99047   -211579.87049                  20350918.3124
        27.5004         63.7504
  20329664.3704   -5970271.53247  -4622820.17949                  20329665.6834
        27.5004         63.7504
  21581988.6444  -13471615.16447 -10413855.10148                  21581990.2724
        22.0004         51.7504
                    379549.134 5    295753.739 5  23465264.800    23465266.569
         9.000           9.250
  22074739.7764    7898130.16847   6130308.91747                  22074741.6054
        20.2504         36.0004
  21300769.8394  -11019949.32047  -8520110.29949                  21300771.4444
        25.7504         63.5004
 95  4 13 17 14 44.9990000  0  7G 2G18G19G27G28G29G31
  22707347.9564   -8397121.52146  -6440433.81347                  22707350.7334
        16.5004         28.7504
  20353797.0974    -284149.56547   -199787.60449                  20353798.4334
        27.7504         63.7504
  20326793.2064   -5985360.52347  -4634577.83149                  20326794.6244
        27.7504         63.7504
  21574264.7534  -13512205.01547 -10445483.55148                  21574266.5694
        22.2504         53.0004
                    397766.473 5    309949.061 5  23468731.409    23468733.124
         8.750           9.250
  22081081.9804    7931458.47147   6156279.00647                  22081083.5264
        20.7504         35.2504
  21297951.1984  -11034760.78647  -8531651.70049                  21297952.6164
        25.5004         63.7504
 95  4 13 17 14 59.9990000  0  7G 2G18G19G27G28G29G31
  22698631.4954   -8442930.00146  -6476128.71747                  22698634.6364
        16.7504         28.2504
  20356693.5424    -268928.37547   -187926.94749                  20356694.8904
        27.5004         63.7504
  20323925.0654   -6000430.99047  -4646321.05049                  20323926.4834
        27.0004         63.7504
  21566538.2694  -13552807.95347 -10477122.19948                  21566539.9914
        22.5004         51.7504
                    416065.543 5    324208.058 5  23472213.690    23472215.331
         8.750           9.250
  22087433.0974    7964833.80847   6182285.74947                  22087434.4094
        21.0004         38.7504
  21295154.3394  -11049458.09547  -8543104.14349                  21295155.8274
        25.0004         63.7504
 95  4 13 17 15 14.9990000  0  7G 2G18G19G27G28G29G31
  22689919.4644   -8488707.54246  -6511799.52247                  22689922.6754
        16.0004         27.5004
  20359607.3084    -253615.77747   -175995.05849                  20359608.7374
        27.5004         63.7504
  20321062.5974   -6015474.29847  -4658043.11149                  20321064.0154
        27.5004         63.7504
  21558810.1754  -13593419.91647 -10508767.87949                  21558812.0384
        22.2504         55.0004
                    434449.790 5    338533.426 5  23475712.190    23475714.101
         8.750           9.500
  22093794.0894    7998259.51247   6208331.73947                  22093795.3784
        21.2504         38.7504
  21292380.5734  -11064037.07047  -8554464.37649                  21292381.9214
        25.7504         63.7504
 95  4 13 17 15 29.9990000  0  7G 2G18G19G27G28G29G31
  22681213.9564   -8534456.49746  -6547448.03847                  22681217.0624
        15.7504         28.7504
  20362538.8004    -238211.59247   -163991.80849                  20362540.3584
        27.5004         63.7504
  20318205.1444   -6030490.29247  -4669743.87749                  20318206.4914
        27.5004         63.7504
  21551079.6284  -13634042.85647 -10540422.11249                  21551081.6554
        22.5004         53.7504
                    452917.618 5    352923.930 5  23479226.464    23479228.417
         9.000           9.500
  22100163.9254    8031733.10347   6234415.03848                  22100165.2844
        21.2504         40.0004
  21289628.0814  -11078500.33047  -8565734.44649                  21289629.3234
        25.7504         63.7504
 95  4 13 17 15 44.9990000  0  7G 2G18G19G27G28G29G31
  22672513.0504   -8580179.59946  -6583076.42147                  22672516.0264
        16.2504         27.5004
  20365487.8474    -222714.34747   -151916.04349                  20365489.3354
        27.7504         63.7504
  20315352.6984   -6045480.72347  -4681424.73249                  20315354.1634
        27.7504         63.7504
  21543346.2374  -13674680.61447 -10572087.89449                  21543348.1124
        22.0004         55.0004
                    471467.309 5    367378.215 5  23482756.315    23482758.159
         8.750           9.750
  22106542.8474    8065252.45747   6260533.99247                  22106544.2414
        21.2504         38.7504
  21286897.6444  -11092848.52447  -8576914.84949                  21286898.8624
        26.0004         63.7504
 95  4 13 17 15 59.9990000  0  7G 2G18G19G27G28G29G31
  22663815.9804   -8625881.96146  -6618688.63047                  22663819.2724
        15.7504         28.2504
  20368453.7374    -207127.44147   -139770.41349                  20368455.2374
        27.2504         63.7504
  20312503.4254   -6060453.99347  -4693092.21449                  20312504.8904
        27.7504         63.7504
  21535610.2614  -13715335.98847 -10603767.39849                  21535612.0194
        22.7504         55.0004
                    490094.294 5    381892.733 5  23486300.839    23486302.687
         8.750           9.750
  22112928.3784    8098811.69647   6286684.03147                  22112930.2414
        20.2504         37.2504
  21284188.4014  -11107084.36247  -8588007.70649                  21284189.8314
        25.2504         63.7504
